
<gpx xmlns="http://www.topografix.com/GPX/1/1" xmlns:gpxx="http://www.garmin.com/xmlschemas/GpxExtensions/v3" xmlns:xsi="http://www.w3.org/2001/XMLSchema-instance" version="1.1" creator="Adze - http://kobotsw.com/apps/adze" xsi:schemaLocation="http://www.topografix.com/GPX/1/1 http://www.topografix.com/GPX/1/1/gpx.xsd http://www.garmin.com/xmlschemas/GpxExtensions/v3 http://www.garmin.com/xmlschemas/GpxExtensionsv3.xsd">
    <metadata>
        <name>Untitled Document</name>
        <link href="http://www.garmin.com"></link>
        <time>2018-02-26T06:40:15.711Z</time>
    </metadata>
    <wpt lon="100.943235" lat="14.518035">
        <ele>48.000000</ele>
        <time>2014-11-01T03:47:06Z</time>
        <name>Baandara Resort</name>
        <cmt>01-NOV-14 10:47:06AM</cmt>
        <desc>01-NOV-14 10:47:06AM</desc>
        <sym>Lodging</sym>
        <extensions>
            <gpxx:WaypointExtension xmlns:gpxx="http://www.garmin.com/xmlschemas/GpxExtensions/v3">
                <gpxx:DisplayMode>SymbolAndName</gpxx:DisplayMode>
            </gpxx:WaypointExtension>
        </extensions>
    </wpt>
    <trk>
        <name>Saturday</name>
        <extensions>
            <gpxx:TrackExtension xmlns:gpxx="http://www.garmin.com/xmlschemas/GpxExtensions/v3">
                <gpxx:DisplayColor>Red</gpxx:DisplayColor>
            </gpxx:TrackExtension>
        </extensions>
        <trkseg>
            <trkpt lon="100.943398" lat="14.518315">
                <ele>25.130000</ele>
                <time>2014-11-01T05:31:17Z</time>
            </trkpt>
            <trkpt lon="100.943371" lat="14.518325">
                <ele>26.090000</ele>
                <time>2014-11-01T05:31:26Z</time>
            </trkpt>
            <trkpt lon="100.943454" lat="14.518233">
                <ele>25.610000</ele>
                <time>2014-11-01T05:31:33Z</time>
            </trkpt>
            <trkpt lon="100.943330" lat="14.518167">
                <ele>26.090000</ele>
                <time>2014-11-01T05:31:40Z</time>
            </trkpt>
            <trkpt lon="100.942913" lat="14.518197">
                <ele>28.500000</ele>
                <time>2014-11-01T05:31:54Z</time>
            </trkpt>
            <trkpt lon="100.942873" lat="14.518166">
                <ele>28.980000</ele>
                <time>2014-11-01T05:31:57Z</time>
            </trkpt>
            <trkpt lon="100.942872" lat="14.518142">
                <ele>29.460000</ele>
                <time>2014-11-01T05:31:58Z</time>
            </trkpt>
            <trkpt lon="100.942878" lat="14.518112">
                <ele>29.460000</ele>
                <time>2014-11-01T05:31:59Z</time>
            </trkpt>
            <trkpt lon="100.942885" lat="14.518079">
                <ele>28.980000</ele>
                <time>2014-11-01T05:32:00Z</time>
            </trkpt>
            <trkpt lon="100.943033" lat="14.517444">
                <ele>29.460000</ele>
                <time>2014-11-01T05:32:17Z</time>
            </trkpt>
            <trkpt lon="100.943127" lat="14.516791">
                <ele>28.500000</ele>
                <time>2014-11-01T05:32:32Z</time>
            </trkpt>
            <trkpt lon="100.943110" lat="14.515990">
                <ele>28.500000</ele>
                <time>2014-11-01T05:32:49Z</time>
            </trkpt>
            <trkpt lon="100.943089" lat="14.515767">
                <ele>28.500000</ele>
                <time>2014-11-01T05:32:54Z</time>
            </trkpt>
            <trkpt lon="100.943346" lat="14.515704">
                <ele>27.530000</ele>
                <time>2014-11-01T05:33:00Z</time>
            </trkpt>
            <trkpt lon="100.943769" lat="14.515484">
                <ele>25.610000</ele>
                <time>2014-11-01T05:33:10Z</time>
            </trkpt>
            <trkpt lon="100.943775" lat="14.515443">
                <ele>26.090000</ele>
                <time>2014-11-01T05:33:11Z</time>
            </trkpt>
            <trkpt lon="100.943796" lat="14.515364">
                <ele>25.130000</ele>
                <time>2014-11-01T05:33:13Z</time>
            </trkpt>
            <trkpt lon="100.943948" lat="14.515244">
                <ele>24.170000</ele>
                <time>2014-11-01T05:33:18Z</time>
            </trkpt>
            <trkpt lon="100.944149" lat="14.515257">
                <ele>24.170000</ele>
                <time>2014-11-01T05:33:22Z</time>
            </trkpt>
            <trkpt lon="100.944359" lat="14.515246">
                <ele>24.170000</ele>
                <time>2014-11-01T05:33:26Z</time>
            </trkpt>
            <trkpt lon="100.944536" lat="14.515146">
                <ele>23.210000</ele>
                <time>2014-11-01T05:33:30Z</time>
            </trkpt>
            <trkpt lon="100.944808" lat="14.515046">
                <ele>22.730000</ele>
                <time>2014-11-01T05:33:36Z</time>
            </trkpt>
            <trkpt lon="100.944911" lat="14.515082">
                <ele>22.730000</ele>
                <time>2014-11-01T05:33:38Z</time>
            </trkpt>
            <trkpt lon="100.945246" lat="14.515104">
                <ele>22.730000</ele>
                <time>2014-11-01T05:33:46Z</time>
            </trkpt>
            <trkpt lon="100.945329" lat="14.515031">
                <ele>22.730000</ele>
                <time>2014-11-01T05:33:49Z</time>
            </trkpt>
            <trkpt lon="100.945410" lat="14.514948">
                <ele>21.770000</ele>
                <time>2014-11-01T05:33:52Z</time>
            </trkpt>
            <trkpt lon="100.945434" lat="14.514574">
                <ele>22.730000</ele>
                <time>2014-11-01T05:34:02Z</time>
            </trkpt>
            <trkpt lon="100.945400" lat="14.514311">
                <ele>22.250000</ele>
                <time>2014-11-01T05:34:11Z</time>
            </trkpt>
            <trkpt lon="100.945580" lat="14.513818">
                <ele>22.250000</ele>
                <time>2014-11-01T05:34:26Z</time>
            </trkpt>
            <trkpt lon="100.945699" lat="14.513310">
                <ele>23.690000</ele>
                <time>2014-11-01T05:34:40Z</time>
            </trkpt>
            <trkpt lon="100.945719" lat="14.513278">
                <ele>23.690000</ele>
                <time>2014-11-01T05:34:41Z</time>
            </trkpt>
            <trkpt lon="100.945761" lat="14.512899">
                <ele>24.170000</ele>
                <time>2014-11-01T05:34:52Z</time>
            </trkpt>
            <trkpt lon="100.945808" lat="14.512793">
                <ele>24.650000</ele>
                <time>2014-11-01T05:34:56Z</time>
            </trkpt>
            <trkpt lon="100.945788" lat="14.512493">
                <ele>24.650000</ele>
                <time>2014-11-01T05:35:06Z</time>
            </trkpt>
            <trkpt lon="100.945908" lat="14.512349">
                <ele>25.130000</ele>
                <time>2014-11-01T05:35:13Z</time>
            </trkpt>
            <trkpt lon="100.945897" lat="14.511922">
                <ele>25.610000</ele>
                <time>2014-11-01T05:35:27Z</time>
            </trkpt>
            <trkpt lon="100.945752" lat="14.511645">
                <ele>26.090000</ele>
                <time>2014-11-01T05:35:38Z</time>
            </trkpt>
            <trkpt lon="100.945604" lat="14.511438">
                <ele>27.530000</ele>
                <time>2014-11-01T05:35:52Z</time>
            </trkpt>
            <trkpt lon="100.945597" lat="14.511420">
                <ele>26.570000</ele>
                <time>2014-11-01T05:35:55Z</time>
            </trkpt>
            <trkpt lon="100.945563" lat="14.511353">
                <ele>27.050000</ele>
                <time>2014-11-01T05:36:00Z</time>
            </trkpt>
            <trkpt lon="100.945503" lat="14.511005">
                <ele>28.020000</ele>
                <time>2014-11-01T05:36:16Z</time>
            </trkpt>
            <trkpt lon="100.945435" lat="14.510813">
                <ele>29.460000</ele>
                <time>2014-11-01T05:36:28Z</time>
            </trkpt>
            <trkpt lon="100.945364" lat="14.510782">
                <ele>30.420000</ele>
                <time>2014-11-01T05:36:39Z</time>
            </trkpt>
            <trkpt lon="100.945279" lat="14.510715">
                <ele>30.420000</ele>
                <time>2014-11-01T05:36:52Z</time>
            </trkpt>
            <trkpt lon="100.945269" lat="14.510700">
                <ele>29.940000</ele>
                <time>2014-11-01T05:36:57Z</time>
            </trkpt>
            <trkpt lon="100.945246" lat="14.510686">
                <ele>29.460000</ele>
                <time>2014-11-01T05:36:59Z</time>
            </trkpt>
            <trkpt lon="100.945230" lat="14.510674">
                <ele>30.420000</ele>
                <time>2014-11-01T05:37:00Z</time>
            </trkpt>
            <trkpt lon="100.945211" lat="14.510664">
                <ele>30.420000</ele>
                <time>2014-11-01T05:37:01Z</time>
            </trkpt>
            <trkpt lon="100.945192" lat="14.510653">
                <ele>30.420000</ele>
                <time>2014-11-01T05:37:02Z</time>
            </trkpt>
            <trkpt lon="100.945170" lat="14.510644">
                <ele>30.900000</ele>
                <time>2014-11-01T05:37:03Z</time>
            </trkpt>
            <trkpt lon="100.945148" lat="14.510635">
                <ele>30.420000</ele>
                <time>2014-11-01T05:37:04Z</time>
            </trkpt>
            <trkpt lon="100.945127" lat="14.510627">
                <ele>30.420000</ele>
                <time>2014-11-01T05:37:05Z</time>
            </trkpt>
            <trkpt lon="100.945106" lat="14.510617">
                <ele>30.900000</ele>
                <time>2014-11-01T05:37:06Z</time>
            </trkpt>
            <trkpt lon="100.945087" lat="14.510606">
                <ele>30.900000</ele>
                <time>2014-11-01T05:37:07Z</time>
            </trkpt>
            <trkpt lon="100.945069" lat="14.510593">
                <ele>31.380000</ele>
                <time>2014-11-01T05:37:08Z</time>
            </trkpt>
            <trkpt lon="100.945055" lat="14.510579">
                <ele>31.380000</ele>
                <time>2014-11-01T05:37:09Z</time>
            </trkpt>
            <trkpt lon="100.945044" lat="14.510567">
                <ele>30.900000</ele>
                <time>2014-11-01T05:37:10Z</time>
            </trkpt>
            <trkpt lon="100.945032" lat="14.510556">
                <ele>30.900000</ele>
                <time>2014-11-01T05:37:11Z</time>
            </trkpt>
            <trkpt lon="100.944769" lat="14.510401">
                <ele>31.380000</ele>
                <time>2014-11-01T05:37:24Z</time>
            </trkpt>
            <trkpt lon="100.944501" lat="14.510237">
                <ele>33.300000</ele>
                <time>2014-11-01T05:37:38Z</time>
            </trkpt>
            <trkpt lon="100.944327" lat="14.510108">
                <ele>34.260000</ele>
                <time>2014-11-01T05:37:48Z</time>
            </trkpt>
            <trkpt lon="100.944305" lat="14.510103">
                <ele>34.260000</ele>
                <time>2014-11-01T05:37:49Z</time>
            </trkpt>
            <trkpt lon="100.944281" lat="14.510095">
                <ele>34.260000</ele>
                <time>2014-11-01T05:37:50Z</time>
            </trkpt>
            <trkpt lon="100.944258" lat="14.510085">
                <ele>34.260000</ele>
                <time>2014-11-01T05:37:51Z</time>
            </trkpt>
            <trkpt lon="100.944237" lat="14.510076">
                <ele>33.780000</ele>
                <time>2014-11-01T05:37:52Z</time>
            </trkpt>
            <trkpt lon="100.944218" lat="14.510066">
                <ele>34.260000</ele>
                <time>2014-11-01T05:37:53Z</time>
            </trkpt>
            <trkpt lon="100.944200" lat="14.510054">
                <ele>33.780000</ele>
                <time>2014-11-01T05:37:54Z</time>
            </trkpt>
            <trkpt lon="100.944182" lat="14.510040">
                <ele>33.780000</ele>
                <time>2014-11-01T05:37:55Z</time>
            </trkpt>
            <trkpt lon="100.944166" lat="14.510027">
                <ele>33.780000</ele>
                <time>2014-11-01T05:37:56Z</time>
            </trkpt>
            <trkpt lon="100.944148" lat="14.510015">
                <ele>34.260000</ele>
                <time>2014-11-01T05:37:57Z</time>
            </trkpt>
            <trkpt lon="100.944130" lat="14.510002">
                <ele>34.260000</ele>
                <time>2014-11-01T05:37:58Z</time>
            </trkpt>
            <trkpt lon="100.943868" lat="14.509917">
                <ele>37.150000</ele>
                <time>2014-11-01T05:38:12Z</time>
            </trkpt>
            <trkpt lon="100.943647" lat="14.509807">
                <ele>38.590000</ele>
                <time>2014-11-01T05:38:25Z</time>
            </trkpt>
            <trkpt lon="100.943596" lat="14.509774">
                <ele>39.070000</ele>
                <time>2014-11-01T05:38:28Z</time>
            </trkpt>
            <trkpt lon="100.943576" lat="14.509766">
                <ele>39.070000</ele>
                <time>2014-11-01T05:38:29Z</time>
            </trkpt>
            <trkpt lon="100.943245" lat="14.509639">
                <ele>40.510000</ele>
                <time>2014-11-01T05:38:45Z</time>
            </trkpt>
            <trkpt lon="100.942934" lat="14.509559">
                <ele>40.030000</ele>
                <time>2014-11-01T05:38:57Z</time>
            </trkpt>
            <trkpt lon="100.942872" lat="14.509560">
                <ele>40.510000</ele>
                <time>2014-11-01T05:39:00Z</time>
            </trkpt>
            <trkpt lon="100.942854" lat="14.509571">
                <ele>39.550000</ele>
                <time>2014-11-01T05:39:01Z</time>
            </trkpt>
            <trkpt lon="100.942613" lat="14.509830">
                <ele>39.550000</ele>
                <time>2014-11-01T05:39:13Z</time>
            </trkpt>
            <trkpt lon="100.942333" lat="14.510092">
                <ele>38.590000</ele>
                <time>2014-11-01T05:39:23Z</time>
            </trkpt>
            <trkpt lon="100.941997" lat="14.510488">
                <ele>37.150000</ele>
                <time>2014-11-01T05:39:37Z</time>
            </trkpt>
            <trkpt lon="100.941699" lat="14.510605">
                <ele>34.740000</ele>
                <time>2014-11-01T05:39:48Z</time>
            </trkpt>
            <trkpt lon="100.941637" lat="14.510611">
                <ele>34.740000</ele>
                <time>2014-11-01T05:39:50Z</time>
            </trkpt>
            <trkpt lon="100.941610" lat="14.510624">
                <ele>34.260000</ele>
                <time>2014-11-01T05:39:51Z</time>
            </trkpt>
            <trkpt lon="100.941592" lat="14.510634">
                <ele>34.260000</ele>
                <time>2014-11-01T05:39:52Z</time>
            </trkpt>
            <trkpt lon="100.941575" lat="14.510635">
                <ele>34.740000</ele>
                <time>2014-11-01T05:39:53Z</time>
            </trkpt>
            <trkpt lon="100.941563" lat="14.510632">
                <ele>35.230000</ele>
                <time>2014-11-01T05:39:54Z</time>
            </trkpt>
            <trkpt lon="100.941553" lat="14.510623">
                <ele>34.260000</ele>
                <time>2014-11-01T05:39:55Z</time>
            </trkpt>
            <trkpt lon="100.941556" lat="14.510506">
                <ele>34.260000</ele>
                <time>2014-11-01T05:40:01Z</time>
            </trkpt>
            <trkpt lon="100.941491" lat="14.510325">
                <ele>33.780000</ele>
                <time>2014-11-01T05:40:10Z</time>
            </trkpt>
            <trkpt lon="100.941450" lat="14.510270">
                <ele>33.780000</ele>
                <time>2014-11-01T05:40:13Z</time>
            </trkpt>
            <trkpt lon="100.941436" lat="14.510240">
                <ele>33.780000</ele>
                <time>2014-11-01T05:40:15Z</time>
            </trkpt>
            <trkpt lon="100.941277" lat="14.510100">
                <ele>33.300000</ele>
                <time>2014-11-01T05:40:27Z</time>
            </trkpt>
            <trkpt lon="100.941256" lat="14.510077">
                <ele>32.340000</ele>
                <time>2014-11-01T05:40:28Z</time>
            </trkpt>
            <trkpt lon="100.941120" lat="14.509901">
                <ele>31.860000</ele>
                <time>2014-11-01T05:40:40Z</time>
            </trkpt>
            <trkpt lon="100.940904" lat="14.509783">
                <ele>32.820000</ele>
                <time>2014-11-01T05:40:51Z</time>
            </trkpt>
            <trkpt lon="100.940791" lat="14.509715">
                <ele>31.860000</ele>
                <time>2014-11-01T05:40:58Z</time>
            </trkpt>
            <trkpt lon="100.940729" lat="14.509739">
                <ele>33.300000</ele>
                <time>2014-11-01T05:41:01Z</time>
            </trkpt>
            <trkpt lon="100.940332" lat="14.509701">
                <ele>33.300000</ele>
                <time>2014-11-01T05:41:14Z</time>
            </trkpt>
            <trkpt lon="100.940014" lat="14.509753">
                <ele>34.260000</ele>
                <time>2014-11-01T05:41:26Z</time>
            </trkpt>
            <trkpt lon="100.939919" lat="14.509753">
                <ele>34.260000</ele>
                <time>2014-11-01T05:41:31Z</time>
            </trkpt>
            <trkpt lon="100.939760" lat="14.509796">
                <ele>34.260000</ele>
                <time>2014-11-01T05:41:38Z</time>
            </trkpt>
            <trkpt lon="100.939617" lat="14.509801">
                <ele>34.260000</ele>
                <time>2014-11-01T05:41:45Z</time>
            </trkpt>
            <trkpt lon="100.939547" lat="14.509825">
                <ele>34.740000</ele>
                <time>2014-11-01T05:41:52Z</time>
            </trkpt>
            <trkpt lon="100.939397" lat="14.509764">
                <ele>35.230000</ele>
                <time>2014-11-01T05:42:02Z</time>
            </trkpt>
            <trkpt lon="100.939224" lat="14.509638">
                <ele>35.710000</ele>
                <time>2014-11-01T05:42:13Z</time>
            </trkpt>
            <trkpt lon="100.939057" lat="14.509635">
                <ele>35.710000</ele>
                <time>2014-11-01T05:42:20Z</time>
            </trkpt>
            <trkpt lon="100.938953" lat="14.509555">
                <ele>35.710000</ele>
                <time>2014-11-01T05:42:27Z</time>
            </trkpt>
            <trkpt lon="100.938874" lat="14.509540">
                <ele>35.710000</ele>
                <time>2014-11-01T05:42:37Z</time>
            </trkpt>
            <trkpt lon="100.938848" lat="14.509524">
                <ele>35.710000</ele>
                <time>2014-11-01T05:42:49Z</time>
            </trkpt>
            <trkpt lon="100.938594" lat="14.509451">
                <ele>34.740000</ele>
                <time>2014-11-01T05:43:01Z</time>
            </trkpt>
            <trkpt lon="100.938458" lat="14.509423">
                <ele>34.740000</ele>
                <time>2014-11-01T05:43:09Z</time>
            </trkpt>
            <trkpt lon="100.938398" lat="14.509403">
                <ele>35.710000</ele>
                <time>2014-11-01T05:43:13Z</time>
            </trkpt>
            <trkpt lon="100.938262" lat="14.509438">
                <ele>34.740000</ele>
                <time>2014-11-01T05:43:20Z</time>
            </trkpt>
            <trkpt lon="100.938009" lat="14.509383">
                <ele>35.230000</ele>
                <time>2014-11-01T05:43:30Z</time>
            </trkpt>
            <trkpt lon="100.937741" lat="14.509365">
                <ele>34.740000</ele>
                <time>2014-11-01T05:43:41Z</time>
            </trkpt>
            <trkpt lon="100.937718" lat="14.509288">
                <ele>35.230000</ele>
                <time>2014-11-01T05:43:44Z</time>
            </trkpt>
            <trkpt lon="100.937454" lat="14.509070">
                <ele>34.260000</ele>
                <time>2014-11-01T05:43:57Z</time>
            </trkpt>
            <trkpt lon="100.937234" lat="14.508962">
                <ele>35.230000</ele>
                <time>2014-11-01T05:44:08Z</time>
            </trkpt>
            <trkpt lon="100.936909" lat="14.508599">
                <ele>35.230000</ele>
                <time>2014-11-01T05:44:26Z</time>
            </trkpt>
            <trkpt lon="100.936895" lat="14.508288">
                <ele>35.710000</ele>
                <time>2014-11-01T05:44:38Z</time>
            </trkpt>
            <trkpt lon="100.936944" lat="14.507927">
                <ele>36.670000</ele>
                <time>2014-11-01T05:44:52Z</time>
            </trkpt>
            <trkpt lon="100.936986" lat="14.507695">
                <ele>37.630000</ele>
                <time>2014-11-01T05:45:03Z</time>
            </trkpt>
            <trkpt lon="100.936983" lat="14.507370">
                <ele>38.590000</ele>
                <time>2014-11-01T05:45:17Z</time>
            </trkpt>
            <trkpt lon="100.937009" lat="14.507038">
                <ele>39.550000</ele>
                <time>2014-11-01T05:45:32Z</time>
            </trkpt>
            <trkpt lon="100.937056" lat="14.506733">
                <ele>39.550000</ele>
                <time>2014-11-01T05:45:46Z</time>
            </trkpt>
            <trkpt lon="100.937102" lat="14.506517">
                <ele>40.030000</ele>
                <time>2014-11-01T05:45:56Z</time>
            </trkpt>
            <trkpt lon="100.937085" lat="14.506414">
                <ele>40.510000</ele>
                <time>2014-11-01T05:46:01Z</time>
            </trkpt>
            <trkpt lon="100.937141" lat="14.506071">
                <ele>40.990000</ele>
                <time>2014-11-01T05:46:16Z</time>
            </trkpt>
            <trkpt lon="100.937144" lat="14.505757">
                <ele>41.950000</ele>
                <time>2014-11-01T05:46:31Z</time>
            </trkpt>
            <trkpt lon="100.937253" lat="14.505464">
                <ele>42.920000</ele>
                <time>2014-11-01T05:46:47Z</time>
            </trkpt>
            <trkpt lon="100.937266" lat="14.505448">
                <ele>42.920000</ele>
                <time>2014-11-01T05:46:48Z</time>
            </trkpt>
            <trkpt lon="100.937374" lat="14.505445">
                <ele>43.400000</ele>
                <time>2014-11-01T05:46:53Z</time>
            </trkpt>
            <trkpt lon="100.937576" lat="14.505349">
                <ele>44.840000</ele>
                <time>2014-11-01T05:47:05Z</time>
            </trkpt>
            <trkpt lon="100.937640" lat="14.505109">
                <ele>45.800000</ele>
                <time>2014-11-01T05:47:18Z</time>
            </trkpt>
            <trkpt lon="100.937637" lat="14.505048">
                <ele>45.800000</ele>
                <time>2014-11-01T05:47:22Z</time>
            </trkpt>
            <trkpt lon="100.937735" lat="14.504810">
                <ele>46.280000</ele>
                <time>2014-11-01T05:47:34Z</time>
            </trkpt>
            <trkpt lon="100.937867" lat="14.504673">
                <ele>47.720000</ele>
                <time>2014-11-01T05:47:46Z</time>
            </trkpt>
            <trkpt lon="100.937877" lat="14.504664">
                <ele>48.200000</ele>
                <time>2014-11-01T05:47:47Z</time>
            </trkpt>
            <trkpt lon="100.938124" lat="14.504525">
                <ele>49.160000</ele>
                <time>2014-11-01T05:48:04Z</time>
            </trkpt>
            <trkpt lon="100.938380" lat="14.504429">
                <ele>50.610000</ele>
                <time>2014-11-01T05:48:18Z</time>
            </trkpt>
            <trkpt lon="100.938451" lat="14.504394">
                <ele>51.570000</ele>
                <time>2014-11-01T05:48:22Z</time>
            </trkpt>
            <trkpt lon="100.938490" lat="14.504336">
                <ele>52.050000</ele>
                <time>2014-11-01T05:48:27Z</time>
            </trkpt>
            <trkpt lon="100.938512" lat="14.504287">
                <ele>52.530000</ele>
                <time>2014-11-01T05:48:32Z</time>
            </trkpt>
            <trkpt lon="100.938552" lat="14.504063">
                <ele>53.970000</ele>
                <time>2014-11-01T05:48:46Z</time>
            </trkpt>
            <trkpt lon="100.938498" lat="14.503766">
                <ele>53.970000</ele>
                <time>2014-11-01T05:49:00Z</time>
            </trkpt>
            <trkpt lon="100.938505" lat="14.503741">
                <ele>53.490000</ele>
                <time>2014-11-01T05:49:01Z</time>
            </trkpt>
            <trkpt lon="100.938621" lat="14.503512">
                <ele>53.970000</ele>
                <time>2014-11-01T05:49:13Z</time>
            </trkpt>
            <trkpt lon="100.938799" lat="14.503235">
                <ele>54.930000</ele>
                <time>2014-11-01T05:49:24Z</time>
            </trkpt>
            <trkpt lon="100.939000" lat="14.503039">
                <ele>56.860000</ele>
                <time>2014-11-01T05:49:38Z</time>
            </trkpt>
            <trkpt lon="100.939066" lat="14.502977">
                <ele>56.860000</ele>
                <time>2014-11-01T05:49:47Z</time>
            </trkpt>
            <trkpt lon="100.939130" lat="14.502844">
                <ele>56.860000</ele>
                <time>2014-11-01T05:49:52Z</time>
            </trkpt>
            <trkpt lon="100.939291" lat="14.502622">
                <ele>58.300000</ele>
                <time>2014-11-01T05:50:05Z</time>
            </trkpt>
            <trkpt lon="100.939317" lat="14.502527">
                <ele>57.820000</ele>
                <time>2014-11-01T05:50:20Z</time>
            </trkpt>
            <trkpt lon="100.939334" lat="14.502423">
                <ele>59.260000</ele>
                <time>2014-11-01T05:50:37Z</time>
            </trkpt>
            <trkpt lon="100.939346" lat="14.502254">
                <ele>61.660000</ele>
                <time>2014-11-01T05:50:53Z</time>
            </trkpt>
            <trkpt lon="100.939346" lat="14.502127">
                <ele>64.550000</ele>
                <time>2014-11-01T05:51:09Z</time>
            </trkpt>
            <trkpt lon="100.939351" lat="14.501977">
                <ele>66.950000</ele>
                <time>2014-11-01T05:51:26Z</time>
            </trkpt>
            <trkpt lon="100.939376" lat="14.501838">
                <ele>68.870000</ele>
                <time>2014-11-01T05:51:43Z</time>
            </trkpt>
            <trkpt lon="100.939392" lat="14.501686">
                <ele>71.270000</ele>
                <time>2014-11-01T05:52:02Z</time>
            </trkpt>
            <trkpt lon="100.939467" lat="14.501592">
                <ele>72.240000</ele>
                <time>2014-11-01T05:52:19Z</time>
            </trkpt>
            <trkpt lon="100.939549" lat="14.501483">
                <ele>73.200000</ele>
                <time>2014-11-01T05:52:35Z</time>
            </trkpt>
            <trkpt lon="100.939578" lat="14.501438">
                <ele>74.160000</ele>
                <time>2014-11-01T05:52:51Z</time>
            </trkpt>
            <trkpt lon="100.939666" lat="14.501304">
                <ele>75.600000</ele>
                <time>2014-11-01T05:53:05Z</time>
            </trkpt>
            <trkpt lon="100.939754" lat="14.501185">
                <ele>76.080000</ele>
                <time>2014-11-01T05:53:19Z</time>
            </trkpt>
            <trkpt lon="100.939876" lat="14.501058">
                <ele>76.080000</ele>
                <time>2014-11-01T05:53:32Z</time>
            </trkpt>
            <trkpt lon="100.940106" lat="14.500891">
                <ele>77.520000</ele>
                <time>2014-11-01T05:53:50Z</time>
            </trkpt>
            <trkpt lon="100.940250" lat="14.500789">
                <ele>78.970000</ele>
                <time>2014-11-01T05:54:09Z</time>
            </trkpt>
            <trkpt lon="100.940241" lat="14.500798">
                <ele>78.480000</ele>
                <time>2014-11-01T05:54:34Z</time>
            </trkpt>
            <trkpt lon="100.940266" lat="14.500775">
                <ele>78.480000</ele>
                <time>2014-11-01T05:54:49Z</time>
            </trkpt>
            <trkpt lon="100.940294" lat="14.500742">
                <ele>78.970000</ele>
                <time>2014-11-01T05:55:38Z</time>
            </trkpt>
            <trkpt lon="100.940269" lat="14.500733">
                <ele>80.410000</ele>
                <time>2014-11-01T05:56:18Z</time>
            </trkpt>
            <trkpt lon="100.940335" lat="14.500757">
                <ele>81.370000</ele>
                <time>2014-11-01T05:56:34Z</time>
            </trkpt>
            <trkpt lon="100.940475" lat="14.500645">
                <ele>82.330000</ele>
                <time>2014-11-01T05:56:50Z</time>
            </trkpt>
            <trkpt lon="100.940547" lat="14.500616">
                <ele>83.290000</ele>
                <time>2014-11-01T05:57:00Z</time>
            </trkpt>
            <trkpt lon="100.940829" lat="14.500547">
                <ele>82.810000</ele>
                <time>2014-11-01T05:57:16Z</time>
            </trkpt>
            <trkpt lon="100.941034" lat="14.500436">
                <ele>82.330000</ele>
                <time>2014-11-01T05:57:28Z</time>
            </trkpt>
            <trkpt lon="100.941045" lat="14.500440">
                <ele>83.290000</ele>
                <time>2014-11-01T05:57:29Z</time>
            </trkpt>
            <trkpt lon="100.941079" lat="14.500444">
                <ele>83.290000</ele>
                <time>2014-11-01T05:57:31Z</time>
            </trkpt>
            <trkpt lon="100.941283" lat="14.500267">
                <ele>83.290000</ele>
                <time>2014-11-01T05:57:45Z</time>
            </trkpt>
            <trkpt lon="100.941431" lat="14.500064">
                <ele>84.730000</ele>
                <time>2014-11-01T05:57:59Z</time>
            </trkpt>
            <trkpt lon="100.941588" lat="14.499928">
                <ele>85.210000</ele>
                <time>2014-11-01T05:58:14Z</time>
            </trkpt>
            <trkpt lon="100.941635" lat="14.499860">
                <ele>86.180000</ele>
                <time>2014-11-01T05:58:21Z</time>
            </trkpt>
            <trkpt lon="100.941704" lat="14.499697">
                <ele>87.140000</ele>
                <time>2014-11-01T05:58:36Z</time>
            </trkpt>
            <trkpt lon="100.941803" lat="14.499546">
                <ele>88.580000</ele>
                <time>2014-11-01T05:58:50Z</time>
            </trkpt>
            <trkpt lon="100.941896" lat="14.499401">
                <ele>89.540000</ele>
                <time>2014-11-01T05:59:08Z</time>
            </trkpt>
            <trkpt lon="100.941987" lat="14.499292">
                <ele>90.020000</ele>
                <time>2014-11-01T05:59:21Z</time>
            </trkpt>
            <trkpt lon="100.942042" lat="14.499227">
                <ele>90.500000</ele>
                <time>2014-11-01T05:59:37Z</time>
            </trkpt>
            <trkpt lon="100.942086" lat="14.499121">
                <ele>91.940000</ele>
                <time>2014-11-01T05:59:55Z</time>
            </trkpt>
            <trkpt lon="100.942156" lat="14.498984">
                <ele>92.900000</ele>
                <time>2014-11-01T06:00:12Z</time>
            </trkpt>
            <trkpt lon="100.942296" lat="14.498881">
                <ele>92.900000</ele>
                <time>2014-11-01T06:00:30Z</time>
            </trkpt>
            <trkpt lon="100.942422" lat="14.498812">
                <ele>94.830000</ele>
                <time>2014-11-01T06:00:46Z</time>
            </trkpt>
            <trkpt lon="100.942487" lat="14.498733">
                <ele>95.790000</ele>
                <time>2014-11-01T06:01:02Z</time>
            </trkpt>
            <trkpt lon="100.942615" lat="14.498670">
                <ele>96.750000</ele>
                <time>2014-11-01T06:01:16Z</time>
            </trkpt>
            <trkpt lon="100.942718" lat="14.498586">
                <ele>97.230000</ele>
                <time>2014-11-01T06:01:29Z</time>
            </trkpt>
            <trkpt lon="100.942853" lat="14.498562">
                <ele>98.190000</ele>
                <time>2014-11-01T06:01:45Z</time>
            </trkpt>
            <trkpt lon="100.942948" lat="14.498547">
                <ele>100.600000</ele>
                <time>2014-11-01T06:02:00Z</time>
            </trkpt>
            <trkpt lon="100.943013" lat="14.498567">
                <ele>100.600000</ele>
                <time>2014-11-01T06:02:15Z</time>
            </trkpt>
            <trkpt lon="100.943013" lat="14.498563">
                <ele>101.080000</ele>
                <time>2014-11-01T06:02:16Z</time>
            </trkpt>
            <trkpt lon="100.943074" lat="14.498494">
                <ele>101.080000</ele>
                <time>2014-11-01T06:02:28Z</time>
            </trkpt>
            <trkpt lon="100.943134" lat="14.498413">
                <ele>102.520000</ele>
                <time>2014-11-01T06:02:42Z</time>
            </trkpt>
            <trkpt lon="100.943176" lat="14.498308">
                <ele>103.480000</ele>
                <time>2014-11-01T06:02:55Z</time>
            </trkpt>
            <trkpt lon="100.943245" lat="14.498232">
                <ele>103.960000</ele>
                <time>2014-11-01T06:03:06Z</time>
            </trkpt>
            <trkpt lon="100.943274" lat="14.498159">
                <ele>103.480000</ele>
                <time>2014-11-01T06:03:19Z</time>
            </trkpt>
            <trkpt lon="100.943290" lat="14.498149">
                <ele>103.480000</ele>
                <time>2014-11-01T06:03:38Z</time>
            </trkpt>
            <trkpt lon="100.943327" lat="14.498127">
                <ele>104.440000</ele>
                <time>2014-11-01T06:04:18Z</time>
            </trkpt>
            <trkpt lon="100.943270" lat="14.498106">
                <ele>104.440000</ele>
                <time>2014-11-01T06:05:08Z</time>
            </trkpt>
            <trkpt lon="100.943281" lat="14.498063">
                <ele>104.440000</ele>
                <time>2014-11-01T06:05:45Z</time>
            </trkpt>
            <trkpt lon="100.943272" lat="14.498086">
                <ele>104.440000</ele>
                <time>2014-11-01T06:06:33Z</time>
            </trkpt>
            <trkpt lon="100.943301" lat="14.498079">
                <ele>104.440000</ele>
                <time>2014-11-01T06:07:15Z</time>
            </trkpt>
            <trkpt lon="100.943281" lat="14.498078">
                <ele>103.960000</ele>
                <time>2014-11-01T06:07:49Z</time>
            </trkpt>
            <trkpt lon="100.943331" lat="14.498113">
                <ele>104.440000</ele>
                <time>2014-11-01T06:08:25Z</time>
            </trkpt>
            <trkpt lon="100.943288" lat="14.498122">
                <ele>103.960000</ele>
                <time>2014-11-01T06:08:43Z</time>
            </trkpt>
            <trkpt lon="100.943253" lat="14.498173">
                <ele>104.440000</ele>
                <time>2014-11-01T06:09:08Z</time>
            </trkpt>
            <trkpt lon="100.943266" lat="14.498167">
                <ele>103.960000</ele>
                <time>2014-11-01T06:09:27Z</time>
            </trkpt>
            <trkpt lon="100.943328" lat="14.498046">
                <ele>103.960000</ele>
                <time>2014-11-01T06:09:38Z</time>
            </trkpt>
            <trkpt lon="100.943359" lat="14.497968">
                <ele>102.520000</ele>
                <time>2014-11-01T06:09:51Z</time>
            </trkpt>
            <trkpt lon="100.943378" lat="14.497897">
                <ele>101.080000</ele>
                <time>2014-11-01T06:10:05Z</time>
            </trkpt>
            <trkpt lon="100.943382" lat="14.497823">
                <ele>99.630000</ele>
                <time>2014-11-01T06:10:21Z</time>
            </trkpt>
            <trkpt lon="100.943452" lat="14.497738">
                <ele>99.630000</ele>
                <time>2014-11-01T06:10:36Z</time>
            </trkpt>
            <trkpt lon="100.943488" lat="14.497684">
                <ele>98.190000</ele>
                <time>2014-11-01T06:10:45Z</time>
            </trkpt>
            <trkpt lon="100.943604" lat="14.497509">
                <ele>95.310000</ele>
                <time>2014-11-01T06:10:58Z</time>
            </trkpt>
            <trkpt lon="100.943592" lat="14.497501">
                <ele>92.900000</ele>
                <time>2014-11-01T06:11:09Z</time>
            </trkpt>
            <trkpt lon="100.943648" lat="14.497417">
                <ele>90.500000</ele>
                <time>2014-11-01T06:11:26Z</time>
            </trkpt>
            <trkpt lon="100.943691" lat="14.497331">
                <ele>87.140000</ele>
                <time>2014-11-01T06:11:41Z</time>
            </trkpt>
            <trkpt lon="100.943722" lat="14.497248">
                <ele>84.250000</ele>
                <time>2014-11-01T06:11:59Z</time>
            </trkpt>
            <trkpt lon="100.943787" lat="14.497121">
                <ele>80.890000</ele>
                <time>2014-11-01T06:12:18Z</time>
            </trkpt>
            <trkpt lon="100.943839" lat="14.497020">
                <ele>79.450000</ele>
                <time>2014-11-01T06:12:34Z</time>
            </trkpt>
            <trkpt lon="100.943928" lat="14.496904">
                <ele>76.560000</ele>
                <time>2014-11-01T06:12:48Z</time>
            </trkpt>
            <trkpt lon="100.944018" lat="14.496819">
                <ele>74.160000</ele>
                <time>2014-11-01T06:13:07Z</time>
            </trkpt>
            <trkpt lon="100.944084" lat="14.496760">
                <ele>71.760000</ele>
                <time>2014-11-01T06:13:20Z</time>
            </trkpt>
            <trkpt lon="100.944107" lat="14.496744">
                <ele>71.760000</ele>
                <time>2014-11-01T06:13:24Z</time>
            </trkpt>
            <trkpt lon="100.944181" lat="14.496650">
                <ele>70.310000</ele>
                <time>2014-11-01T06:13:39Z</time>
            </trkpt>
            <trkpt lon="100.944299" lat="14.496536">
                <ele>70.310000</ele>
                <time>2014-11-01T06:13:55Z</time>
            </trkpt>
            <trkpt lon="100.944377" lat="14.496504">
                <ele>69.830000</ele>
                <time>2014-11-01T06:14:02Z</time>
            </trkpt>
            <trkpt lon="100.944450" lat="14.496465">
                <ele>69.830000</ele>
                <time>2014-11-01T06:14:08Z</time>
            </trkpt>
            <trkpt lon="100.944567" lat="14.496370">
                <ele>68.870000</ele>
                <time>2014-11-01T06:14:18Z</time>
            </trkpt>
            <trkpt lon="100.944599" lat="14.496315">
                <ele>68.390000</ele>
                <time>2014-11-01T06:14:22Z</time>
            </trkpt>
            <trkpt lon="100.944666" lat="14.496243">
                <ele>67.910000</ele>
                <time>2014-11-01T06:14:26Z</time>
            </trkpt>
            <trkpt lon="100.944732" lat="14.496225">
                <ele>68.390000</ele>
                <time>2014-11-01T06:14:29Z</time>
            </trkpt>
            <trkpt lon="100.945194" lat="14.495982">
                <ele>65.510000</ele>
                <time>2014-11-01T06:14:45Z</time>
            </trkpt>
            <trkpt lon="100.945468" lat="14.495832">
                <ele>62.140000</ele>
                <time>2014-11-01T06:14:53Z</time>
            </trkpt>
            <trkpt lon="100.945572" lat="14.495548">
                <ele>60.220000</ele>
                <time>2014-11-01T06:15:03Z</time>
            </trkpt>
            <trkpt lon="100.945567" lat="14.495479">
                <ele>59.740000</ele>
                <time>2014-11-01T06:15:05Z</time>
            </trkpt>
            <trkpt lon="100.945616" lat="14.495272">
                <ele>57.820000</ele>
                <time>2014-11-01T06:15:10Z</time>
            </trkpt>
            <trkpt lon="100.945612" lat="14.495083">
                <ele>56.860000</ele>
                <time>2014-11-01T06:15:15Z</time>
            </trkpt>
            <trkpt lon="100.945408" lat="14.494795">
                <ele>58.780000</ele>
                <time>2014-11-01T06:15:29Z</time>
            </trkpt>
            <trkpt lon="100.945254" lat="14.494381">
                <ele>59.740000</ele>
                <time>2014-11-01T06:15:49Z</time>
            </trkpt>
            <trkpt lon="100.945071" lat="14.493972">
                <ele>59.260000</ele>
                <time>2014-11-01T06:16:05Z</time>
            </trkpt>
            <trkpt lon="100.944887" lat="14.493623">
                <ele>59.260000</ele>
                <time>2014-11-01T06:16:21Z</time>
            </trkpt>
            <trkpt lon="100.944740" lat="14.493261">
                <ele>59.260000</ele>
                <time>2014-11-01T06:16:37Z</time>
            </trkpt>
            <trkpt lon="100.944738" lat="14.493022">
                <ele>58.300000</ele>
                <time>2014-11-01T06:16:47Z</time>
            </trkpt>
            <trkpt lon="100.944697" lat="14.492874">
                <ele>58.300000</ele>
                <time>2014-11-01T06:16:53Z</time>
            </trkpt>
            <trkpt lon="100.944636" lat="14.492490">
                <ele>56.370000</ele>
                <time>2014-11-01T06:17:05Z</time>
            </trkpt>
            <trkpt lon="100.944532" lat="14.492164">
                <ele>55.890000</ele>
                <time>2014-11-01T06:17:17Z</time>
            </trkpt>
            <trkpt lon="100.944505" lat="14.492000">
                <ele>55.890000</ele>
                <time>2014-11-01T06:17:23Z</time>
            </trkpt>
            <trkpt lon="100.944654" lat="14.491916">
                <ele>54.450000</ele>
                <time>2014-11-01T06:17:29Z</time>
            </trkpt>
            <trkpt lon="100.944644" lat="14.491709">
                <ele>53.970000</ele>
                <time>2014-11-01T06:17:37Z</time>
            </trkpt>
            <trkpt lon="100.944654" lat="14.491528">
                <ele>53.010000</ele>
                <time>2014-11-01T06:17:43Z</time>
            </trkpt>
            <trkpt lon="100.944602" lat="14.491507">
                <ele>53.010000</ele>
                <time>2014-11-01T06:17:47Z</time>
            </trkpt>
            <trkpt lon="100.944555" lat="14.491499">
                <ele>53.010000</ele>
                <time>2014-11-01T06:17:50Z</time>
            </trkpt>
            <trkpt lon="100.944531" lat="14.491406">
                <ele>53.490000</ele>
                <time>2014-11-01T06:17:55Z</time>
            </trkpt>
            <trkpt lon="100.944505" lat="14.491302">
                <ele>52.530000</ele>
                <time>2014-11-01T06:18:00Z</time>
            </trkpt>
            <trkpt lon="100.944606" lat="14.490923">
                <ele>50.130000</ele>
                <time>2014-11-01T06:18:12Z</time>
            </trkpt>
            <trkpt lon="100.944671" lat="14.490879">
                <ele>50.130000</ele>
                <time>2014-11-01T06:18:16Z</time>
            </trkpt>
            <trkpt lon="100.944720" lat="14.490781">
                <ele>49.650000</ele>
                <time>2014-11-01T06:18:21Z</time>
            </trkpt>
            <trkpt lon="100.944709" lat="14.490616">
                <ele>49.650000</ele>
                <time>2014-11-01T06:18:29Z</time>
            </trkpt>
            <trkpt lon="100.944704" lat="14.490311">
                <ele>49.650000</ele>
                <time>2014-11-01T06:18:41Z</time>
            </trkpt>
            <trkpt lon="100.944636" lat="14.490009">
                <ele>50.130000</ele>
                <time>2014-11-01T06:18:55Z</time>
            </trkpt>
            <trkpt lon="100.944518" lat="14.489899">
                <ele>51.090000</ele>
                <time>2014-11-01T06:19:06Z</time>
            </trkpt>
            <trkpt lon="100.944216" lat="14.489869">
                <ele>52.050000</ele>
                <time>2014-11-01T06:19:21Z</time>
            </trkpt>
            <trkpt lon="100.944087" lat="14.489808">
                <ele>52.530000</ele>
                <time>2014-11-01T06:19:28Z</time>
            </trkpt>
            <trkpt lon="100.944002" lat="14.489815">
                <ele>53.010000</ele>
                <time>2014-11-01T06:19:33Z</time>
            </trkpt>
            <trkpt lon="100.943917" lat="14.489831">
                <ele>53.010000</ele>
                <time>2014-11-01T06:19:38Z</time>
            </trkpt>
            <trkpt lon="100.943680" lat="14.489926">
                <ele>53.970000</ele>
                <time>2014-11-01T06:19:53Z</time>
            </trkpt>
            <trkpt lon="100.943515" lat="14.490008">
                <ele>54.450000</ele>
                <time>2014-11-01T06:20:03Z</time>
            </trkpt>
            <trkpt lon="100.943390" lat="14.490082">
                <ele>56.370000</ele>
                <time>2014-11-01T06:20:13Z</time>
            </trkpt>
            <trkpt lon="100.943136" lat="14.490138">
                <ele>57.820000</ele>
                <time>2014-11-01T06:20:29Z</time>
            </trkpt>
            <trkpt lon="100.943097" lat="14.490145">
                <ele>57.820000</ele>
                <time>2014-11-01T06:20:31Z</time>
            </trkpt>
            <trkpt lon="100.942980" lat="14.490132">
                <ele>58.300000</ele>
                <time>2014-11-01T06:20:37Z</time>
            </trkpt>
            <trkpt lon="100.942928" lat="14.490148">
                <ele>58.300000</ele>
                <time>2014-11-01T06:20:41Z</time>
            </trkpt>
            <trkpt lon="100.942778" lat="14.490223">
                <ele>60.220000</ele>
                <time>2014-11-01T06:20:54Z</time>
            </trkpt>
            <trkpt lon="100.942625" lat="14.490210">
                <ele>61.660000</ele>
                <time>2014-11-01T06:21:06Z</time>
            </trkpt>
            <trkpt lon="100.942613" lat="14.490212">
                <ele>61.660000</ele>
                <time>2014-11-01T06:21:07Z</time>
            </trkpt>
            <trkpt lon="100.942443" lat="14.490182">
                <ele>64.070000</ele>
                <time>2014-11-01T06:21:22Z</time>
            </trkpt>
            <trkpt lon="100.942350" lat="14.490134">
                <ele>64.070000</ele>
                <time>2014-11-01T06:21:34Z</time>
            </trkpt>
            <trkpt lon="100.942211" lat="14.490114">
                <ele>66.470000</ele>
                <time>2014-11-01T06:21:50Z</time>
            </trkpt>
            <trkpt lon="100.942101" lat="14.490105">
                <ele>67.910000</ele>
                <time>2014-11-01T06:22:05Z</time>
            </trkpt>
            <trkpt lon="100.941967" lat="14.490062">
                <ele>70.310000</ele>
                <time>2014-11-01T06:22:23Z</time>
            </trkpt>
            <trkpt lon="100.941902" lat="14.490035">
                <ele>71.270000</ele>
                <time>2014-11-01T06:22:35Z</time>
            </trkpt>
            <trkpt lon="100.941762" lat="14.490031">
                <ele>72.240000</ele>
                <time>2014-11-01T06:22:49Z</time>
            </trkpt>
            <trkpt lon="100.941578" lat="14.490045">
                <ele>73.680000</ele>
                <time>2014-11-01T06:23:05Z</time>
            </trkpt>
            <trkpt lon="100.941462" lat="14.490063">
                <ele>74.160000</ele>
                <time>2014-11-01T06:23:22Z</time>
            </trkpt>
            <trkpt lon="100.941358" lat="14.490059">
                <ele>74.640000</ele>
                <time>2014-11-01T06:23:40Z</time>
            </trkpt>
            <trkpt lon="100.941216" lat="14.490077">
                <ele>76.080000</ele>
                <time>2014-11-01T06:23:57Z</time>
            </trkpt>
            <trkpt lon="100.941111" lat="14.490114">
                <ele>77.520000</ele>
                <time>2014-11-01T06:24:13Z</time>
            </trkpt>
            <trkpt lon="100.940984" lat="14.490121">
                <ele>78.480000</ele>
                <time>2014-11-01T06:24:28Z</time>
            </trkpt>
            <trkpt lon="100.940853" lat="14.490162">
                <ele>79.450000</ele>
                <time>2014-11-01T06:24:43Z</time>
            </trkpt>
            <trkpt lon="100.940744" lat="14.490226">
                <ele>80.890000</ele>
                <time>2014-11-01T06:24:59Z</time>
            </trkpt>
            <trkpt lon="100.940671" lat="14.490292">
                <ele>82.330000</ele>
                <time>2014-11-01T06:25:14Z</time>
            </trkpt>
            <trkpt lon="100.940573" lat="14.490312">
                <ele>82.330000</ele>
                <time>2014-11-01T06:25:28Z</time>
            </trkpt>
            <trkpt lon="100.940384" lat="14.490367">
                <ele>85.210000</ele>
                <time>2014-11-01T06:25:46Z</time>
            </trkpt>
            <trkpt lon="100.940307" lat="14.490406">
                <ele>87.140000</ele>
                <time>2014-11-01T06:26:02Z</time>
            </trkpt>
            <trkpt lon="100.940206" lat="14.490444">
                <ele>88.100000</ele>
                <time>2014-11-01T06:26:17Z</time>
            </trkpt>
            <trkpt lon="100.940043" lat="14.490437">
                <ele>87.620000</ele>
                <time>2014-11-01T06:26:33Z</time>
            </trkpt>
            <trkpt lon="100.939997" lat="14.490351">
                <ele>88.580000</ele>
                <time>2014-11-01T06:27:10Z</time>
            </trkpt>
            <trkpt lon="100.939978" lat="14.490380">
                <ele>88.100000</ele>
                <time>2014-11-01T06:27:47Z</time>
            </trkpt>
            <trkpt lon="100.940003" lat="14.490422">
                <ele>89.540000</ele>
                <time>2014-11-01T06:28:30Z</time>
            </trkpt>
            <trkpt lon="100.939995" lat="14.490421">
                <ele>90.500000</ele>
                <time>2014-11-01T06:28:54Z</time>
            </trkpt>
            <trkpt lon="100.939989" lat="14.490428">
                <ele>90.980000</ele>
                <time>2014-11-01T06:29:20Z</time>
            </trkpt>
            <trkpt lon="100.939999" lat="14.490546">
                <ele>91.940000</ele>
                <time>2014-11-01T06:29:35Z</time>
            </trkpt>
            <trkpt lon="100.939979" lat="14.490621">
                <ele>93.390000</ele>
                <time>2014-11-01T06:29:48Z</time>
            </trkpt>
            <trkpt lon="100.939920" lat="14.490679">
                <ele>94.350000</ele>
                <time>2014-11-01T06:30:02Z</time>
            </trkpt>
            <trkpt lon="100.939796" lat="14.490701">
                <ele>94.830000</ele>
                <time>2014-11-01T06:30:16Z</time>
            </trkpt>
            <trkpt lon="100.939713" lat="14.490684">
                <ele>94.830000</ele>
                <time>2014-11-01T06:30:30Z</time>
            </trkpt>
            <trkpt lon="100.939647" lat="14.490663">
                <ele>95.310000</ele>
                <time>2014-11-01T06:30:35Z</time>
            </trkpt>
            <trkpt lon="100.939558" lat="14.490619">
                <ele>95.310000</ele>
                <time>2014-11-01T06:30:42Z</time>
            </trkpt>
            <trkpt lon="100.939518" lat="14.490606">
                <ele>94.350000</ele>
                <time>2014-11-01T06:30:46Z</time>
            </trkpt>
            <trkpt lon="100.939413" lat="14.490603">
                <ele>93.390000</ele>
                <time>2014-11-01T06:30:53Z</time>
            </trkpt>
            <trkpt lon="100.939193" lat="14.490673">
                <ele>90.980000</ele>
                <time>2014-11-01T06:31:06Z</time>
            </trkpt>
            <trkpt lon="100.938876" lat="14.490727">
                <ele>89.540000</ele>
                <time>2014-11-01T06:31:17Z</time>
            </trkpt>
            <trkpt lon="100.938783" lat="14.490761">
                <ele>88.580000</ele>
                <time>2014-11-01T06:31:20Z</time>
            </trkpt>
            <trkpt lon="100.938518" lat="14.490907">
                <ele>87.140000</ele>
                <time>2014-11-01T06:31:31Z</time>
            </trkpt>
            <trkpt lon="100.938276" lat="14.491003">
                <ele>85.690000</ele>
                <time>2014-11-01T06:31:40Z</time>
            </trkpt>
            <trkpt lon="100.938143" lat="14.491051">
                <ele>85.690000</ele>
                <time>2014-11-01T06:31:49Z</time>
            </trkpt>
            <trkpt lon="100.938023" lat="14.491171">
                <ele>83.770000</ele>
                <time>2014-11-01T06:31:58Z</time>
            </trkpt>
            <trkpt lon="100.937822" lat="14.491222">
                <ele>82.330000</ele>
                <time>2014-11-01T06:32:08Z</time>
            </trkpt>
            <trkpt lon="100.937655" lat="14.491280">
                <ele>81.370000</ele>
                <time>2014-11-01T06:32:18Z</time>
            </trkpt>
            <trkpt lon="100.937591" lat="14.491309">
                <ele>82.810000</ele>
                <time>2014-11-01T06:32:38Z</time>
            </trkpt>
            <trkpt lon="100.937567" lat="14.491283">
                <ele>82.330000</ele>
                <time>2014-11-01T06:33:00Z</time>
            </trkpt>
            <trkpt lon="100.937513" lat="14.491255">
                <ele>83.290000</ele>
                <time>2014-11-01T06:33:20Z</time>
            </trkpt>
            <trkpt lon="100.937527" lat="14.491258">
                <ele>82.330000</ele>
                <time>2014-11-01T06:33:54Z</time>
            </trkpt>
            <trkpt lon="100.937511" lat="14.491279">
                <ele>82.330000</ele>
                <time>2014-11-01T06:34:40Z</time>
            </trkpt>
            <trkpt lon="100.937479" lat="14.491286">
                <ele>82.810000</ele>
                <time>2014-11-01T06:35:13Z</time>
            </trkpt>
            <trkpt lon="100.937511" lat="14.491283">
                <ele>82.810000</ele>
                <time>2014-11-01T06:35:50Z</time>
            </trkpt>
            <trkpt lon="100.937395" lat="14.491265">
                <ele>83.290000</ele>
                <time>2014-11-01T06:36:30Z</time>
            </trkpt>
            <trkpt lon="100.937450" lat="14.491263">
                <ele>83.290000</ele>
                <time>2014-11-01T06:37:09Z</time>
            </trkpt>
            <trkpt lon="100.937498" lat="14.491273">
                <ele>83.770000</ele>
                <time>2014-11-01T06:37:47Z</time>
            </trkpt>
            <trkpt lon="100.937493" lat="14.491295">
                <ele>83.770000</ele>
                <time>2014-11-01T06:38:25Z</time>
            </trkpt>
            <trkpt lon="100.937492" lat="14.491259">
                <ele>84.250000</ele>
                <time>2014-11-01T06:38:56Z</time>
            </trkpt>
            <trkpt lon="100.937491" lat="14.491257">
                <ele>84.250000</ele>
                <time>2014-11-01T06:39:37Z</time>
            </trkpt>
            <trkpt lon="100.937531" lat="14.491291">
                <ele>85.690000</ele>
                <time>2014-11-01T06:40:04Z</time>
            </trkpt>
            <trkpt lon="100.937575" lat="14.491282">
                <ele>86.180000</ele>
                <time>2014-11-01T06:40:27Z</time>
            </trkpt>
            <trkpt lon="100.937560" lat="14.491310">
                <ele>85.690000</ele>
                <time>2014-11-01T06:40:50Z</time>
            </trkpt>
            <trkpt lon="100.937564" lat="14.491269">
                <ele>86.180000</ele>
                <time>2014-11-01T06:41:13Z</time>
            </trkpt>
            <trkpt lon="100.937573" lat="14.491321">
                <ele>86.180000</ele>
                <time>2014-11-01T06:41:28Z</time>
            </trkpt>
            <trkpt lon="100.937560" lat="14.491342">
                <ele>85.210000</ele>
                <time>2014-11-01T06:41:40Z</time>
            </trkpt>
            <trkpt lon="100.937495" lat="14.491428">
                <ele>85.690000</ele>
                <time>2014-11-01T06:41:50Z</time>
            </trkpt>
            <trkpt lon="100.937425" lat="14.491542">
                <ele>84.250000</ele>
                <time>2014-11-01T06:42:01Z</time>
            </trkpt>
            <trkpt lon="100.937282" lat="14.491644">
                <ele>84.250000</ele>
                <time>2014-11-01T06:42:08Z</time>
            </trkpt>
            <trkpt lon="100.937107" lat="14.491743">
                <ele>82.330000</ele>
                <time>2014-11-01T06:42:18Z</time>
            </trkpt>
            <trkpt lon="100.936885" lat="14.491872">
                <ele>82.330000</ele>
                <time>2014-11-01T06:42:32Z</time>
            </trkpt>
            <trkpt lon="100.936866" lat="14.491872">
                <ele>81.370000</ele>
                <time>2014-11-01T06:42:33Z</time>
            </trkpt>
            <trkpt lon="100.936780" lat="14.491897">
                <ele>81.370000</ele>
                <time>2014-11-01T06:42:44Z</time>
            </trkpt>
            <trkpt lon="100.936766" lat="14.491907">
                <ele>80.890000</ele>
                <time>2014-11-01T06:42:46Z</time>
            </trkpt>
            <trkpt lon="100.936554" lat="14.491956">
                <ele>79.450000</ele>
                <time>2014-11-01T06:42:56Z</time>
            </trkpt>
            <trkpt lon="100.936455" lat="14.491969">
                <ele>78.480000</ele>
                <time>2014-11-01T06:43:01Z</time>
            </trkpt>
            <trkpt lon="100.936221" lat="14.492028">
                <ele>78.480000</ele>
                <time>2014-11-01T06:43:12Z</time>
            </trkpt>
            <trkpt lon="100.935988" lat="14.492051">
                <ele>78.480000</ele>
                <time>2014-11-01T06:43:24Z</time>
            </trkpt>
            <trkpt lon="100.935724" lat="14.492000">
                <ele>78.000000</ele>
                <time>2014-11-01T06:43:37Z</time>
            </trkpt>
            <trkpt lon="100.935662" lat="14.491980">
                <ele>78.000000</ele>
                <time>2014-11-01T06:43:45Z</time>
            </trkpt>
            <trkpt lon="100.935547" lat="14.491970">
                <ele>76.560000</ele>
                <time>2014-11-01T06:43:52Z</time>
            </trkpt>
            <trkpt lon="100.935323" lat="14.491984">
                <ele>75.120000</ele>
                <time>2014-11-01T06:44:05Z</time>
            </trkpt>
            <trkpt lon="100.935042" lat="14.491971">
                <ele>74.160000</ele>
                <time>2014-11-01T06:44:17Z</time>
            </trkpt>
            <trkpt lon="100.934870" lat="14.491855">
                <ele>73.680000</ele>
                <time>2014-11-01T06:44:27Z</time>
            </trkpt>
            <trkpt lon="100.934837" lat="14.491703">
                <ele>73.680000</ele>
                <time>2014-11-01T06:44:33Z</time>
            </trkpt>
            <trkpt lon="100.934673" lat="14.491448">
                <ele>71.760000</ele>
                <time>2014-11-01T06:44:43Z</time>
            </trkpt>
            <trkpt lon="100.934571" lat="14.491105">
                <ele>69.830000</ele>
                <time>2014-11-01T06:44:54Z</time>
            </trkpt>
            <trkpt lon="100.934566" lat="14.490909">
                <ele>68.870000</ele>
                <time>2014-11-01T06:45:02Z</time>
            </trkpt>
            <trkpt lon="100.934538" lat="14.490789">
                <ele>67.430000</ele>
                <time>2014-11-01T06:45:06Z</time>
            </trkpt>
            <trkpt lon="100.934472" lat="14.490385">
                <ele>64.550000</ele>
                <time>2014-11-01T06:45:18Z</time>
            </trkpt>
            <trkpt lon="100.934297" lat="14.490118">
                <ele>64.070000</ele>
                <time>2014-11-01T06:45:29Z</time>
            </trkpt>
            <trkpt lon="100.934173" lat="14.490009">
                <ele>64.070000</ele>
                <time>2014-11-01T06:45:34Z</time>
            </trkpt>
            <trkpt lon="100.934047" lat="14.489939">
                <ele>63.100000</ele>
                <time>2014-11-01T06:45:39Z</time>
            </trkpt>
            <trkpt lon="100.933733" lat="14.489694">
                <ele>62.140000</ele>
                <time>2014-11-01T06:45:52Z</time>
            </trkpt>
            <trkpt lon="100.933473" lat="14.489704">
                <ele>62.140000</ele>
                <time>2014-11-01T06:46:02Z</time>
            </trkpt>
            <trkpt lon="100.933083" lat="14.489806">
                <ele>61.180000</ele>
                <time>2014-11-01T06:46:14Z</time>
            </trkpt>
            <trkpt lon="100.932670" lat="14.489976">
                <ele>61.180000</ele>
                <time>2014-11-01T06:46:26Z</time>
            </trkpt>
            <trkpt lon="100.932259" lat="14.490152">
                <ele>60.220000</ele>
                <time>2014-11-01T06:46:38Z</time>
            </trkpt>
            <trkpt lon="100.932040" lat="14.490320">
                <ele>60.220000</ele>
                <time>2014-11-01T06:46:46Z</time>
            </trkpt>
            <trkpt lon="100.931847" lat="14.490293">
                <ele>59.260000</ele>
                <time>2014-11-01T06:46:55Z</time>
            </trkpt>
            <trkpt lon="100.931606" lat="14.490308">
                <ele>58.300000</ele>
                <time>2014-11-01T06:47:02Z</time>
            </trkpt>
            <trkpt lon="100.931215" lat="14.490266">
                <ele>58.300000</ele>
                <time>2014-11-01T06:47:13Z</time>
            </trkpt>
            <trkpt lon="100.930862" lat="14.490253">
                <ele>57.340000</ele>
                <time>2014-11-01T06:47:24Z</time>
            </trkpt>
            <trkpt lon="100.930784" lat="14.490236">
                <ele>56.370000</ele>
                <time>2014-11-01T06:47:28Z</time>
            </trkpt>
            <trkpt lon="100.930513" lat="14.490221">
                <ele>56.370000</ele>
                <time>2014-11-01T06:47:40Z</time>
            </trkpt>
            <trkpt lon="100.930429" lat="14.490215">
                <ele>56.370000</ele>
                <time>2014-11-01T06:47:43Z</time>
            </trkpt>
            <trkpt lon="100.930098" lat="14.490195">
                <ele>55.410000</ele>
                <time>2014-11-01T06:47:54Z</time>
            </trkpt>
            <trkpt lon="100.929850" lat="14.490217">
                <ele>53.970000</ele>
                <time>2014-11-01T06:48:05Z</time>
            </trkpt>
            <trkpt lon="100.929533" lat="14.490268">
                <ele>53.970000</ele>
                <time>2014-11-01T06:48:17Z</time>
            </trkpt>
            <trkpt lon="100.929483" lat="14.490289">
                <ele>53.010000</ele>
                <time>2014-11-01T06:48:19Z</time>
            </trkpt>
            <trkpt lon="100.929455" lat="14.490289">
                <ele>53.010000</ele>
                <time>2014-11-01T06:48:20Z</time>
            </trkpt>
            <trkpt lon="100.929426" lat="14.490289">
                <ele>52.530000</ele>
                <time>2014-11-01T06:48:21Z</time>
            </trkpt>
            <trkpt lon="100.929091" lat="14.490300">
                <ele>52.050000</ele>
                <time>2014-11-01T06:48:36Z</time>
            </trkpt>
            <trkpt lon="100.929031" lat="14.490305">
                <ele>52.050000</ele>
                <time>2014-11-01T06:48:47Z</time>
            </trkpt>
            <trkpt lon="100.928667" lat="14.490369">
                <ele>51.090000</ele>
                <time>2014-11-01T06:48:59Z</time>
            </trkpt>
            <trkpt lon="100.928331" lat="14.490272">
                <ele>50.130000</ele>
                <time>2014-11-01T06:49:10Z</time>
            </trkpt>
            <trkpt lon="100.928212" lat="14.490199">
                <ele>50.610000</ele>
                <time>2014-11-01T06:49:14Z</time>
            </trkpt>
            <trkpt lon="100.928107" lat="14.490035">
                <ele>50.130000</ele>
                <time>2014-11-01T06:49:19Z</time>
            </trkpt>
            <trkpt lon="100.928062" lat="14.489598">
                <ele>49.160000</ele>
                <time>2014-11-01T06:49:33Z</time>
            </trkpt>
            <trkpt lon="100.927930" lat="14.489376">
                <ele>49.160000</ele>
                <time>2014-11-01T06:49:43Z</time>
            </trkpt>
            <trkpt lon="100.927883" lat="14.489341">
                <ele>48.680000</ele>
                <time>2014-11-01T06:49:53Z</time>
            </trkpt>
            <trkpt lon="100.927809" lat="14.489257">
                <ele>48.680000</ele>
                <time>2014-11-01T06:50:03Z</time>
            </trkpt>
            <trkpt lon="100.927598" lat="14.489110">
                <ele>48.680000</ele>
                <time>2014-11-01T06:50:13Z</time>
            </trkpt>
            <trkpt lon="100.927413" lat="14.489011">
                <ele>48.680000</ele>
                <time>2014-11-01T06:50:19Z</time>
            </trkpt>
            <trkpt lon="100.926934" lat="14.489030">
                <ele>48.200000</ele>
                <time>2014-11-01T06:50:32Z</time>
            </trkpt>
            <trkpt lon="100.926807" lat="14.489016">
                <ele>47.720000</ele>
                <time>2014-11-01T06:50:35Z</time>
            </trkpt>
            <trkpt lon="100.926623" lat="14.489032">
                <ele>47.720000</ele>
                <time>2014-11-01T06:50:39Z</time>
            </trkpt>
            <trkpt lon="100.926485" lat="14.489036">
                <ele>47.240000</ele>
                <time>2014-11-01T06:50:42Z</time>
            </trkpt>
            <trkpt lon="100.926349" lat="14.489026">
                <ele>47.720000</ele>
                <time>2014-11-01T06:50:45Z</time>
            </trkpt>
            <trkpt lon="100.926225" lat="14.489040">
                <ele>46.760000</ele>
                <time>2014-11-01T06:50:48Z</time>
            </trkpt>
            <trkpt lon="100.926015" lat="14.489042">
                <ele>46.760000</ele>
                <time>2014-11-01T06:50:53Z</time>
            </trkpt>
            <trkpt lon="100.925761" lat="14.489003">
                <ele>45.800000</ele>
                <time>2014-11-01T06:51:03Z</time>
            </trkpt>
            <trkpt lon="100.925472" lat="14.489038">
                <ele>45.320000</ele>
                <time>2014-11-01T06:51:14Z</time>
            </trkpt>
            <trkpt lon="100.925295" lat="14.488877">
                <ele>45.800000</ele>
                <time>2014-11-01T06:51:23Z</time>
            </trkpt>
            <trkpt lon="100.925284" lat="14.488585">
                <ele>48.200000</ele>
                <time>2014-11-01T06:51:37Z</time>
            </trkpt>
            <trkpt lon="100.925319" lat="14.488227">
                <ele>47.720000</ele>
                <time>2014-11-01T06:51:50Z</time>
            </trkpt>
            <trkpt lon="100.925372" lat="14.487737">
                <ele>47.720000</ele>
                <time>2014-11-01T06:52:06Z</time>
            </trkpt>
            <trkpt lon="100.925551" lat="14.487295">
                <ele>47.720000</ele>
                <time>2014-11-01T06:52:21Z</time>
            </trkpt>
            <trkpt lon="100.925799" lat="14.486750">
                <ele>48.200000</ele>
                <time>2014-11-01T06:52:39Z</time>
            </trkpt>
            <trkpt lon="100.925888" lat="14.486245">
                <ele>47.720000</ele>
                <time>2014-11-01T06:52:53Z</time>
            </trkpt>
            <trkpt lon="100.925660" lat="14.485883">
                <ele>47.240000</ele>
                <time>2014-11-01T06:53:06Z</time>
            </trkpt>
            <trkpt lon="100.925602" lat="14.485776">
                <ele>46.760000</ele>
                <time>2014-11-01T06:53:10Z</time>
            </trkpt>
            <trkpt lon="100.925608" lat="14.485749">
                <ele>47.240000</ele>
                <time>2014-11-01T06:53:11Z</time>
            </trkpt>
            <trkpt lon="100.925624" lat="14.485722">
                <ele>46.760000</ele>
                <time>2014-11-01T06:53:12Z</time>
            </trkpt>
            <trkpt lon="100.925647" lat="14.485701">
                <ele>46.760000</ele>
                <time>2014-11-01T06:53:13Z</time>
            </trkpt>
            <trkpt lon="100.925675" lat="14.485680">
                <ele>46.760000</ele>
                <time>2014-11-01T06:53:14Z</time>
            </trkpt>
            <trkpt lon="100.925706" lat="14.485659">
                <ele>46.280000</ele>
                <time>2014-11-01T06:53:15Z</time>
            </trkpt>
            <trkpt lon="100.925953" lat="14.485478">
                <ele>45.320000</ele>
                <time>2014-11-01T06:53:26Z</time>
            </trkpt>
            <trkpt lon="100.926060" lat="14.485411">
                <ele>45.320000</ele>
                <time>2014-11-01T06:53:37Z</time>
            </trkpt>
            <trkpt lon="100.926096" lat="14.485380">
                <ele>45.320000</ele>
                <time>2014-11-01T06:53:47Z</time>
            </trkpt>
            <trkpt lon="100.926181" lat="14.485323">
                <ele>44.360000</ele>
                <time>2014-11-01T06:54:00Z</time>
            </trkpt>
            <trkpt lon="100.926233" lat="14.485289">
                <ele>44.840000</ele>
                <time>2014-11-01T06:54:06Z</time>
            </trkpt>
            <trkpt lon="100.926331" lat="14.485249">
                <ele>44.360000</ele>
                <time>2014-11-01T06:54:19Z</time>
            </trkpt>
            <trkpt lon="100.926415" lat="14.485157">
                <ele>44.840000</ele>
                <time>2014-11-01T06:54:26Z</time>
            </trkpt>
            <trkpt lon="100.926434" lat="14.485145">
                <ele>44.840000</ele>
                <time>2014-11-01T06:54:27Z</time>
            </trkpt>
            <trkpt lon="100.926454" lat="14.485135">
                <ele>44.840000</ele>
                <time>2014-11-01T06:54:28Z</time>
            </trkpt>
            <trkpt lon="100.926472" lat="14.485128">
                <ele>44.840000</ele>
                <time>2014-11-01T06:54:29Z</time>
            </trkpt>
            <trkpt lon="100.926491" lat="14.485121">
                <ele>44.360000</ele>
                <time>2014-11-01T06:54:30Z</time>
            </trkpt>
            <trkpt lon="100.926856" lat="14.484850">
                <ele>44.840000</ele>
                <time>2014-11-01T06:54:49Z</time>
            </trkpt>
            <trkpt lon="100.927178" lat="14.484610">
                <ele>45.320000</ele>
                <time>2014-11-01T06:55:04Z</time>
            </trkpt>
            <trkpt lon="100.927471" lat="14.484455">
                <ele>45.320000</ele>
                <time>2014-11-01T06:55:16Z</time>
            </trkpt>
            <trkpt lon="100.927794" lat="14.484224">
                <ele>45.800000</ele>
                <time>2014-11-01T06:55:31Z</time>
            </trkpt>
            <trkpt lon="100.928216" lat="14.483967">
                <ele>45.800000</ele>
                <time>2014-11-01T06:55:49Z</time>
            </trkpt>
            <trkpt lon="100.928538" lat="14.483732">
                <ele>45.800000</ele>
                <time>2014-11-01T06:56:04Z</time>
            </trkpt>
            <trkpt lon="100.928772" lat="14.483541">
                <ele>45.800000</ele>
                <time>2014-11-01T06:56:15Z</time>
            </trkpt>
            <trkpt lon="100.929115" lat="14.483329">
                <ele>46.280000</ele>
                <time>2014-11-01T06:56:29Z</time>
            </trkpt>
            <trkpt lon="100.929456" lat="14.483062">
                <ele>46.760000</ele>
                <time>2014-11-01T06:56:44Z</time>
            </trkpt>
            <trkpt lon="100.929771" lat="14.482858">
                <ele>46.760000</ele>
                <time>2014-11-01T06:56:57Z</time>
            </trkpt>
            <trkpt lon="100.930055" lat="14.482605">
                <ele>47.240000</ele>
                <time>2014-11-01T06:57:10Z</time>
            </trkpt>
            <trkpt lon="100.930334" lat="14.482465">
                <ele>46.760000</ele>
                <time>2014-11-01T06:57:20Z</time>
            </trkpt>
            <trkpt lon="100.930697" lat="14.482205">
                <ele>47.240000</ele>
                <time>2014-11-01T06:57:35Z</time>
            </trkpt>
            <trkpt lon="100.931031" lat="14.481847">
                <ele>47.240000</ele>
                <time>2014-11-01T06:57:51Z</time>
            </trkpt>
            <trkpt lon="100.931029" lat="14.481579">
                <ele>46.280000</ele>
                <time>2014-11-01T06:58:02Z</time>
            </trkpt>
            <trkpt lon="100.931011" lat="14.481562">
                <ele>46.760000</ele>
                <time>2014-11-01T06:58:04Z</time>
            </trkpt>
            <trkpt lon="100.931043" lat="14.481456">
                <ele>46.280000</ele>
                <time>2014-11-01T06:58:16Z</time>
            </trkpt>
            <trkpt lon="100.931018" lat="14.481407">
                <ele>46.280000</ele>
                <time>2014-11-01T06:58:28Z</time>
            </trkpt>
            <trkpt lon="100.931022" lat="14.481386">
                <ele>46.280000</ele>
                <time>2014-11-01T06:58:31Z</time>
            </trkpt>
            <trkpt lon="100.931105" lat="14.481246">
                <ele>46.760000</ele>
                <time>2014-11-01T06:58:47Z</time>
            </trkpt>
            <trkpt lon="100.931160" lat="14.481157">
                <ele>46.760000</ele>
                <time>2014-11-01T06:58:58Z</time>
            </trkpt>
            <trkpt lon="100.931138" lat="14.481041">
                <ele>46.280000</ele>
                <time>2014-11-01T06:59:11Z</time>
            </trkpt>
            <trkpt lon="100.931114" lat="14.480980">
                <ele>46.280000</ele>
                <time>2014-11-01T06:59:26Z</time>
            </trkpt>
            <trkpt lon="100.931146" lat="14.480995">
                <ele>46.760000</ele>
                <time>2014-11-01T06:59:49Z</time>
            </trkpt>
            <trkpt lon="100.931155" lat="14.480996">
                <ele>46.760000</ele>
                <time>2014-11-01T07:00:13Z</time>
            </trkpt>
            <trkpt lon="100.931135" lat="14.480982">
                <ele>46.280000</ele>
                <time>2014-11-01T07:00:18Z</time>
            </trkpt>
            <trkpt lon="100.931114" lat="14.480952">
                <ele>46.280000</ele>
                <time>2014-11-01T07:00:20Z</time>
            </trkpt>
            <trkpt lon="100.931176" lat="14.480825">
                <ele>46.760000</ele>
                <time>2014-11-01T07:00:28Z</time>
            </trkpt>
            <trkpt lon="100.931462" lat="14.480870">
                <ele>47.720000</ele>
                <time>2014-11-01T07:00:43Z</time>
            </trkpt>
            <trkpt lon="100.931592" lat="14.480721">
                <ele>48.200000</ele>
                <time>2014-11-01T07:00:52Z</time>
            </trkpt>
            <trkpt lon="100.931718" lat="14.480526">
                <ele>47.720000</ele>
                <time>2014-11-01T07:01:00Z</time>
            </trkpt>
            <trkpt lon="100.931745" lat="14.480507">
                <ele>48.200000</ele>
                <time>2014-11-01T07:01:01Z</time>
            </trkpt>
            <trkpt lon="100.931777" lat="14.480497">
                <ele>47.720000</ele>
                <time>2014-11-01T07:01:02Z</time>
            </trkpt>
            <trkpt lon="100.931810" lat="14.480492">
                <ele>48.200000</ele>
                <time>2014-11-01T07:01:03Z</time>
            </trkpt>
            <trkpt lon="100.931845" lat="14.480479">
                <ele>48.200000</ele>
                <time>2014-11-01T07:01:04Z</time>
            </trkpt>
            <trkpt lon="100.931868" lat="14.480453">
                <ele>47.720000</ele>
                <time>2014-11-01T07:01:05Z</time>
            </trkpt>
            <trkpt lon="100.931883" lat="14.480419">
                <ele>48.200000</ele>
                <time>2014-11-01T07:01:06Z</time>
            </trkpt>
            <trkpt lon="100.931901" lat="14.480390">
                <ele>47.720000</ele>
                <time>2014-11-01T07:01:07Z</time>
            </trkpt>
            <trkpt lon="100.931926" lat="14.480368">
                <ele>48.200000</ele>
                <time>2014-11-01T07:01:08Z</time>
            </trkpt>
            <trkpt lon="100.931954" lat="14.480353">
                <ele>48.200000</ele>
                <time>2014-11-01T07:01:09Z</time>
            </trkpt>
            <trkpt lon="100.931993" lat="14.480344">
                <ele>48.200000</ele>
                <time>2014-11-01T07:01:10Z</time>
            </trkpt>
            <trkpt lon="100.932033" lat="14.480343">
                <ele>48.200000</ele>
                <time>2014-11-01T07:01:11Z</time>
            </trkpt>
            <trkpt lon="100.932070" lat="14.480342">
                <ele>48.200000</ele>
                <time>2014-11-01T07:01:12Z</time>
            </trkpt>
            <trkpt lon="100.932106" lat="14.480335">
                <ele>48.200000</ele>
                <time>2014-11-01T07:01:13Z</time>
            </trkpt>
            <trkpt lon="100.932146" lat="14.480326">
                <ele>48.200000</ele>
                <time>2014-11-01T07:01:14Z</time>
            </trkpt>
            <trkpt lon="100.932187" lat="14.480320">
                <ele>47.720000</ele>
                <time>2014-11-01T07:01:15Z</time>
            </trkpt>
            <trkpt lon="100.932227" lat="14.480319">
                <ele>48.200000</ele>
                <time>2014-11-01T07:01:16Z</time>
            </trkpt>
            <trkpt lon="100.932262" lat="14.480326">
                <ele>47.720000</ele>
                <time>2014-11-01T07:01:17Z</time>
            </trkpt>
            <trkpt lon="100.932302" lat="14.480331">
                <ele>47.720000</ele>
                <time>2014-11-01T07:01:18Z</time>
            </trkpt>
            <trkpt lon="100.932336" lat="14.480334">
                <ele>48.200000</ele>
                <time>2014-11-01T07:01:19Z</time>
            </trkpt>
            <trkpt lon="100.932372" lat="14.480329">
                <ele>48.200000</ele>
                <time>2014-11-01T07:01:20Z</time>
            </trkpt>
            <trkpt lon="100.932403" lat="14.480314">
                <ele>48.200000</ele>
                <time>2014-11-01T07:01:21Z</time>
            </trkpt>
            <trkpt lon="100.932432" lat="14.480298">
                <ele>47.720000</ele>
                <time>2014-11-01T07:01:22Z</time>
            </trkpt>
            <trkpt lon="100.932458" lat="14.480279">
                <ele>48.200000</ele>
                <time>2014-11-01T07:01:23Z</time>
            </trkpt>
            <trkpt lon="100.932814" lat="14.480095">
                <ele>48.680000</ele>
                <time>2014-11-01T07:01:37Z</time>
            </trkpt>
            <trkpt lon="100.933069" lat="14.480003">
                <ele>50.130000</ele>
                <time>2014-11-01T07:01:49Z</time>
            </trkpt>
            <trkpt lon="100.933468" lat="14.479838">
                <ele>50.130000</ele>
                <time>2014-11-01T07:02:05Z</time>
            </trkpt>
            <trkpt lon="100.933731" lat="14.479667">
                <ele>50.610000</ele>
                <time>2014-11-01T07:02:17Z</time>
            </trkpt>
            <trkpt lon="100.933992" lat="14.479695">
                <ele>51.570000</ele>
                <time>2014-11-01T07:02:29Z</time>
            </trkpt>
            <trkpt lon="100.934461" lat="14.479530">
                <ele>52.530000</ele>
                <time>2014-11-01T07:02:45Z</time>
            </trkpt>
            <trkpt lon="100.934828" lat="14.479398">
                <ele>52.530000</ele>
                <time>2014-11-01T07:02:56Z</time>
            </trkpt>
            <trkpt lon="100.935214" lat="14.479231">
                <ele>52.050000</ele>
                <time>2014-11-01T07:03:08Z</time>
            </trkpt>
            <trkpt lon="100.935619" lat="14.479020">
                <ele>52.050000</ele>
                <time>2014-11-01T07:03:21Z</time>
            </trkpt>
            <trkpt lon="100.935984" lat="14.478917">
                <ele>53.010000</ele>
                <time>2014-11-01T07:03:32Z</time>
            </trkpt>
            <trkpt lon="100.936111" lat="14.478664">
                <ele>52.530000</ele>
                <time>2014-11-01T07:03:41Z</time>
            </trkpt>
            <trkpt lon="100.936098" lat="14.478624">
                <ele>52.530000</ele>
                <time>2014-11-01T07:03:42Z</time>
            </trkpt>
            <trkpt lon="100.936053" lat="14.478497">
                <ele>52.050000</ele>
                <time>2014-11-01T07:03:45Z</time>
            </trkpt>
            <trkpt lon="100.935943" lat="14.478145">
                <ele>50.130000</ele>
                <time>2014-11-01T07:03:53Z</time>
            </trkpt>
            <trkpt lon="100.935936" lat="14.478098">
                <ele>49.650000</ele>
                <time>2014-11-01T07:03:54Z</time>
            </trkpt>
            <trkpt lon="100.935934" lat="14.478052">
                <ele>49.650000</ele>
                <time>2014-11-01T07:03:55Z</time>
            </trkpt>
            <trkpt lon="100.935939" lat="14.478012">
                <ele>49.650000</ele>
                <time>2014-11-01T07:03:56Z</time>
            </trkpt>
            <trkpt lon="100.935949" lat="14.477978">
                <ele>49.650000</ele>
                <time>2014-11-01T07:03:57Z</time>
            </trkpt>
            <trkpt lon="100.935964" lat="14.477951">
                <ele>49.160000</ele>
                <time>2014-11-01T07:03:58Z</time>
            </trkpt>
            <trkpt lon="100.935990" lat="14.477929">
                <ele>49.160000</ele>
                <time>2014-11-01T07:03:59Z</time>
            </trkpt>
            <trkpt lon="100.936004" lat="14.477922">
                <ele>49.160000</ele>
                <time>2014-11-01T07:04:00Z</time>
            </trkpt>
            <trkpt lon="100.936391" lat="14.477870">
                <ele>50.130000</ele>
                <time>2014-11-01T07:04:10Z</time>
            </trkpt>
            <trkpt lon="100.936875" lat="14.477929">
                <ele>50.130000</ele>
                <time>2014-11-01T07:04:23Z</time>
            </trkpt>
            <trkpt lon="100.937289" lat="14.478050">
                <ele>51.090000</ele>
                <time>2014-11-01T07:04:35Z</time>
            </trkpt>
            <trkpt lon="100.937622" lat="14.478148">
                <ele>51.090000</ele>
                <time>2014-11-01T07:04:45Z</time>
            </trkpt>
            <trkpt lon="100.938090" lat="14.478296">
                <ele>51.570000</ele>
                <time>2014-11-01T07:04:59Z</time>
            </trkpt>
            <trkpt lon="100.938592" lat="14.478475">
                <ele>52.050000</ele>
                <time>2014-11-01T07:05:15Z</time>
            </trkpt>
            <trkpt lon="100.938995" lat="14.478579">
                <ele>53.010000</ele>
                <time>2014-11-01T07:05:28Z</time>
            </trkpt>
            <trkpt lon="100.939216" lat="14.478559">
                <ele>52.050000</ele>
                <time>2014-11-01T07:05:34Z</time>
            </trkpt>
            <trkpt lon="100.939255" lat="14.478542">
                <ele>52.050000</ele>
                <time>2014-11-01T07:05:35Z</time>
            </trkpt>
            <trkpt lon="100.939283" lat="14.478516">
                <ele>52.050000</ele>
                <time>2014-11-01T07:05:36Z</time>
            </trkpt>
            <trkpt lon="100.939306" lat="14.478484">
                <ele>52.050000</ele>
                <time>2014-11-01T07:05:37Z</time>
            </trkpt>
            <trkpt lon="100.939326" lat="14.478447">
                <ele>52.050000</ele>
                <time>2014-11-01T07:05:38Z</time>
            </trkpt>
            <trkpt lon="100.939344" lat="14.478408">
                <ele>51.570000</ele>
                <time>2014-11-01T07:05:39Z</time>
            </trkpt>
            <trkpt lon="100.939716" lat="14.477607">
                <ele>50.130000</ele>
                <time>2014-11-01T07:05:56Z</time>
            </trkpt>
            <trkpt lon="100.939992" lat="14.476921">
                <ele>50.130000</ele>
                <time>2014-11-01T07:06:11Z</time>
            </trkpt>
            <trkpt lon="100.940017" lat="14.476884">
                <ele>50.130000</ele>
                <time>2014-11-01T07:06:12Z</time>
            </trkpt>
            <trkpt lon="100.940050" lat="14.476855">
                <ele>50.130000</ele>
                <time>2014-11-01T07:06:13Z</time>
            </trkpt>
            <trkpt lon="100.940092" lat="14.476834">
                <ele>50.610000</ele>
                <time>2014-11-01T07:06:14Z</time>
            </trkpt>
            <trkpt lon="100.940182" lat="14.476822">
                <ele>50.130000</ele>
                <time>2014-11-01T07:06:16Z</time>
            </trkpt>
            <trkpt lon="100.941076" lat="14.476869">
                <ele>50.130000</ele>
                <time>2014-11-01T07:06:35Z</time>
            </trkpt>
            <trkpt lon="100.942133" lat="14.476907">
                <ele>50.130000</ele>
                <time>2014-11-01T07:06:57Z</time>
            </trkpt>
            <trkpt lon="100.942592" lat="14.476927">
                <ele>50.610000</ele>
                <time>2014-11-01T07:07:07Z</time>
            </trkpt>
            <trkpt lon="100.942771" lat="14.476784">
                <ele>50.130000</ele>
                <time>2014-11-01T07:07:13Z</time>
            </trkpt>
            <trkpt lon="100.942773" lat="14.476449">
                <ele>49.650000</ele>
                <time>2014-11-01T07:07:21Z</time>
            </trkpt>
            <trkpt lon="100.942891" lat="14.476310">
                <ele>50.610000</ele>
                <time>2014-11-01T07:07:26Z</time>
            </trkpt>
            <trkpt lon="100.943596" lat="14.476291">
                <ele>49.650000</ele>
                <time>2014-11-01T07:07:43Z</time>
            </trkpt>
            <trkpt lon="100.944421" lat="14.476271">
                <ele>49.650000</ele>
                <time>2014-11-01T07:08:02Z</time>
            </trkpt>
            <trkpt lon="100.945092" lat="14.476244">
                <ele>49.160000</ele>
                <time>2014-11-01T07:08:18Z</time>
            </trkpt>
            <trkpt lon="100.946082" lat="14.476244">
                <ele>49.160000</ele>
                <time>2014-11-01T07:08:39Z</time>
            </trkpt>
            <trkpt lon="100.947101" lat="14.476222">
                <ele>48.680000</ele>
                <time>2014-11-01T07:09:00Z</time>
            </trkpt>
            <trkpt lon="100.947965" lat="14.476209">
                <ele>48.200000</ele>
                <time>2014-11-01T07:09:18Z</time>
            </trkpt>
            <trkpt lon="100.948970" lat="14.476184">
                <ele>48.200000</ele>
                <time>2014-11-01T07:09:39Z</time>
            </trkpt>
            <trkpt lon="100.949526" lat="14.476143">
                <ele>47.720000</ele>
                <time>2014-11-01T07:09:51Z</time>
            </trkpt>
            <trkpt lon="100.949572" lat="14.476085">
                <ele>48.200000</ele>
                <time>2014-11-01T07:09:53Z</time>
            </trkpt>
            <trkpt lon="100.949580" lat="14.476045">
                <ele>47.720000</ele>
                <time>2014-11-01T07:09:54Z</time>
            </trkpt>
            <trkpt lon="100.949583" lat="14.476004">
                <ele>48.200000</ele>
                <time>2014-11-01T07:09:55Z</time>
            </trkpt>
            <trkpt lon="100.949586" lat="14.475965">
                <ele>48.200000</ele>
                <time>2014-11-01T07:09:56Z</time>
            </trkpt>
            <trkpt lon="100.949561" lat="14.475270">
                <ele>48.200000</ele>
                <time>2014-11-01T07:10:14Z</time>
            </trkpt>
            <trkpt lon="100.949519" lat="14.474744">
                <ele>47.240000</ele>
                <time>2014-11-01T07:10:30Z</time>
            </trkpt>
            <trkpt lon="100.949523" lat="14.474707">
                <ele>47.240000</ele>
                <time>2014-11-01T07:10:33Z</time>
            </trkpt>
            <trkpt lon="100.949520" lat="14.474660">
                <ele>47.240000</ele>
                <time>2014-11-01T07:10:37Z</time>
            </trkpt>
            <trkpt lon="100.949596" lat="14.474656">
                <ele>45.800000</ele>
                <time>2014-11-01T07:10:48Z</time>
            </trkpt>
            <trkpt lon="100.949598" lat="14.474658">
                <ele>45.800000</ele>
                <time>2014-11-01T07:10:51Z</time>
            </trkpt>
            <trkpt lon="100.949622" lat="14.474668">
                <ele>45.800000</ele>
                <time>2014-11-01T07:10:54Z</time>
            </trkpt>
            <trkpt lon="100.949701" lat="14.474746">
                <ele>46.280000</ele>
                <time>2014-11-01T07:11:07Z</time>
            </trkpt>
            <trkpt lon="100.949699" lat="14.474743">
                <ele>46.280000</ele>
                <time>2014-11-01T07:11:08Z</time>
            </trkpt>
            <trkpt lon="100.949804" lat="14.474727">
                <ele>46.280000</ele>
                <time>2014-11-01T07:11:14Z</time>
            </trkpt>
            <trkpt lon="100.950197" lat="14.474632">
                <ele>45.800000</ele>
                <time>2014-11-01T07:11:28Z</time>
            </trkpt>
            <trkpt lon="100.950569" lat="14.474542">
                <ele>46.280000</ele>
                <time>2014-11-01T07:11:39Z</time>
            </trkpt>
            <trkpt lon="100.950684" lat="14.474313">
                <ele>46.280000</ele>
                <time>2014-11-01T07:11:47Z</time>
            </trkpt>
            <trkpt lon="100.950650" lat="14.473822">
                <ele>46.760000</ele>
                <time>2014-11-01T07:12:01Z</time>
            </trkpt>
            <trkpt lon="100.950665" lat="14.473621">
                <ele>46.280000</ele>
                <time>2014-11-01T07:12:06Z</time>
            </trkpt>
            <trkpt lon="100.950656" lat="14.473536">
                <ele>46.280000</ele>
                <time>2014-11-01T07:12:08Z</time>
            </trkpt>
            <trkpt lon="100.950612" lat="14.472812">
                <ele>46.280000</ele>
                <time>2014-11-01T07:12:24Z</time>
            </trkpt>
            <trkpt lon="100.950559" lat="14.472573">
                <ele>46.760000</ele>
                <time>2014-11-01T07:12:30Z</time>
            </trkpt>
            <trkpt lon="100.950501" lat="14.471786">
                <ele>45.800000</ele>
                <time>2014-11-01T07:12:47Z</time>
            </trkpt>
            <trkpt lon="100.950258" lat="14.471053">
                <ele>45.800000</ele>
                <time>2014-11-01T07:13:06Z</time>
            </trkpt>
            <trkpt lon="100.950054" lat="14.470446">
                <ele>45.320000</ele>
                <time>2014-11-01T07:13:22Z</time>
            </trkpt>
            <trkpt lon="100.950163" lat="14.470342">
                <ele>45.320000</ele>
                <time>2014-11-01T07:13:27Z</time>
            </trkpt>
            <trkpt lon="100.950459" lat="14.470186">
                <ele>44.360000</ele>
                <time>2014-11-01T07:13:36Z</time>
            </trkpt>
            <trkpt lon="100.950419" lat="14.469832">
                <ele>44.840000</ele>
                <time>2014-11-01T07:13:46Z</time>
            </trkpt>
            <trkpt lon="100.950467" lat="14.469329">
                <ele>46.280000</ele>
                <time>2014-11-01T07:14:02Z</time>
            </trkpt>
            <trkpt lon="100.950304" lat="14.468904">
                <ele>46.760000</ele>
                <time>2014-11-01T07:14:18Z</time>
            </trkpt>
            <trkpt lon="100.950185" lat="14.468681">
                <ele>47.240000</ele>
                <time>2014-11-01T07:14:29Z</time>
            </trkpt>
            <trkpt lon="100.950162" lat="14.468680">
                <ele>46.760000</ele>
                <time>2014-11-01T07:14:30Z</time>
            </trkpt>
            <trkpt lon="100.950137" lat="14.468685">
                <ele>47.240000</ele>
                <time>2014-11-01T07:14:31Z</time>
            </trkpt>
            <trkpt lon="100.949631" lat="14.468761">
                <ele>47.720000</ele>
                <time>2014-11-01T07:14:49Z</time>
            </trkpt>
            <trkpt lon="100.949042" lat="14.468796">
                <ele>48.200000</ele>
                <time>2014-11-01T07:15:07Z</time>
            </trkpt>
            <trkpt lon="100.948400" lat="14.468817">
                <ele>49.160000</ele>
                <time>2014-11-01T07:15:26Z</time>
            </trkpt>
            <trkpt lon="100.948095" lat="14.468834">
                <ele>49.160000</ele>
                <time>2014-11-01T07:15:38Z</time>
            </trkpt>
            <trkpt lon="100.947574" lat="14.468839">
                <ele>49.650000</ele>
                <time>2014-11-01T07:15:54Z</time>
            </trkpt>
            <trkpt lon="100.946978" lat="14.468808">
                <ele>49.650000</ele>
                <time>2014-11-01T07:16:11Z</time>
            </trkpt>
            <trkpt lon="100.946248" lat="14.468718">
                <ele>49.160000</ele>
                <time>2014-11-01T07:16:27Z</time>
            </trkpt>
            <trkpt lon="100.945319" lat="14.468732">
                <ele>47.720000</ele>
                <time>2014-11-01T07:16:46Z</time>
            </trkpt>
            <trkpt lon="100.945229" lat="14.468730">
                <ele>47.720000</ele>
                <time>2014-11-01T07:16:48Z</time>
            </trkpt>
            <trkpt lon="100.945185" lat="14.468734">
                <ele>48.200000</ele>
                <time>2014-11-01T07:16:49Z</time>
            </trkpt>
            <trkpt lon="100.945099" lat="14.468742">
                <ele>47.720000</ele>
                <time>2014-11-01T07:16:51Z</time>
            </trkpt>
            <trkpt lon="100.944497" lat="14.468742">
                <ele>47.720000</ele>
                <time>2014-11-01T07:17:06Z</time>
            </trkpt>
            <trkpt lon="100.943999" lat="14.468772">
                <ele>48.200000</ele>
                <time>2014-11-01T07:17:21Z</time>
            </trkpt>
            <trkpt lon="100.943411" lat="14.468775">
                <ele>48.200000</ele>
                <time>2014-11-01T07:17:36Z</time>
            </trkpt>
            <trkpt lon="100.942926" lat="14.468790">
                <ele>48.200000</ele>
                <time>2014-11-01T07:17:47Z</time>
            </trkpt>
            <trkpt lon="100.942799" lat="14.468795">
                <ele>47.720000</ele>
                <time>2014-11-01T07:17:50Z</time>
            </trkpt>
            <trkpt lon="100.941919" lat="14.468797">
                <ele>47.720000</ele>
                <time>2014-11-01T07:18:09Z</time>
            </trkpt>
            <trkpt lon="100.941097" lat="14.468800">
                <ele>47.720000</ele>
                <time>2014-11-01T07:18:27Z</time>
            </trkpt>
            <trkpt lon="100.940757" lat="14.468791">
                <ele>47.720000</ele>
                <time>2014-11-01T07:18:34Z</time>
            </trkpt>
            <trkpt lon="100.939620" lat="14.468801">
                <ele>47.240000</ele>
                <time>2014-11-01T07:18:57Z</time>
            </trkpt>
            <trkpt lon="100.938525" lat="14.468804">
                <ele>46.280000</ele>
                <time>2014-11-01T07:19:19Z</time>
            </trkpt>
            <trkpt lon="100.937666" lat="14.468810">
                <ele>45.800000</ele>
                <time>2014-11-01T07:19:38Z</time>
            </trkpt>
            <trkpt lon="100.937537" lat="14.468758">
                <ele>45.320000</ele>
                <time>2014-11-01T07:19:44Z</time>
            </trkpt>
            <trkpt lon="100.937533" lat="14.468737">
                <ele>45.320000</ele>
                <time>2014-11-01T07:19:45Z</time>
            </trkpt>
            <trkpt lon="100.937540" lat="14.468719">
                <ele>45.320000</ele>
                <time>2014-11-01T07:19:46Z</time>
            </trkpt>
            <trkpt lon="100.937555" lat="14.468706">
                <ele>45.320000</ele>
                <time>2014-11-01T07:19:47Z</time>
            </trkpt>
            <trkpt lon="100.937575" lat="14.468695">
                <ele>45.800000</ele>
                <time>2014-11-01T07:19:48Z</time>
            </trkpt>
            <trkpt lon="100.937810" lat="14.468406">
                <ele>45.800000</ele>
                <time>2014-11-01T07:19:59Z</time>
            </trkpt>
            <trkpt lon="100.938331" lat="14.467751">
                <ele>46.280000</ele>
                <time>2014-11-01T07:20:20Z</time>
            </trkpt>
            <trkpt lon="100.938946" lat="14.466950">
                <ele>47.720000</ele>
                <time>2014-11-01T07:20:42Z</time>
            </trkpt>
            <trkpt lon="100.939617" lat="14.466116">
                <ele>48.680000</ele>
                <time>2014-11-01T07:21:02Z</time>
            </trkpt>
            <trkpt lon="100.939946" lat="14.465711">
                <ele>48.680000</ele>
                <time>2014-11-01T07:21:17Z</time>
            </trkpt>
            <trkpt lon="100.939952" lat="14.465716">
                <ele>48.200000</ele>
                <time>2014-11-01T07:21:43Z</time>
            </trkpt>
            <trkpt lon="100.940059" lat="14.465559">
                <ele>49.160000</ele>
                <time>2014-11-01T07:21:51Z</time>
            </trkpt>
            <trkpt lon="100.940553" lat="14.464874">
                <ele>48.680000</ele>
                <time>2014-11-01T07:22:09Z</time>
            </trkpt>
            <trkpt lon="100.941192" lat="14.464025">
                <ele>49.650000</ele>
                <time>2014-11-01T07:22:31Z</time>
            </trkpt>
            <trkpt lon="100.941663" lat="14.463390">
                <ele>50.130000</ele>
                <time>2014-11-01T07:22:47Z</time>
            </trkpt>
            <trkpt lon="100.942358" lat="14.462463">
                <ele>50.610000</ele>
                <time>2014-11-01T07:23:09Z</time>
            </trkpt>
            <trkpt lon="100.942928" lat="14.461745">
                <ele>50.610000</ele>
                <time>2014-11-01T07:23:26Z</time>
            </trkpt>
            <trkpt lon="100.943682" lat="14.460767">
                <ele>50.610000</ele>
                <time>2014-11-01T07:23:49Z</time>
            </trkpt>
            <trkpt lon="100.944242" lat="14.460029">
                <ele>52.050000</ele>
                <time>2014-11-01T07:24:07Z</time>
            </trkpt>
            <trkpt lon="100.944884" lat="14.459185">
                <ele>53.010000</ele>
                <time>2014-11-01T07:24:28Z</time>
            </trkpt>
            <trkpt lon="100.945497" lat="14.458405">
                <ele>53.490000</ele>
                <time>2014-11-01T07:24:48Z</time>
            </trkpt>
            <trkpt lon="100.946166" lat="14.457580">
                <ele>53.970000</ele>
                <time>2014-11-01T07:25:08Z</time>
            </trkpt>
            <trkpt lon="100.946395" lat="14.457445">
                <ele>53.970000</ele>
                <time>2014-11-01T07:25:13Z</time>
            </trkpt>
            <trkpt lon="100.946543" lat="14.457400">
                <ele>53.970000</ele>
                <time>2014-11-01T07:25:16Z</time>
            </trkpt>
            <trkpt lon="100.946594" lat="14.457393">
                <ele>53.970000</ele>
                <time>2014-11-01T07:25:17Z</time>
            </trkpt>
            <trkpt lon="100.946645" lat="14.457389">
                <ele>53.970000</ele>
                <time>2014-11-01T07:25:18Z</time>
            </trkpt>
            <trkpt lon="100.946745" lat="14.457390">
                <ele>53.970000</ele>
                <time>2014-11-01T07:25:20Z</time>
            </trkpt>
            <trkpt lon="100.946946" lat="14.457438">
                <ele>53.970000</ele>
                <time>2014-11-01T07:25:24Z</time>
            </trkpt>
            <trkpt lon="100.947543" lat="14.457805">
                <ele>54.450000</ele>
                <time>2014-11-01T07:25:37Z</time>
            </trkpt>
            <trkpt lon="100.947581" lat="14.457825">
                <ele>53.970000</ele>
                <time>2014-11-01T07:25:38Z</time>
            </trkpt>
            <trkpt lon="100.947623" lat="14.457831">
                <ele>53.970000</ele>
                <time>2014-11-01T07:25:39Z</time>
            </trkpt>
            <trkpt lon="100.947674" lat="14.457816">
                <ele>53.970000</ele>
                <time>2014-11-01T07:25:40Z</time>
            </trkpt>
            <trkpt lon="100.947719" lat="14.457794">
                <ele>53.490000</ele>
                <time>2014-11-01T07:25:41Z</time>
            </trkpt>
            <trkpt lon="100.947761" lat="14.457770">
                <ele>54.450000</ele>
                <time>2014-11-01T07:25:42Z</time>
            </trkpt>
            <trkpt lon="100.948103" lat="14.457521">
                <ele>53.970000</ele>
                <time>2014-11-01T07:25:55Z</time>
            </trkpt>
            <trkpt lon="100.948111" lat="14.457532">
                <ele>53.970000</ele>
                <time>2014-11-01T07:26:07Z</time>
            </trkpt>
            <trkpt lon="100.948118" lat="14.457519">
                <ele>53.490000</ele>
                <time>2014-11-01T07:26:20Z</time>
            </trkpt>
            <trkpt lon="100.948113" lat="14.457513">
                <ele>53.490000</ele>
                <time>2014-11-01T07:26:31Z</time>
            </trkpt>
            <trkpt lon="100.948108" lat="14.457480">
                <ele>53.010000</ele>
                <time>2014-11-01T07:26:49Z</time>
            </trkpt>
            <trkpt lon="100.948095" lat="14.457523">
                <ele>53.010000</ele>
                <time>2014-11-01T07:27:29Z</time>
            </trkpt>
            <trkpt lon="100.948098" lat="14.457528">
                <ele>53.010000</ele>
                <time>2014-11-01T07:28:08Z</time>
            </trkpt>
            <trkpt lon="100.948100" lat="14.457514">
                <ele>53.010000</ele>
                <time>2014-11-01T07:28:43Z</time>
            </trkpt>
            <trkpt lon="100.948136" lat="14.457510">
                <ele>53.010000</ele>
                <time>2014-11-01T07:29:24Z</time>
            </trkpt>
            <trkpt lon="100.948124" lat="14.457511">
                <ele>52.530000</ele>
                <time>2014-11-01T07:30:12Z</time>
            </trkpt>
            <trkpt lon="100.948104" lat="14.457549">
                <ele>52.050000</ele>
                <time>2014-11-01T07:30:54Z</time>
            </trkpt>
            <trkpt lon="100.948118" lat="14.457501">
                <ele>52.050000</ele>
                <time>2014-11-01T07:31:37Z</time>
            </trkpt>
            <trkpt lon="100.948129" lat="14.457505">
                <ele>51.570000</ele>
                <time>2014-11-01T07:31:56Z</time>
            </trkpt>
            <trkpt lon="100.948162" lat="14.457493">
                <ele>53.010000</ele>
                <time>2014-11-01T07:32:03Z</time>
            </trkpt>
            <trkpt lon="100.948188" lat="14.457462">
                <ele>52.530000</ele>
                <time>2014-11-01T07:32:16Z</time>
            </trkpt>
            <trkpt lon="100.948221" lat="14.457404">
                <ele>52.050000</ele>
                <time>2014-11-01T07:32:37Z</time>
            </trkpt>
            <trkpt lon="100.948252" lat="14.457360">
                <ele>51.570000</ele>
                <time>2014-11-01T07:33:15Z</time>
            </trkpt>
            <trkpt lon="100.948222" lat="14.457385">
                <ele>51.570000</ele>
                <time>2014-11-01T07:33:54Z</time>
            </trkpt>
            <trkpt lon="100.948164" lat="14.457383">
                <ele>51.090000</ele>
                <time>2014-11-01T07:34:15Z</time>
            </trkpt>
            <trkpt lon="100.948207" lat="14.457407">
                <ele>51.570000</ele>
                <time>2014-11-01T07:34:43Z</time>
            </trkpt>
            <trkpt lon="100.948188" lat="14.457499">
                <ele>51.570000</ele>
                <time>2014-11-01T07:35:02Z</time>
            </trkpt>
            <trkpt lon="100.948137" lat="14.457469">
                <ele>51.090000</ele>
                <time>2014-11-01T07:35:20Z</time>
            </trkpt>
            <trkpt lon="100.948109" lat="14.457473">
                <ele>51.570000</ele>
                <time>2014-11-01T07:35:42Z</time>
            </trkpt>
            <trkpt lon="100.948117" lat="14.457472">
                <ele>51.090000</ele>
                <time>2014-11-01T07:36:00Z</time>
            </trkpt>
            <trkpt lon="100.948111" lat="14.457484">
                <ele>51.090000</ele>
                <time>2014-11-01T07:36:17Z</time>
            </trkpt>
            <trkpt lon="100.948118" lat="14.457506">
                <ele>50.130000</ele>
                <time>2014-11-01T07:36:40Z</time>
            </trkpt>
            <trkpt lon="100.948138" lat="14.457520">
                <ele>50.130000</ele>
                <time>2014-11-01T07:36:49Z</time>
            </trkpt>
            <trkpt lon="100.948125" lat="14.457516">
                <ele>50.130000</ele>
                <time>2014-11-01T07:37:10Z</time>
            </trkpt>
            <trkpt lon="100.948125" lat="14.457527">
                <ele>49.650000</ele>
                <time>2014-11-01T07:37:31Z</time>
            </trkpt>
            <trkpt lon="100.948133" lat="14.457525">
                <ele>49.650000</ele>
                <time>2014-11-01T07:37:55Z</time>
            </trkpt>
            <trkpt lon="100.948137" lat="14.457510">
                <ele>49.650000</ele>
                <time>2014-11-01T07:38:02Z</time>
            </trkpt>
            <trkpt lon="100.948146" lat="14.457504">
                <ele>49.650000</ele>
                <time>2014-11-01T07:38:03Z</time>
            </trkpt>
            <trkpt lon="100.948158" lat="14.457500">
                <ele>49.650000</ele>
                <time>2014-11-01T07:38:04Z</time>
            </trkpt>
            <trkpt lon="100.948167" lat="14.457500">
                <ele>49.650000</ele>
                <time>2014-11-01T07:38:05Z</time>
            </trkpt>
            <trkpt lon="100.948175" lat="14.457516">
                <ele>49.650000</ele>
                <time>2014-11-01T07:38:19Z</time>
            </trkpt>
            <trkpt lon="100.948188" lat="14.457518">
                <ele>49.650000</ele>
                <time>2014-11-01T07:38:34Z</time>
            </trkpt>
            <trkpt lon="100.948251" lat="14.457556">
                <ele>49.650000</ele>
                <time>2014-11-01T07:38:39Z</time>
            </trkpt>
            <trkpt lon="100.948278" lat="14.457550">
                <ele>50.130000</ele>
                <time>2014-11-01T07:38:40Z</time>
            </trkpt>
            <trkpt lon="100.948308" lat="14.457540">
                <ele>50.130000</ele>
                <time>2014-11-01T07:38:41Z</time>
            </trkpt>
            <trkpt lon="100.948335" lat="14.457528">
                <ele>50.130000</ele>
                <time>2014-11-01T07:38:42Z</time>
            </trkpt>
            <trkpt lon="100.948363" lat="14.457517">
                <ele>50.130000</ele>
                <time>2014-11-01T07:38:43Z</time>
            </trkpt>
            <trkpt lon="100.948747" lat="14.457327">
                <ele>50.130000</ele>
                <time>2014-11-01T07:38:56Z</time>
            </trkpt>
            <trkpt lon="100.949289" lat="14.457098">
                <ele>50.130000</ele>
                <time>2014-11-01T07:39:11Z</time>
            </trkpt>
            <trkpt lon="100.949798" lat="14.456901">
                <ele>50.130000</ele>
                <time>2014-11-01T07:39:25Z</time>
            </trkpt>
            <trkpt lon="100.950231" lat="14.456706">
                <ele>50.610000</ele>
                <time>2014-11-01T07:39:38Z</time>
            </trkpt>
            <trkpt lon="100.950243" lat="14.456677">
                <ele>50.610000</ele>
                <time>2014-11-01T07:39:39Z</time>
            </trkpt>
            <trkpt lon="100.950246" lat="14.456647">
                <ele>50.610000</ele>
                <time>2014-11-01T07:39:40Z</time>
            </trkpt>
            <trkpt lon="100.950245" lat="14.456614">
                <ele>50.610000</ele>
                <time>2014-11-01T07:39:41Z</time>
            </trkpt>
            <trkpt lon="100.950237" lat="14.456581">
                <ele>51.090000</ele>
                <time>2014-11-01T07:39:42Z</time>
            </trkpt>
            <trkpt lon="100.950225" lat="14.456550">
                <ele>51.090000</ele>
                <time>2014-11-01T07:39:43Z</time>
            </trkpt>
            <trkpt lon="100.950213" lat="14.456518">
                <ele>51.570000</ele>
                <time>2014-11-01T07:39:44Z</time>
            </trkpt>
            <trkpt lon="100.950202" lat="14.456484">
                <ele>51.570000</ele>
                <time>2014-11-01T07:39:45Z</time>
            </trkpt>
            <trkpt lon="100.949986" lat="14.455954">
                <ele>53.010000</ele>
                <time>2014-11-01T07:40:01Z</time>
            </trkpt>
            <trkpt lon="100.949971" lat="14.455905">
                <ele>53.010000</ele>
                <time>2014-11-01T07:40:03Z</time>
            </trkpt>
            <trkpt lon="100.949985" lat="14.455880">
                <ele>53.490000</ele>
                <time>2014-11-01T07:40:04Z</time>
            </trkpt>
            <trkpt lon="100.950008" lat="14.455860">
                <ele>53.010000</ele>
                <time>2014-11-01T07:40:05Z</time>
            </trkpt>
            <trkpt lon="100.950035" lat="14.455846">
                <ele>53.010000</ele>
                <time>2014-11-01T07:40:06Z</time>
            </trkpt>
            <trkpt lon="100.950065" lat="14.455831">
                <ele>53.010000</ele>
                <time>2014-11-01T07:40:07Z</time>
            </trkpt>
            <trkpt lon="100.950522" lat="14.455548">
                <ele>53.010000</ele>
                <time>2014-11-01T07:40:20Z</time>
            </trkpt>
            <trkpt lon="100.951329" lat="14.455030">
                <ele>52.530000</ele>
                <time>2014-11-01T07:40:38Z</time>
            </trkpt>
            <trkpt lon="100.951838" lat="14.454652">
                <ele>52.050000</ele>
                <time>2014-11-01T07:40:49Z</time>
            </trkpt>
            <trkpt lon="100.951908" lat="14.454575">
                <ele>52.050000</ele>
                <time>2014-11-01T07:40:51Z</time>
            </trkpt>
            <trkpt lon="100.952290" lat="14.453905">
                <ele>52.530000</ele>
                <time>2014-11-01T07:41:08Z</time>
            </trkpt>
            <trkpt lon="100.952709" lat="14.453111">
                <ele>53.490000</ele>
                <time>2014-11-01T07:41:29Z</time>
            </trkpt>
            <trkpt lon="100.952983" lat="14.452576">
                <ele>54.450000</ele>
                <time>2014-11-01T07:41:44Z</time>
            </trkpt>
            <trkpt lon="100.953388" lat="14.451825">
                <ele>55.890000</ele>
                <time>2014-11-01T07:42:04Z</time>
            </trkpt>
            <trkpt lon="100.953661" lat="14.451291">
                <ele>57.340000</ele>
                <time>2014-11-01T07:42:20Z</time>
            </trkpt>
            <trkpt lon="100.953917" lat="14.450779">
                <ele>58.300000</ele>
                <time>2014-11-01T07:42:36Z</time>
            </trkpt>
            <trkpt lon="100.954205" lat="14.450199">
                <ele>58.300000</ele>
                <time>2014-11-01T07:42:51Z</time>
            </trkpt>
            <trkpt lon="100.954632" lat="14.449391">
                <ele>57.820000</ele>
                <time>2014-11-01T07:43:09Z</time>
            </trkpt>
            <trkpt lon="100.955111" lat="14.448486">
                <ele>57.340000</ele>
                <time>2014-11-01T07:43:28Z</time>
            </trkpt>
            <trkpt lon="100.955459" lat="14.447802">
                <ele>57.820000</ele>
                <time>2014-11-01T07:43:44Z</time>
            </trkpt>
            <trkpt lon="100.955815" lat="14.447109">
                <ele>58.300000</ele>
                <time>2014-11-01T07:44:02Z</time>
            </trkpt>
            <trkpt lon="100.955982" lat="14.446720">
                <ele>59.260000</ele>
                <time>2014-11-01T07:44:14Z</time>
            </trkpt>
            <trkpt lon="100.956309" lat="14.446090">
                <ele>62.140000</ele>
                <time>2014-11-01T07:44:32Z</time>
            </trkpt>
            <trkpt lon="100.956601" lat="14.445573">
                <ele>64.070000</ele>
                <time>2014-11-01T07:44:49Z</time>
            </trkpt>
            <trkpt lon="100.957021" lat="14.445121">
                <ele>64.070000</ele>
                <time>2014-11-01T07:45:07Z</time>
            </trkpt>
            <trkpt lon="100.957312" lat="14.444738">
                <ele>65.030000</ele>
                <time>2014-11-01T07:45:20Z</time>
            </trkpt>
            <trkpt lon="100.957572" lat="14.444229">
                <ele>65.030000</ele>
                <time>2014-11-01T07:45:33Z</time>
            </trkpt>
            <trkpt lon="100.957880" lat="14.443481">
                <ele>64.070000</ele>
                <time>2014-11-01T07:45:49Z</time>
            </trkpt>
            <trkpt lon="100.958323" lat="14.442664">
                <ele>63.100000</ele>
                <time>2014-11-01T07:46:05Z</time>
            </trkpt>
            <trkpt lon="100.958737" lat="14.442094">
                <ele>63.580000</ele>
                <time>2014-11-01T07:46:19Z</time>
            </trkpt>
            <trkpt lon="100.959319" lat="14.441390">
                <ele>64.070000</ele>
                <time>2014-11-01T07:46:38Z</time>
            </trkpt>
            <trkpt lon="100.959603" lat="14.441030">
                <ele>64.070000</ele>
                <time>2014-11-01T07:46:48Z</time>
            </trkpt>
            <trkpt lon="100.959630" lat="14.440991">
                <ele>64.070000</ele>
                <time>2014-11-01T07:46:49Z</time>
            </trkpt>
            <trkpt lon="100.960161" lat="14.440303">
                <ele>64.070000</ele>
                <time>2014-11-01T07:47:07Z</time>
            </trkpt>
            <trkpt lon="100.960556" lat="14.439785">
                <ele>65.030000</ele>
                <time>2014-11-01T07:47:20Z</time>
            </trkpt>
            <trkpt lon="100.961006" lat="14.439218">
                <ele>65.510000</ele>
                <time>2014-11-01T07:47:34Z</time>
            </trkpt>
            <trkpt lon="100.961033" lat="14.439181">
                <ele>65.030000</ele>
                <time>2014-11-01T07:47:35Z</time>
            </trkpt>
            <trkpt lon="100.961571" lat="14.438481">
                <ele>65.990000</ele>
                <time>2014-11-01T07:47:53Z</time>
            </trkpt>
            <trkpt lon="100.961999" lat="14.437907">
                <ele>65.510000</ele>
                <time>2014-11-01T07:48:08Z</time>
            </trkpt>
            <trkpt lon="100.962486" lat="14.437386">
                <ele>66.470000</ele>
                <time>2014-11-01T07:48:24Z</time>
            </trkpt>
            <trkpt lon="100.962729" lat="14.437282">
                <ele>66.470000</ele>
                <time>2014-11-01T07:48:30Z</time>
            </trkpt>
            <trkpt lon="100.962976" lat="14.437306">
                <ele>65.510000</ele>
                <time>2014-11-01T07:48:35Z</time>
            </trkpt>
            <trkpt lon="100.963254" lat="14.437368">
                <ele>65.990000</ele>
                <time>2014-11-01T07:48:47Z</time>
            </trkpt>
            <trkpt lon="100.963479" lat="14.437312">
                <ele>67.910000</ele>
                <time>2014-11-01T07:49:05Z</time>
            </trkpt>
            <trkpt lon="100.963686" lat="14.437297">
                <ele>69.830000</ele>
                <time>2014-11-01T07:49:20Z</time>
            </trkpt>
            <trkpt lon="100.963928" lat="14.437382">
                <ele>72.240000</ele>
                <time>2014-11-01T07:49:35Z</time>
            </trkpt>
            <trkpt lon="100.964156" lat="14.437520">
                <ele>74.160000</ele>
                <time>2014-11-01T07:49:52Z</time>
            </trkpt>
            <trkpt lon="100.964275" lat="14.437591">
                <ele>77.040000</ele>
                <time>2014-11-01T07:50:08Z</time>
            </trkpt>
            <trkpt lon="100.964337" lat="14.437720">
                <ele>78.480000</ele>
                <time>2014-11-01T07:50:22Z</time>
            </trkpt>
            <trkpt lon="100.964442" lat="14.437816">
                <ele>80.890000</ele>
                <time>2014-11-01T07:50:38Z</time>
            </trkpt>
            <trkpt lon="100.964473" lat="14.437936">
                <ele>82.810000</ele>
                <time>2014-11-01T07:50:52Z</time>
            </trkpt>
            <trkpt lon="100.964518" lat="14.438034">
                <ele>82.810000</ele>
                <time>2014-11-01T07:51:04Z</time>
            </trkpt>
            <trkpt lon="100.964570" lat="14.438111">
                <ele>83.770000</ele>
                <time>2014-11-01T07:51:10Z</time>
            </trkpt>
            <trkpt lon="100.964899" lat="14.438312">
                <ele>82.330000</ele>
                <time>2014-11-01T07:51:24Z</time>
            </trkpt>
            <trkpt lon="100.964922" lat="14.438314">
                <ele>82.330000</ele>
                <time>2014-11-01T07:51:25Z</time>
            </trkpt>
            <trkpt lon="100.964991" lat="14.438373">
                <ele>81.370000</ele>
                <time>2014-11-01T07:51:38Z</time>
            </trkpt>
            <trkpt lon="100.965052" lat="14.438422">
                <ele>81.850000</ele>
                <time>2014-11-01T07:51:50Z</time>
            </trkpt>
            <trkpt lon="100.965109" lat="14.438461">
                <ele>80.890000</ele>
                <time>2014-11-01T07:51:57Z</time>
            </trkpt>
            <trkpt lon="100.965088" lat="14.438641">
                <ele>83.290000</ele>
                <time>2014-11-01T07:52:10Z</time>
            </trkpt>
            <trkpt lon="100.964976" lat="14.438837">
                <ele>83.770000</ele>
                <time>2014-11-01T07:52:23Z</time>
            </trkpt>
            <trkpt lon="100.964964" lat="14.438862">
                <ele>84.250000</ele>
                <time>2014-11-01T07:52:25Z</time>
            </trkpt>
            <trkpt lon="100.965007" lat="14.438972">
                <ele>86.660000</ele>
                <time>2014-11-01T07:52:40Z</time>
            </trkpt>
            <trkpt lon="100.965070" lat="14.439002">
                <ele>89.060000</ele>
                <time>2014-11-01T07:52:55Z</time>
            </trkpt>
            <trkpt lon="100.965180" lat="14.438959">
                <ele>91.940000</ele>
                <time>2014-11-01T07:53:11Z</time>
            </trkpt>
            <trkpt lon="100.965257" lat="14.438911">
                <ele>92.420000</ele>
                <time>2014-11-01T07:53:22Z</time>
            </trkpt>
            <trkpt lon="100.965342" lat="14.438854">
                <ele>93.870000</ele>
                <time>2014-11-01T07:53:36Z</time>
            </trkpt>
            <trkpt lon="100.965417" lat="14.438808">
                <ele>95.310000</ele>
                <time>2014-11-01T07:53:49Z</time>
            </trkpt>
            <trkpt lon="100.965518" lat="14.438738">
                <ele>96.750000</ele>
                <time>2014-11-01T07:53:59Z</time>
            </trkpt>
            <trkpt lon="100.965697" lat="14.438682">
                <ele>98.190000</ele>
                <time>2014-11-01T07:54:12Z</time>
            </trkpt>
            <trkpt lon="100.965727" lat="14.438680">
                <ele>98.670000</ele>
                <time>2014-11-01T07:54:14Z</time>
            </trkpt>
            <trkpt lon="100.965910" lat="14.438687">
                <ele>97.710000</ele>
                <time>2014-11-01T07:54:22Z</time>
            </trkpt>
            <trkpt lon="100.966110" lat="14.438498">
                <ele>97.710000</ele>
                <time>2014-11-01T07:54:35Z</time>
            </trkpt>
            <trkpt lon="100.966172" lat="14.438356">
                <ele>98.670000</ele>
                <time>2014-11-01T07:54:45Z</time>
            </trkpt>
            <trkpt lon="100.966232" lat="14.438262">
                <ele>100.110000</ele>
                <time>2014-11-01T07:54:51Z</time>
            </trkpt>
            <trkpt lon="100.966411" lat="14.438190">
                <ele>101.560000</ele>
                <time>2014-11-01T07:55:03Z</time>
            </trkpt>
            <trkpt lon="100.966503" lat="14.438198">
                <ele>102.520000</ele>
                <time>2014-11-01T07:55:10Z</time>
            </trkpt>
            <trkpt lon="100.966630" lat="14.438262">
                <ele>103.960000</ele>
                <time>2014-11-01T07:55:22Z</time>
            </trkpt>
            <trkpt lon="100.966809" lat="14.438322">
                <ele>105.400000</ele>
                <time>2014-11-01T07:55:35Z</time>
            </trkpt>
            <trkpt lon="100.966855" lat="14.438322">
                <ele>105.400000</ele>
                <time>2014-11-01T07:55:39Z</time>
            </trkpt>
            <trkpt lon="100.967051" lat="14.438228">
                <ele>106.840000</ele>
                <time>2014-11-01T07:55:54Z</time>
            </trkpt>
            <trkpt lon="100.967069" lat="14.438201">
                <ele>107.320000</ele>
                <time>2014-11-01T07:55:57Z</time>
            </trkpt>
            <trkpt lon="100.967138" lat="14.437953">
                <ele>106.360000</ele>
                <time>2014-11-01T07:56:11Z</time>
            </trkpt>
            <trkpt lon="100.967314" lat="14.437676">
                <ele>107.320000</ele>
                <time>2014-11-01T07:56:24Z</time>
            </trkpt>
            <trkpt lon="100.967653" lat="14.437392">
                <ele>107.810000</ele>
                <time>2014-11-01T07:56:36Z</time>
            </trkpt>
            <trkpt lon="100.967977" lat="14.437270">
                <ele>107.810000</ele>
                <time>2014-11-01T07:56:49Z</time>
            </trkpt>
            <trkpt lon="100.968185" lat="14.437309">
                <ele>109.730000</ele>
                <time>2014-11-01T07:57:02Z</time>
            </trkpt>
            <trkpt lon="100.968200" lat="14.437319">
                <ele>110.210000</ele>
                <time>2014-11-01T07:57:03Z</time>
            </trkpt>
            <trkpt lon="100.968311" lat="14.437315">
                <ele>109.250000</ele>
                <time>2014-11-01T07:57:09Z</time>
            </trkpt>
            <trkpt lon="100.968365" lat="14.437303">
                <ele>108.290000</ele>
                <time>2014-11-01T07:57:22Z</time>
            </trkpt>
            <trkpt lon="100.968451" lat="14.437298">
                <ele>108.290000</ele>
                <time>2014-11-01T07:57:38Z</time>
            </trkpt>
            <trkpt lon="100.968531" lat="14.437279">
                <ele>108.770000</ele>
                <time>2014-11-01T07:57:50Z</time>
            </trkpt>
            <trkpt lon="100.968648" lat="14.437287">
                <ele>110.210000</ele>
                <time>2014-11-01T07:57:59Z</time>
            </trkpt>
            <trkpt lon="100.968913" lat="14.437175">
                <ele>110.210000</ele>
                <time>2014-11-01T07:58:14Z</time>
            </trkpt>
            <trkpt lon="100.969143" lat="14.437014">
                <ele>110.690000</ele>
                <time>2014-11-01T07:58:28Z</time>
            </trkpt>
            <trkpt lon="100.969347" lat="14.436855">
                <ele>112.130000</ele>
                <time>2014-11-01T07:58:42Z</time>
            </trkpt>
            <trkpt lon="100.969395" lat="14.436818">
                <ele>114.050000</ele>
                <time>2014-11-01T07:58:46Z</time>
            </trkpt>
            <trkpt lon="100.969555" lat="14.436734">
                <ele>114.530000</ele>
                <time>2014-11-01T07:58:58Z</time>
            </trkpt>
            <trkpt lon="100.969596" lat="14.436713">
                <ele>115.010000</ele>
                <time>2014-11-01T07:59:01Z</time>
            </trkpt>
            <trkpt lon="100.969708" lat="14.436687">
                <ele>115.500000</ele>
                <time>2014-11-01T07:59:10Z</time>
            </trkpt>
            <trkpt lon="100.969911" lat="14.436654">
                <ele>116.940000</ele>
                <time>2014-11-01T07:59:25Z</time>
            </trkpt>
            <trkpt lon="100.970122" lat="14.436710">
                <ele>118.860000</ele>
                <time>2014-11-01T07:59:39Z</time>
            </trkpt>
            <trkpt lon="100.970316" lat="14.436756">
                <ele>118.860000</ele>
                <time>2014-11-01T07:59:55Z</time>
            </trkpt>
            <trkpt lon="100.970595" lat="14.436778">
                <ele>119.820000</ele>
                <time>2014-11-01T08:00:08Z</time>
            </trkpt>
            <trkpt lon="100.970648" lat="14.436793">
                <ele>119.340000</ele>
                <time>2014-11-01T08:00:10Z</time>
            </trkpt>
            <trkpt lon="100.970770" lat="14.436797">
                <ele>119.340000</ele>
                <time>2014-11-01T08:00:14Z</time>
            </trkpt>
            <trkpt lon="100.970882" lat="14.436802">
                <ele>119.340000</ele>
                <time>2014-11-01T08:00:18Z</time>
            </trkpt>
            <trkpt lon="100.971110" lat="14.436761">
                <ele>120.300000</ele>
                <time>2014-11-01T08:00:29Z</time>
            </trkpt>
            <trkpt lon="100.971241" lat="14.436686">
                <ele>121.260000</ele>
                <time>2014-11-01T08:00:38Z</time>
            </trkpt>
            <trkpt lon="100.971484" lat="14.436489">
                <ele>123.190000</ele>
                <time>2014-11-01T08:00:55Z</time>
            </trkpt>
            <trkpt lon="100.971688" lat="14.436355">
                <ele>124.630000</ele>
                <time>2014-11-01T08:01:10Z</time>
            </trkpt>
            <trkpt lon="100.971827" lat="14.436199">
                <ele>125.110000</ele>
                <time>2014-11-01T08:01:22Z</time>
            </trkpt>
            <trkpt lon="100.971832" lat="14.435960">
                <ele>125.590000</ele>
                <time>2014-11-01T08:01:36Z</time>
            </trkpt>
            <trkpt lon="100.971815" lat="14.435789">
                <ele>127.510000</ele>
                <time>2014-11-01T08:01:49Z</time>
            </trkpt>
            <trkpt lon="100.971810" lat="14.435639">
                <ele>127.030000</ele>
                <time>2014-11-01T08:02:02Z</time>
            </trkpt>
            <trkpt lon="100.971858" lat="14.435415">
                <ele>125.110000</ele>
                <time>2014-11-01T08:02:15Z</time>
            </trkpt>
            <trkpt lon="100.971912" lat="14.435199">
                <ele>125.110000</ele>
                <time>2014-11-01T08:02:26Z</time>
            </trkpt>
            <trkpt lon="100.971927" lat="14.435153">
                <ele>125.110000</ele>
                <time>2014-11-01T08:02:28Z</time>
            </trkpt>
            <trkpt lon="100.972034" lat="14.434962">
                <ele>123.670000</ele>
                <time>2014-11-01T08:02:42Z</time>
            </trkpt>
            <trkpt lon="100.972109" lat="14.434819">
                <ele>124.630000</ele>
                <time>2014-11-01T08:02:59Z</time>
            </trkpt>
            <trkpt lon="100.972187" lat="14.434702">
                <ele>125.110000</ele>
                <time>2014-11-01T08:03:17Z</time>
            </trkpt>
            <trkpt lon="100.972273" lat="14.434617">
                <ele>127.030000</ele>
                <time>2014-11-01T08:03:34Z</time>
            </trkpt>
            <trkpt lon="100.972326" lat="14.434530">
                <ele>126.550000</ele>
                <time>2014-11-01T08:03:47Z</time>
            </trkpt>
            <trkpt lon="100.972378" lat="14.434288">
                <ele>127.990000</ele>
                <time>2014-11-01T08:04:01Z</time>
            </trkpt>
            <trkpt lon="100.972405" lat="14.434084">
                <ele>128.950000</ele>
                <time>2014-11-01T08:04:14Z</time>
            </trkpt>
            <trkpt lon="100.972469" lat="14.433913">
                <ele>130.400000</ele>
                <time>2014-11-01T08:04:28Z</time>
            </trkpt>
            <trkpt lon="100.972503" lat="14.433824">
                <ele>130.880000</ele>
                <time>2014-11-01T08:04:35Z</time>
            </trkpt>
            <trkpt lon="100.972521" lat="14.433786">
                <ele>130.880000</ele>
                <time>2014-11-01T08:04:38Z</time>
            </trkpt>
            <trkpt lon="100.972529" lat="14.433740">
                <ele>131.360000</ele>
                <time>2014-11-01T08:04:41Z</time>
            </trkpt>
            <trkpt lon="100.972490" lat="14.433536">
                <ele>132.320000</ele>
                <time>2014-11-01T08:04:57Z</time>
            </trkpt>
            <trkpt lon="100.972460" lat="14.433384">
                <ele>131.360000</ele>
                <time>2014-11-01T08:05:13Z</time>
            </trkpt>
            <trkpt lon="100.972464" lat="14.433459">
                <ele>131.840000</ele>
                <time>2014-11-01T08:05:42Z</time>
            </trkpt>
            <trkpt lon="100.972413" lat="14.433252">
                <ele>131.360000</ele>
                <time>2014-11-01T08:05:56Z</time>
            </trkpt>
            <trkpt lon="100.972326" lat="14.432961">
                <ele>130.880000</ele>
                <time>2014-11-01T08:06:11Z</time>
            </trkpt>
            <trkpt lon="100.972323" lat="14.432608">
                <ele>130.400000</ele>
                <time>2014-11-01T08:06:25Z</time>
            </trkpt>
            <trkpt lon="100.972339" lat="14.432240">
                <ele>131.360000</ele>
                <time>2014-11-01T08:06:40Z</time>
            </trkpt>
            <trkpt lon="100.972403" lat="14.431823">
                <ele>130.880000</ele>
                <time>2014-11-01T08:06:54Z</time>
            </trkpt>
            <trkpt lon="100.972520" lat="14.431550">
                <ele>132.800000</ele>
                <time>2014-11-01T08:07:09Z</time>
            </trkpt>
            <trkpt lon="100.972632" lat="14.431296">
                <ele>132.800000</ele>
                <time>2014-11-01T08:07:21Z</time>
            </trkpt>
            <trkpt lon="100.972643" lat="14.431099">
                <ele>134.720000</ele>
                <time>2014-11-01T08:07:32Z</time>
            </trkpt>
            <trkpt lon="100.972534" lat="14.430866">
                <ele>134.240000</ele>
                <time>2014-11-01T08:07:45Z</time>
            </trkpt>
            <trkpt lon="100.972441" lat="14.430766">
                <ele>134.720000</ele>
                <time>2014-11-01T08:07:51Z</time>
            </trkpt>
            <trkpt lon="100.972342" lat="14.430609">
                <ele>133.760000</ele>
                <time>2014-11-01T08:07:58Z</time>
            </trkpt>
            <trkpt lon="100.972031" lat="14.430358">
                <ele>130.880000</ele>
                <time>2014-11-01T08:08:13Z</time>
            </trkpt>
            <trkpt lon="100.971821" lat="14.430215">
                <ele>130.400000</ele>
                <time>2014-11-01T08:08:24Z</time>
            </trkpt>
            <trkpt lon="100.971775" lat="14.430167">
                <ele>130.880000</ele>
                <time>2014-11-01T08:08:27Z</time>
            </trkpt>
            <trkpt lon="100.971662" lat="14.429977">
                <ele>132.800000</ele>
                <time>2014-11-01T08:08:35Z</time>
            </trkpt>
            <trkpt lon="100.971515" lat="14.429772">
                <ele>134.720000</ele>
                <time>2014-11-01T08:08:51Z</time>
            </trkpt>
            <trkpt lon="100.971348" lat="14.429592">
                <ele>135.680000</ele>
                <time>2014-11-01T08:09:07Z</time>
            </trkpt>
            <trkpt lon="100.971293" lat="14.429497">
                <ele>135.680000</ele>
                <time>2014-11-01T08:09:14Z</time>
            </trkpt>
            <trkpt lon="100.971255" lat="14.429345">
                <ele>137.130000</ele>
                <time>2014-11-01T08:09:26Z</time>
            </trkpt>
            <trkpt lon="100.971228" lat="14.429133">
                <ele>137.610000</ele>
                <time>2014-11-01T08:09:40Z</time>
            </trkpt>
            <trkpt lon="100.971221" lat="14.429085">
                <ele>138.090000</ele>
                <time>2014-11-01T08:09:44Z</time>
            </trkpt>
            <trkpt lon="100.971186" lat="14.428997">
                <ele>139.050000</ele>
                <time>2014-11-01T08:09:49Z</time>
            </trkpt>
            <trkpt lon="100.971073" lat="14.428801">
                <ele>140.010000</ele>
                <time>2014-11-01T08:10:04Z</time>
            </trkpt>
            <trkpt lon="100.971056" lat="14.428743">
                <ele>140.490000</ele>
                <time>2014-11-01T08:10:10Z</time>
            </trkpt>
            <trkpt lon="100.971013" lat="14.428573">
                <ele>141.930000</ele>
                <time>2014-11-01T08:10:23Z</time>
            </trkpt>
            <trkpt lon="100.971033" lat="14.428536">
                <ele>141.930000</ele>
                <time>2014-11-01T08:10:26Z</time>
            </trkpt>
            <trkpt lon="100.971097" lat="14.428454">
                <ele>141.930000</ele>
                <time>2014-11-01T08:10:32Z</time>
            </trkpt>
            <trkpt lon="100.971308" lat="14.428273">
                <ele>141.930000</ele>
                <time>2014-11-01T08:10:45Z</time>
            </trkpt>
            <trkpt lon="100.971552" lat="14.428016">
                <ele>141.450000</ele>
                <time>2014-11-01T08:10:57Z</time>
            </trkpt>
            <trkpt lon="100.971568" lat="14.428001">
                <ele>140.970000</ele>
                <time>2014-11-01T08:10:58Z</time>
            </trkpt>
            <trkpt lon="100.971723" lat="14.427743">
                <ele>142.410000</ele>
                <time>2014-11-01T08:11:13Z</time>
            </trkpt>
            <trkpt lon="100.971836" lat="14.427611">
                <ele>142.890000</ele>
                <time>2014-11-01T08:11:22Z</time>
            </trkpt>
            <trkpt lon="100.971929" lat="14.427434">
                <ele>143.370000</ele>
                <time>2014-11-01T08:11:31Z</time>
            </trkpt>
            <trkpt lon="100.972020" lat="14.427173">
                <ele>143.370000</ele>
                <time>2014-11-01T08:11:45Z</time>
            </trkpt>
            <trkpt lon="100.972069" lat="14.426843">
                <ele>144.820000</ele>
                <time>2014-11-01T08:11:58Z</time>
            </trkpt>
            <trkpt lon="100.972085" lat="14.426792">
                <ele>144.820000</ele>
                <time>2014-11-01T08:12:02Z</time>
            </trkpt>
            <trkpt lon="100.972081" lat="14.426765">
                <ele>144.820000</ele>
                <time>2014-11-01T08:12:04Z</time>
            </trkpt>
            <trkpt lon="100.972051" lat="14.426602">
                <ele>145.300000</ele>
                <time>2014-11-01T08:12:13Z</time>
            </trkpt>
            <trkpt lon="100.972048" lat="14.426533">
                <ele>145.780000</ele>
                <time>2014-11-01T08:12:16Z</time>
            </trkpt>
            <trkpt lon="100.972050" lat="14.426281">
                <ele>145.780000</ele>
                <time>2014-11-01T08:12:30Z</time>
            </trkpt>
            <trkpt lon="100.972047" lat="14.426213">
                <ele>146.740000</ele>
                <time>2014-11-01T08:12:34Z</time>
            </trkpt>
            <trkpt lon="100.972099" lat="14.425960">
                <ele>146.740000</ele>
                <time>2014-11-01T08:12:47Z</time>
            </trkpt>
            <trkpt lon="100.972118" lat="14.425751">
                <ele>145.780000</ele>
                <time>2014-11-01T08:13:00Z</time>
            </trkpt>
            <trkpt lon="100.972117" lat="14.425731">
                <ele>146.740000</ele>
                <time>2014-11-01T08:13:02Z</time>
            </trkpt>
            <trkpt lon="100.972110" lat="14.425687">
                <ele>146.740000</ele>
                <time>2014-11-01T08:13:07Z</time>
            </trkpt>
            <trkpt lon="100.972137" lat="14.425408">
                <ele>147.700000</ele>
                <time>2014-11-01T08:13:23Z</time>
            </trkpt>
            <trkpt lon="100.972207" lat="14.425100">
                <ele>148.180000</ele>
                <time>2014-11-01T08:13:37Z</time>
            </trkpt>
            <trkpt lon="100.972313" lat="14.424881">
                <ele>147.700000</ele>
                <time>2014-11-01T08:13:51Z</time>
            </trkpt>
            <trkpt lon="100.972538" lat="14.424608">
                <ele>148.660000</ele>
                <time>2014-11-01T08:14:06Z</time>
            </trkpt>
            <trkpt lon="100.972749" lat="14.424384">
                <ele>149.140000</ele>
                <time>2014-11-01T08:14:18Z</time>
            </trkpt>
            <trkpt lon="100.972966" lat="14.424088">
                <ele>149.620000</ele>
                <time>2014-11-01T08:14:32Z</time>
            </trkpt>
            <trkpt lon="100.973114" lat="14.423879">
                <ele>150.580000</ele>
                <time>2014-11-01T08:14:47Z</time>
            </trkpt>
            <trkpt lon="100.973193" lat="14.423660">
                <ele>150.100000</ele>
                <time>2014-11-01T08:15:02Z</time>
            </trkpt>
            <trkpt lon="100.973257" lat="14.423552">
                <ele>151.540000</ele>
                <time>2014-11-01T08:15:15Z</time>
            </trkpt>
            <trkpt lon="100.973397" lat="14.423291">
                <ele>151.540000</ele>
                <time>2014-11-01T08:15:30Z</time>
            </trkpt>
            <trkpt lon="100.973423" lat="14.423183">
                <ele>151.540000</ele>
                <time>2014-11-01T08:15:35Z</time>
            </trkpt>
            <trkpt lon="100.973376" lat="14.422996">
                <ele>151.060000</ele>
                <time>2014-11-01T08:15:43Z</time>
            </trkpt>
            <trkpt lon="100.973396" lat="14.422909">
                <ele>151.060000</ele>
                <time>2014-11-01T08:15:46Z</time>
            </trkpt>
            <trkpt lon="100.973327" lat="14.422707">
                <ele>152.030000</ele>
                <time>2014-11-01T08:16:01Z</time>
            </trkpt>
            <trkpt lon="100.973324" lat="14.422694">
                <ele>152.030000</ele>
                <time>2014-11-01T08:16:02Z</time>
            </trkpt>
            <trkpt lon="100.973285" lat="14.422564">
                <ele>152.030000</ele>
                <time>2014-11-01T08:16:15Z</time>
            </trkpt>
            <trkpt lon="100.973211" lat="14.422460">
                <ele>153.470000</ele>
                <time>2014-11-01T08:16:30Z</time>
            </trkpt>
            <trkpt lon="100.973164" lat="14.422351">
                <ele>154.910000</ele>
                <time>2014-11-01T08:16:45Z</time>
            </trkpt>
            <trkpt lon="100.973151" lat="14.422220">
                <ele>155.870000</ele>
                <time>2014-11-01T08:17:01Z</time>
            </trkpt>
            <trkpt lon="100.973159" lat="14.422101">
                <ele>155.390000</ele>
                <time>2014-11-01T08:17:18Z</time>
            </trkpt>
            <trkpt lon="100.973184" lat="14.421897">
                <ele>153.950000</ele>
                <time>2014-11-01T08:17:35Z</time>
            </trkpt>
            <trkpt lon="100.973215" lat="14.421821">
                <ele>155.390000</ele>
                <time>2014-11-01T08:17:47Z</time>
            </trkpt>
            <trkpt lon="100.973242" lat="14.421739">
                <ele>155.870000</ele>
                <time>2014-11-01T08:18:00Z</time>
            </trkpt>
            <trkpt lon="100.973251" lat="14.421717">
                <ele>155.390000</ele>
                <time>2014-11-01T08:18:03Z</time>
            </trkpt>
            <trkpt lon="100.973320" lat="14.421591">
                <ele>155.870000</ele>
                <time>2014-11-01T08:18:17Z</time>
            </trkpt>
            <trkpt lon="100.973368" lat="14.421433">
                <ele>156.350000</ele>
                <time>2014-11-01T08:18:34Z</time>
            </trkpt>
            <trkpt lon="100.973503" lat="14.421269">
                <ele>155.870000</ele>
                <time>2014-11-01T08:18:48Z</time>
            </trkpt>
            <trkpt lon="100.973508" lat="14.421246">
                <ele>156.350000</ele>
                <time>2014-11-01T08:19:00Z</time>
            </trkpt>
            <trkpt lon="100.973546" lat="14.421125">
                <ele>157.310000</ele>
                <time>2014-11-01T08:19:14Z</time>
            </trkpt>
            <trkpt lon="100.973599" lat="14.420971">
                <ele>158.270000</ele>
                <time>2014-11-01T08:19:26Z</time>
            </trkpt>
            <trkpt lon="100.973735" lat="14.420672">
                <ele>157.790000</ele>
                <time>2014-11-01T08:19:41Z</time>
            </trkpt>
            <trkpt lon="100.973884" lat="14.420362">
                <ele>154.430000</ele>
                <time>2014-11-01T08:19:56Z</time>
            </trkpt>
            <trkpt lon="100.973996" lat="14.420213">
                <ele>151.060000</ele>
                <time>2014-11-01T08:20:05Z</time>
            </trkpt>
            <trkpt lon="100.974116" lat="14.420010">
                <ele>148.180000</ele>
                <time>2014-11-01T08:20:18Z</time>
            </trkpt>
            <trkpt lon="100.974138" lat="14.419954">
                <ele>148.180000</ele>
                <time>2014-11-01T08:20:20Z</time>
            </trkpt>
            <trkpt lon="100.974238" lat="14.419813">
                <ele>144.820000</ele>
                <time>2014-11-01T08:20:30Z</time>
            </trkpt>
            <trkpt lon="100.974383" lat="14.419723">
                <ele>142.410000</ele>
                <time>2014-11-01T08:20:43Z</time>
            </trkpt>
            <trkpt lon="100.974409" lat="14.419664">
                <ele>141.930000</ele>
                <time>2014-11-01T08:20:47Z</time>
            </trkpt>
            <trkpt lon="100.974403" lat="14.419569">
                <ele>140.010000</ele>
                <time>2014-11-01T08:20:53Z</time>
            </trkpt>
            <trkpt lon="100.974456" lat="14.419398">
                <ele>137.130000</ele>
                <time>2014-11-01T08:21:04Z</time>
            </trkpt>
            <trkpt lon="100.974507" lat="14.419350">
                <ele>135.680000</ele>
                <time>2014-11-01T08:21:08Z</time>
            </trkpt>
            <trkpt lon="100.974536" lat="14.419290">
                <ele>134.720000</ele>
                <time>2014-11-01T08:21:21Z</time>
            </trkpt>
            <trkpt lon="100.974514" lat="14.419217">
                <ele>131.840000</ele>
                <time>2014-11-01T08:21:38Z</time>
            </trkpt>
            <trkpt lon="100.974459" lat="14.419117">
                <ele>128.470000</ele>
                <time>2014-11-01T08:21:52Z</time>
            </trkpt>
            <trkpt lon="100.974410" lat="14.419013">
                <ele>125.110000</ele>
                <time>2014-11-01T08:22:07Z</time>
            </trkpt>
            <trkpt lon="100.974406" lat="14.418924">
                <ele>122.220000</ele>
                <time>2014-11-01T08:22:22Z</time>
            </trkpt>
            <trkpt lon="100.974465" lat="14.418833">
                <ele>120.300000</ele>
                <time>2014-11-01T08:22:40Z</time>
            </trkpt>
            <trkpt lon="100.974566" lat="14.418745">
                <ele>120.300000</ele>
                <time>2014-11-01T08:22:58Z</time>
            </trkpt>
            <trkpt lon="100.974648" lat="14.418710">
                <ele>120.300000</ele>
                <time>2014-11-01T08:23:21Z</time>
            </trkpt>
            <trkpt lon="100.974624" lat="14.418650">
                <ele>116.940000</ele>
                <time>2014-11-01T08:23:35Z</time>
            </trkpt>
            <trkpt lon="100.974661" lat="14.418634">
                <ele>115.980000</ele>
                <time>2014-11-01T08:23:51Z</time>
            </trkpt>
            <trkpt lon="100.974748" lat="14.418586">
                <ele>114.530000</ele>
                <time>2014-11-01T08:24:06Z</time>
            </trkpt>
            <trkpt lon="100.974826" lat="14.418497">
                <ele>113.570000</ele>
                <time>2014-11-01T08:24:21Z</time>
            </trkpt>
            <trkpt lon="100.974912" lat="14.418494">
                <ele>113.090000</ele>
                <time>2014-11-01T08:24:30Z</time>
            </trkpt>
            <trkpt lon="100.975171" lat="14.418551">
                <ele>109.730000</ele>
                <time>2014-11-01T08:24:46Z</time>
            </trkpt>
            <trkpt lon="100.975365" lat="14.418428">
                <ele>108.770000</ele>
                <time>2014-11-01T08:25:07Z</time>
            </trkpt>
            <trkpt lon="100.975394" lat="14.418404">
                <ele>107.320000</ele>
                <time>2014-11-01T08:25:25Z</time>
            </trkpt>
            <trkpt lon="100.975390" lat="14.418333">
                <ele>106.360000</ele>
                <time>2014-11-01T08:25:43Z</time>
            </trkpt>
            <trkpt lon="100.975386" lat="14.418254">
                <ele>105.400000</ele>
                <time>2014-11-01T08:25:56Z</time>
            </trkpt>
            <trkpt lon="100.975497" lat="14.418052">
                <ele>103.000000</ele>
                <time>2014-11-01T08:26:09Z</time>
            </trkpt>
            <trkpt lon="100.975519" lat="14.418021">
                <ele>101.560000</ele>
                <time>2014-11-01T08:26:12Z</time>
            </trkpt>
            <trkpt lon="100.975533" lat="14.418009">
                <ele>100.110000</ele>
                <time>2014-11-01T08:26:28Z</time>
            </trkpt>
            <trkpt lon="100.975581" lat="14.417968">
                <ele>98.670000</ele>
                <time>2014-11-01T08:26:48Z</time>
            </trkpt>
            <trkpt lon="100.975616" lat="14.417911">
                <ele>96.270000</ele>
                <time>2014-11-01T08:27:09Z</time>
            </trkpt>
            <trkpt lon="100.975626" lat="14.417808">
                <ele>95.790000</ele>
                <time>2014-11-01T08:27:29Z</time>
            </trkpt>
            <trkpt lon="100.975615" lat="14.417722">
                <ele>93.870000</ele>
                <time>2014-11-01T08:27:43Z</time>
            </trkpt>
            <trkpt lon="100.975700" lat="14.417593">
                <ele>93.870000</ele>
                <time>2014-11-01T08:28:05Z</time>
            </trkpt>
            <trkpt lon="100.975822" lat="14.417429">
                <ele>90.500000</ele>
                <time>2014-11-01T08:28:22Z</time>
            </trkpt>
            <trkpt lon="100.975957" lat="14.417325">
                <ele>87.620000</ele>
                <time>2014-11-01T08:28:34Z</time>
            </trkpt>
            <trkpt lon="100.975984" lat="14.417298">
                <ele>85.210000</ele>
                <time>2014-11-01T08:28:41Z</time>
            </trkpt>
            <trkpt lon="100.976104" lat="14.417251">
                <ele>82.810000</ele>
                <time>2014-11-01T08:28:59Z</time>
            </trkpt>
            <trkpt lon="100.976132" lat="14.417141">
                <ele>82.330000</ele>
                <time>2014-11-01T08:29:13Z</time>
            </trkpt>
            <trkpt lon="100.976230" lat="14.417066">
                <ele>79.450000</ele>
                <time>2014-11-01T08:29:33Z</time>
            </trkpt>
            <trkpt lon="100.976355" lat="14.417006">
                <ele>78.480000</ele>
                <time>2014-11-01T08:29:52Z</time>
            </trkpt>
            <trkpt lon="100.976397" lat="14.416994">
                <ele>77.520000</ele>
                <time>2014-11-01T08:30:03Z</time>
            </trkpt>
            <trkpt lon="100.976503" lat="14.416933">
                <ele>78.000000</ele>
                <time>2014-11-01T08:30:12Z</time>
            </trkpt>
            <trkpt lon="100.976530" lat="14.416891">
                <ele>77.520000</ele>
                <time>2014-11-01T08:30:15Z</time>
            </trkpt>
            <trkpt lon="100.976676" lat="14.416557">
                <ele>76.080000</ele>
                <time>2014-11-01T08:30:27Z</time>
            </trkpt>
            <trkpt lon="100.976749" lat="14.416219">
                <ele>76.560000</ele>
                <time>2014-11-01T08:30:39Z</time>
            </trkpt>
            <trkpt lon="100.976866" lat="14.416149">
                <ele>77.520000</ele>
                <time>2014-11-01T08:30:52Z</time>
            </trkpt>
            <trkpt lon="100.976965" lat="14.416121">
                <ele>77.520000</ele>
                <time>2014-11-01T08:30:57Z</time>
            </trkpt>
            <trkpt lon="100.977191" lat="14.415893">
                <ele>76.080000</ele>
                <time>2014-11-01T08:31:10Z</time>
            </trkpt>
            <trkpt lon="100.977424" lat="14.415607">
                <ele>75.120000</ele>
                <time>2014-11-01T08:31:20Z</time>
            </trkpt>
            <trkpt lon="100.977745" lat="14.415352">
                <ele>75.600000</ele>
                <time>2014-11-01T08:31:32Z</time>
            </trkpt>
            <trkpt lon="100.977819" lat="14.415250">
                <ele>76.560000</ele>
                <time>2014-11-01T08:31:38Z</time>
            </trkpt>
            <trkpt lon="100.977843" lat="14.415121">
                <ele>76.560000</ele>
                <time>2014-11-01T08:31:44Z</time>
            </trkpt>
            <trkpt lon="100.977895" lat="14.414834">
                <ele>77.040000</ele>
                <time>2014-11-01T08:31:57Z</time>
            </trkpt>
            <trkpt lon="100.977937" lat="14.414564">
                <ele>76.080000</ele>
                <time>2014-11-01T08:32:08Z</time>
            </trkpt>
            <trkpt lon="100.978142" lat="14.414293">
                <ele>78.000000</ele>
                <time>2014-11-01T08:32:22Z</time>
            </trkpt>
            <trkpt lon="100.978194" lat="14.414115">
                <ele>77.040000</ele>
                <time>2014-11-01T08:32:31Z</time>
            </trkpt>
            <trkpt lon="100.978191" lat="14.414055">
                <ele>75.120000</ele>
                <time>2014-11-01T08:32:34Z</time>
            </trkpt>
            <trkpt lon="100.978194" lat="14.413923">
                <ele>72.240000</ele>
                <time>2014-11-01T08:32:42Z</time>
            </trkpt>
            <trkpt lon="100.978216" lat="14.413746">
                <ele>68.870000</ele>
                <time>2014-11-01T08:32:51Z</time>
            </trkpt>
            <trkpt lon="100.978260" lat="14.413499">
                <ele>65.510000</ele>
                <time>2014-11-01T08:32:58Z</time>
            </trkpt>
            <trkpt lon="100.978350" lat="14.413270">
                <ele>63.100000</ele>
                <time>2014-11-01T08:33:05Z</time>
            </trkpt>
            <trkpt lon="100.978338" lat="14.413194">
                <ele>62.620000</ele>
                <time>2014-11-01T08:33:19Z</time>
            </trkpt>
            <trkpt lon="100.978319" lat="14.413086">
                <ele>62.140000</ele>
                <time>2014-11-01T08:33:57Z</time>
            </trkpt>
            <trkpt lon="100.978232" lat="14.413097">
                <ele>62.140000</ele>
                <time>2014-11-01T08:34:32Z</time>
            </trkpt>
            <trkpt lon="100.978216" lat="14.413144">
                <ele>61.660000</ele>
                <time>2014-11-01T08:35:12Z</time>
            </trkpt>
            <trkpt lon="100.978233" lat="14.413114">
                <ele>61.180000</ele>
                <time>2014-11-01T08:35:48Z</time>
            </trkpt>
            <trkpt lon="100.978364" lat="14.413133">
                <ele>61.180000</ele>
                <time>2014-11-01T08:36:18Z</time>
            </trkpt>
            <trkpt lon="100.978283" lat="14.413080">
                <ele>61.180000</ele>
                <time>2014-11-01T08:36:32Z</time>
            </trkpt>
            <trkpt lon="100.978157" lat="14.412893">
                <ele>61.660000</ele>
                <time>2014-11-01T08:36:43Z</time>
            </trkpt>
            <trkpt lon="100.978049" lat="14.412660">
                <ele>61.180000</ele>
                <time>2014-11-01T08:36:52Z</time>
            </trkpt>
            <trkpt lon="100.978087" lat="14.412581">
                <ele>60.700000</ele>
                <time>2014-11-01T08:36:55Z</time>
            </trkpt>
            <trkpt lon="100.978379" lat="14.412171">
                <ele>60.220000</ele>
                <time>2014-11-01T08:37:07Z</time>
            </trkpt>
            <trkpt lon="100.978258" lat="14.411825">
                <ele>60.220000</ele>
                <time>2014-11-01T08:37:17Z</time>
            </trkpt>
            <trkpt lon="100.978177" lat="14.411663">
                <ele>59.740000</ele>
                <time>2014-11-01T08:37:21Z</time>
            </trkpt>
            <trkpt lon="100.978141" lat="14.411529">
                <ele>59.740000</ele>
                <time>2014-11-01T08:37:24Z</time>
            </trkpt>
            <trkpt lon="100.978138" lat="14.411484">
                <ele>59.260000</ele>
                <time>2014-11-01T08:37:25Z</time>
            </trkpt>
            <trkpt lon="100.978130" lat="14.411094">
                <ele>58.780000</ele>
                <time>2014-11-01T08:37:34Z</time>
            </trkpt>
            <trkpt lon="100.978119" lat="14.411047">
                <ele>59.260000</ele>
                <time>2014-11-01T08:37:35Z</time>
            </trkpt>
            <trkpt lon="100.977944" lat="14.410400">
                <ele>59.260000</ele>
                <time>2014-11-01T08:37:50Z</time>
            </trkpt>
            <trkpt lon="100.977854" lat="14.409497">
                <ele>57.820000</ele>
                <time>2014-11-01T08:38:08Z</time>
            </trkpt>
            <trkpt lon="100.977732" lat="14.408468">
                <ele>57.820000</ele>
                <time>2014-11-01T08:38:28Z</time>
            </trkpt>
            <trkpt lon="100.977777" lat="14.407659">
                <ele>55.890000</ele>
                <time>2014-11-01T08:38:42Z</time>
            </trkpt>
            <trkpt lon="100.977805" lat="14.407477">
                <ele>56.860000</ele>
                <time>2014-11-01T08:38:45Z</time>
            </trkpt>
            <trkpt lon="100.977822" lat="14.407420">
                <ele>56.370000</ele>
                <time>2014-11-01T08:38:46Z</time>
            </trkpt>
            <trkpt lon="100.977845" lat="14.407367">
                <ele>55.890000</ele>
                <time>2014-11-01T08:38:47Z</time>
            </trkpt>
            <trkpt lon="100.977873" lat="14.407314">
                <ele>55.890000</ele>
                <time>2014-11-01T08:38:48Z</time>
            </trkpt>
            <trkpt lon="100.977905" lat="14.407266">
                <ele>55.410000</ele>
                <time>2014-11-01T08:38:49Z</time>
            </trkpt>
            <trkpt lon="100.977943" lat="14.407222">
                <ele>55.410000</ele>
                <time>2014-11-01T08:38:50Z</time>
            </trkpt>
            <trkpt lon="100.978175" lat="14.406938">
                <ele>54.930000</ele>
                <time>2014-11-01T08:38:56Z</time>
            </trkpt>
            <trkpt lon="100.978207" lat="14.406882">
                <ele>54.930000</ele>
                <time>2014-11-01T08:38:57Z</time>
            </trkpt>
            <trkpt lon="100.978233" lat="14.406824">
                <ele>54.930000</ele>
                <time>2014-11-01T08:38:58Z</time>
            </trkpt>
            <trkpt lon="100.978252" lat="14.406761">
                <ele>54.450000</ele>
                <time>2014-11-01T08:38:59Z</time>
            </trkpt>
            <trkpt lon="100.978260" lat="14.406696">
                <ele>54.450000</ele>
                <time>2014-11-01T08:39:00Z</time>
            </trkpt>
            <trkpt lon="100.978260" lat="14.406631">
                <ele>53.970000</ele>
                <time>2014-11-01T08:39:01Z</time>
            </trkpt>
            <trkpt lon="100.978255" lat="14.406567">
                <ele>53.970000</ele>
                <time>2014-11-01T08:39:02Z</time>
            </trkpt>
            <trkpt lon="100.978291" lat="14.405545">
                <ele>53.010000</ele>
                <time>2014-11-01T08:39:18Z</time>
            </trkpt>
            <trkpt lon="100.978290" lat="14.405482">
                <ele>53.010000</ele>
                <time>2014-11-01T08:39:19Z</time>
            </trkpt>
            <trkpt lon="100.978276" lat="14.405359">
                <ele>53.490000</ele>
                <time>2014-11-01T08:39:21Z</time>
            </trkpt>
            <trkpt lon="100.978243" lat="14.405208">
                <ele>52.530000</ele>
                <time>2014-11-01T08:39:24Z</time>
            </trkpt>
            <trkpt lon="100.978265" lat="14.405171">
                <ele>52.530000</ele>
                <time>2014-11-01T08:39:26Z</time>
            </trkpt>
            <trkpt lon="100.978286" lat="14.405180">
                <ele>52.530000</ele>
                <time>2014-11-01T08:39:27Z</time>
            </trkpt>
            <trkpt lon="100.978306" lat="14.405194">
                <ele>52.530000</ele>
                <time>2014-11-01T08:39:28Z</time>
            </trkpt>
            <trkpt lon="100.978330" lat="14.405210">
                <ele>52.530000</ele>
                <time>2014-11-01T08:39:29Z</time>
            </trkpt>
            <trkpt lon="100.978353" lat="14.405221">
                <ele>53.010000</ele>
                <time>2014-11-01T08:39:30Z</time>
            </trkpt>
            <trkpt lon="100.978379" lat="14.405229">
                <ele>52.530000</ele>
                <time>2014-11-01T08:39:31Z</time>
            </trkpt>
            <trkpt lon="100.978405" lat="14.405235">
                <ele>52.530000</ele>
                <time>2014-11-01T08:39:32Z</time>
            </trkpt>
            <trkpt lon="100.978925" lat="14.405238">
                <ele>53.010000</ele>
                <time>2014-11-01T08:39:48Z</time>
            </trkpt>
            <trkpt lon="100.978987" lat="14.404880">
                <ele>52.530000</ele>
                <time>2014-11-01T08:39:59Z</time>
            </trkpt>
            <trkpt lon="100.978947" lat="14.404545">
                <ele>52.530000</ele>
                <time>2014-11-01T08:40:08Z</time>
            </trkpt>
            <trkpt lon="100.979044" lat="14.404096">
                <ele>52.050000</ele>
                <time>2014-11-01T08:40:21Z</time>
            </trkpt>
            <trkpt lon="100.979588" lat="14.404077">
                <ele>52.530000</ele>
                <time>2014-11-01T08:40:36Z</time>
            </trkpt>
            <trkpt lon="100.980061" lat="14.404118">
                <ele>52.530000</ele>
                <time>2014-11-01T08:40:50Z</time>
            </trkpt>
            <trkpt lon="100.980578" lat="14.404215">
                <ele>52.530000</ele>
                <time>2014-11-01T08:41:05Z</time>
            </trkpt>
            <trkpt lon="100.980617" lat="14.404508">
                <ele>52.050000</ele>
                <time>2014-11-01T08:41:13Z</time>
            </trkpt>
            <trkpt lon="100.980542" lat="14.405033">
                <ele>52.530000</ele>
                <time>2014-11-01T08:41:29Z</time>
            </trkpt>
            <trkpt lon="100.980493" lat="14.405562">
                <ele>53.490000</ele>
                <time>2014-11-01T08:41:48Z</time>
            </trkpt>
            <trkpt lon="100.980742" lat="14.405690">
                <ele>53.010000</ele>
                <time>2014-11-01T08:41:58Z</time>
            </trkpt>
            <trkpt lon="100.980904" lat="14.405723">
                <ele>52.530000</ele>
                <time>2014-11-01T08:42:02Z</time>
            </trkpt>
            <trkpt lon="100.981039" lat="14.405545">
                <ele>52.050000</ele>
                <time>2014-11-01T08:42:09Z</time>
            </trkpt>
            <trkpt lon="100.981233" lat="14.404806">
                <ele>50.610000</ele>
                <time>2014-11-01T08:42:29Z</time>
            </trkpt>
            <trkpt lon="100.981411" lat="14.404636">
                <ele>49.650000</ele>
                <time>2014-11-01T08:42:42Z</time>
            </trkpt>
            <trkpt lon="100.981823" lat="14.404473">
                <ele>50.130000</ele>
                <time>2014-11-01T08:43:00Z</time>
            </trkpt>
            <trkpt lon="100.982073" lat="14.404322">
                <ele>50.610000</ele>
                <time>2014-11-01T08:43:11Z</time>
            </trkpt>
            <trkpt lon="100.982341" lat="14.404092">
                <ele>50.610000</ele>
                <time>2014-11-01T08:43:22Z</time>
            </trkpt>
            <trkpt lon="100.982369" lat="14.403789">
                <ele>49.650000</ele>
                <time>2014-11-01T08:43:32Z</time>
            </trkpt>
            <trkpt lon="100.982372" lat="14.403416">
                <ele>48.200000</ele>
                <time>2014-11-01T08:43:44Z</time>
            </trkpt>
            <trkpt lon="100.982220" lat="14.403112">
                <ele>48.200000</ele>
                <time>2014-11-01T08:43:55Z</time>
            </trkpt>
            <trkpt lon="100.982249" lat="14.402760">
                <ele>47.240000</ele>
                <time>2014-11-01T08:44:07Z</time>
            </trkpt>
            <trkpt lon="100.982280" lat="14.402595">
                <ele>47.720000</ele>
                <time>2014-11-01T08:44:15Z</time>
            </trkpt>
            <trkpt lon="100.982281" lat="14.402574">
                <ele>47.720000</ele>
                <time>2014-11-01T08:44:17Z</time>
            </trkpt>
            <trkpt lon="100.982263" lat="14.402423">
                <ele>47.720000</ele>
                <time>2014-11-01T08:44:24Z</time>
            </trkpt>
            <trkpt lon="100.982149" lat="14.402215">
                <ele>47.720000</ele>
                <time>2014-11-01T08:44:35Z</time>
            </trkpt>
            <trkpt lon="100.982183" lat="14.402142">
                <ele>47.720000</ele>
                <time>2014-11-01T08:44:40Z</time>
            </trkpt>
            <trkpt lon="100.982209" lat="14.402133">
                <ele>48.200000</ele>
                <time>2014-11-01T08:44:41Z</time>
            </trkpt>
            <trkpt lon="100.982525" lat="14.402058">
                <ele>48.200000</ele>
                <time>2014-11-01T08:44:50Z</time>
            </trkpt>
            <trkpt lon="100.983279" lat="14.401863">
                <ele>47.240000</ele>
                <time>2014-11-01T08:45:06Z</time>
            </trkpt>
            <trkpt lon="100.984283" lat="14.401596">
                <ele>47.240000</ele>
                <time>2014-11-01T08:45:27Z</time>
            </trkpt>
            <trkpt lon="100.985169" lat="14.401362">
                <ele>48.200000</ele>
                <time>2014-11-01T08:45:46Z</time>
            </trkpt>
            <trkpt lon="100.985291" lat="14.401324">
                <ele>47.720000</ele>
                <time>2014-11-01T08:45:49Z</time>
            </trkpt>
            <trkpt lon="100.985327" lat="14.401303">
                <ele>47.720000</ele>
                <time>2014-11-01T08:45:50Z</time>
            </trkpt>
            <trkpt lon="100.985353" lat="14.401271">
                <ele>47.720000</ele>
                <time>2014-11-01T08:45:51Z</time>
            </trkpt>
            <trkpt lon="100.985368" lat="14.401228">
                <ele>47.720000</ele>
                <time>2014-11-01T08:45:52Z</time>
            </trkpt>
            <trkpt lon="100.985367" lat="14.401182">
                <ele>47.720000</ele>
                <time>2014-11-01T08:45:53Z</time>
            </trkpt>
            <trkpt lon="100.985355" lat="14.401136">
                <ele>47.720000</ele>
                <time>2014-11-01T08:45:54Z</time>
            </trkpt>
            <trkpt lon="100.985339" lat="14.401091">
                <ele>47.720000</ele>
                <time>2014-11-01T08:45:55Z</time>
            </trkpt>
            <trkpt lon="100.985248" lat="14.400870">
                <ele>46.760000</ele>
                <time>2014-11-01T08:46:02Z</time>
            </trkpt>
            <trkpt lon="100.985234" lat="14.400865">
                <ele>47.240000</ele>
                <time>2014-11-01T08:46:03Z</time>
            </trkpt>
            <trkpt lon="100.985245" lat="14.400914">
                <ele>47.720000</ele>
                <time>2014-11-01T08:46:07Z</time>
            </trkpt>
            <trkpt lon="100.985405" lat="14.401287">
                <ele>47.720000</ele>
                <time>2014-11-01T08:46:25Z</time>
            </trkpt>
            <trkpt lon="100.985590" lat="14.401740">
                <ele>48.680000</ele>
                <time>2014-11-01T08:46:41Z</time>
            </trkpt>
            <trkpt lon="100.985755" lat="14.402202">
                <ele>49.160000</ele>
                <time>2014-11-01T08:46:58Z</time>
            </trkpt>
            <trkpt lon="100.985872" lat="14.402703">
                <ele>50.610000</ele>
                <time>2014-11-01T08:47:16Z</time>
            </trkpt>
            <trkpt lon="100.985974" lat="14.403205">
                <ele>52.050000</ele>
                <time>2014-11-01T08:47:35Z</time>
            </trkpt>
            <trkpt lon="100.986219" lat="14.403605">
                <ele>53.490000</ele>
                <time>2014-11-01T08:47:54Z</time>
            </trkpt>
            <trkpt lon="100.986476" lat="14.403821">
                <ele>54.450000</ele>
                <time>2014-11-01T08:48:10Z</time>
            </trkpt>
            <trkpt lon="100.986740" lat="14.403711">
                <ele>54.450000</ele>
                <time>2014-11-01T08:48:21Z</time>
            </trkpt>
            <trkpt lon="100.986963" lat="14.403600">
                <ele>53.970000</ele>
                <time>2014-11-01T08:48:32Z</time>
            </trkpt>
            <trkpt lon="100.987311" lat="14.403480">
                <ele>54.450000</ele>
                <time>2014-11-01T08:48:49Z</time>
            </trkpt>
            <trkpt lon="100.987706" lat="14.403561">
                <ele>55.410000</ele>
                <time>2014-11-01T08:49:07Z</time>
            </trkpt>
            <trkpt lon="100.987972" lat="14.403439">
                <ele>55.410000</ele>
                <time>2014-11-01T08:49:20Z</time>
            </trkpt>
            <trkpt lon="100.988330" lat="14.403259">
                <ele>55.890000</ele>
                <time>2014-11-01T08:49:37Z</time>
            </trkpt>
            <trkpt lon="100.988688" lat="14.403245">
                <ele>56.860000</ele>
                <time>2014-11-01T08:49:54Z</time>
            </trkpt>
            <trkpt lon="100.988889" lat="14.403117">
                <ele>56.860000</ele>
                <time>2014-11-01T08:50:08Z</time>
            </trkpt>
            <trkpt lon="100.988895" lat="14.402889">
                <ele>55.410000</ele>
                <time>2014-11-01T08:50:19Z</time>
            </trkpt>
            <trkpt lon="100.988909" lat="14.402710">
                <ele>54.930000</ele>
                <time>2014-11-01T08:50:31Z</time>
            </trkpt>
            <trkpt lon="100.988935" lat="14.402483">
                <ele>53.490000</ele>
                <time>2014-11-01T08:50:45Z</time>
            </trkpt>
            <trkpt lon="100.989105" lat="14.402312">
                <ele>53.010000</ele>
                <time>2014-11-01T08:51:01Z</time>
            </trkpt>
            <trkpt lon="100.989256" lat="14.402133">
                <ele>52.530000</ele>
                <time>2014-11-01T08:51:17Z</time>
            </trkpt>
            <trkpt lon="100.989497" lat="14.402009">
                <ele>53.010000</ele>
                <time>2014-11-01T08:51:33Z</time>
            </trkpt>
            <trkpt lon="100.989676" lat="14.401960">
                <ele>53.010000</ele>
                <time>2014-11-01T08:51:48Z</time>
            </trkpt>
            <trkpt lon="100.989806" lat="14.401933">
                <ele>53.490000</ele>
                <time>2014-11-01T08:52:03Z</time>
            </trkpt>
            <trkpt lon="100.989848" lat="14.401935">
                <ele>53.970000</ele>
                <time>2014-11-01T08:52:09Z</time>
            </trkpt>
            <trkpt lon="100.989944" lat="14.401942">
                <ele>53.970000</ele>
                <time>2014-11-01T08:52:23Z</time>
            </trkpt>
            <trkpt lon="100.989984" lat="14.401958">
                <ele>54.450000</ele>
                <time>2014-11-01T08:52:28Z</time>
            </trkpt>
            <trkpt lon="100.990011" lat="14.401977">
                <ele>54.930000</ele>
                <time>2014-11-01T08:52:31Z</time>
            </trkpt>
            <trkpt lon="100.990151" lat="14.401990">
                <ele>54.450000</ele>
                <time>2014-11-01T08:52:48Z</time>
            </trkpt>
            <trkpt lon="100.990159" lat="14.401994">
                <ele>54.930000</ele>
                <time>2014-11-01T08:52:49Z</time>
            </trkpt>
            <trkpt lon="100.990396" lat="14.402016">
                <ele>55.890000</ele>
                <time>2014-11-01T08:53:05Z</time>
            </trkpt>
            <trkpt lon="100.990517" lat="14.402014">
                <ele>56.370000</ele>
                <time>2014-11-01T08:53:12Z</time>
            </trkpt>
            <trkpt lon="100.990824" lat="14.401966">
                <ele>56.860000</ele>
                <time>2014-11-01T08:53:27Z</time>
            </trkpt>
            <trkpt lon="100.990838" lat="14.401962">
                <ele>55.890000</ele>
                <time>2014-11-01T08:53:28Z</time>
            </trkpt>
            <trkpt lon="100.990883" lat="14.401994">
                <ele>56.370000</ele>
                <time>2014-11-01T08:53:32Z</time>
            </trkpt>
            <trkpt lon="100.991022" lat="14.402109">
                <ele>56.370000</ele>
                <time>2014-11-01T08:53:44Z</time>
            </trkpt>
            <trkpt lon="100.991116" lat="14.402087">
                <ele>56.860000</ele>
                <time>2014-11-01T08:53:49Z</time>
            </trkpt>
            <trkpt lon="100.991359" lat="14.401948">
                <ele>58.780000</ele>
                <time>2014-11-01T08:54:07Z</time>
            </trkpt>
            <trkpt lon="100.991632" lat="14.401721">
                <ele>57.340000</ele>
                <time>2014-11-01T08:54:19Z</time>
            </trkpt>
            <trkpt lon="100.991849" lat="14.401508">
                <ele>56.860000</ele>
                <time>2014-11-01T08:54:32Z</time>
            </trkpt>
            <trkpt lon="100.992092" lat="14.401177">
                <ele>54.930000</ele>
                <time>2014-11-01T08:54:45Z</time>
            </trkpt>
            <trkpt lon="100.992324" lat="14.400858">
                <ele>53.010000</ele>
                <time>2014-11-01T08:55:00Z</time>
            </trkpt>
            <trkpt lon="100.992343" lat="14.400571">
                <ele>51.090000</ele>
                <time>2014-11-01T08:55:14Z</time>
            </trkpt>
            <trkpt lon="100.992357" lat="14.400559">
                <ele>51.090000</ele>
                <time>2014-11-01T08:55:18Z</time>
            </trkpt>
            <trkpt lon="100.992466" lat="14.400486">
                <ele>51.090000</ele>
                <time>2014-11-01T08:55:35Z</time>
            </trkpt>
            <trkpt lon="100.992476" lat="14.400478">
                <ele>51.090000</ele>
                <time>2014-11-01T08:55:39Z</time>
            </trkpt>
            <trkpt lon="100.992491" lat="14.400408">
                <ele>49.650000</ele>
                <time>2014-11-01T08:55:46Z</time>
            </trkpt>
            <trkpt lon="100.992495" lat="14.400363">
                <ele>49.160000</ele>
                <time>2014-11-01T08:55:51Z</time>
            </trkpt>
            <trkpt lon="100.992539" lat="14.400211">
                <ele>48.680000</ele>
                <time>2014-11-01T08:56:02Z</time>
            </trkpt>
            <trkpt lon="100.992651" lat="14.400045">
                <ele>48.680000</ele>
                <time>2014-11-01T08:56:15Z</time>
            </trkpt>
            <trkpt lon="100.992636" lat="14.399973">
                <ele>47.720000</ele>
                <time>2014-11-01T08:56:23Z</time>
            </trkpt>
            <trkpt lon="100.992558" lat="14.399836">
                <ele>47.240000</ele>
                <time>2014-11-01T08:56:34Z</time>
            </trkpt>
            <trkpt lon="100.992533" lat="14.399794">
                <ele>47.240000</ele>
                <time>2014-11-01T08:56:38Z</time>
            </trkpt>
            <trkpt lon="100.992512" lat="14.399722">
                <ele>46.760000</ele>
                <time>2014-11-01T08:56:44Z</time>
            </trkpt>
            <trkpt lon="100.992703" lat="14.399503">
                <ele>46.280000</ele>
                <time>2014-11-01T08:57:01Z</time>
            </trkpt>
            <trkpt lon="100.993032" lat="14.399444">
                <ele>45.320000</ele>
                <time>2014-11-01T08:57:18Z</time>
            </trkpt>
            <trkpt lon="100.993358" lat="14.399289">
                <ele>44.840000</ele>
                <time>2014-11-01T08:57:36Z</time>
            </trkpt>
            <trkpt lon="100.993795" lat="14.399146">
                <ele>44.840000</ele>
                <time>2014-11-01T08:57:55Z</time>
            </trkpt>
            <trkpt lon="100.994098" lat="14.399184">
                <ele>44.840000</ele>
                <time>2014-11-01T08:58:12Z</time>
            </trkpt>
            <trkpt lon="100.994378" lat="14.399203">
                <ele>44.360000</ele>
                <time>2014-11-01T08:58:29Z</time>
            </trkpt>
            <trkpt lon="100.994651" lat="14.399293">
                <ele>44.840000</ele>
                <time>2014-11-01T08:58:45Z</time>
            </trkpt>
            <trkpt lon="100.994969" lat="14.399325">
                <ele>44.360000</ele>
                <time>2014-11-01T08:59:02Z</time>
            </trkpt>
            <trkpt lon="100.995342" lat="14.399287">
                <ele>44.840000</ele>
                <time>2014-11-01T08:59:19Z</time>
            </trkpt>
            <trkpt lon="100.995479" lat="14.399475">
                <ele>45.320000</ele>
                <time>2014-11-01T08:59:31Z</time>
            </trkpt>
            <trkpt lon="100.995589" lat="14.399792">
                <ele>45.320000</ele>
                <time>2014-11-01T08:59:46Z</time>
            </trkpt>
            <trkpt lon="100.995810" lat="14.400008">
                <ele>45.800000</ele>
                <time>2014-11-01T09:00:03Z</time>
            </trkpt>
            <trkpt lon="100.995899" lat="14.400244">
                <ele>45.800000</ele>
                <time>2014-11-01T09:00:18Z</time>
            </trkpt>
            <trkpt lon="100.995955" lat="14.400502">
                <ele>46.760000</ele>
                <time>2014-11-01T09:00:36Z</time>
            </trkpt>
            <trkpt lon="100.996135" lat="14.400616">
                <ele>46.760000</ele>
                <time>2014-11-01T09:00:49Z</time>
            </trkpt>
            <trkpt lon="100.996426" lat="14.400615">
                <ele>47.240000</ele>
                <time>2014-11-01T09:01:01Z</time>
            </trkpt>
            <trkpt lon="100.996486" lat="14.400678">
                <ele>46.760000</ele>
                <time>2014-11-01T09:01:05Z</time>
            </trkpt>
            <trkpt lon="100.996716" lat="14.401042">
                <ele>46.760000</ele>
                <time>2014-11-01T09:01:21Z</time>
            </trkpt>
            <trkpt lon="100.996998" lat="14.401418">
                <ele>46.280000</ele>
                <time>2014-11-01T09:01:35Z</time>
            </trkpt>
            <trkpt lon="100.997364" lat="14.401897">
                <ele>46.760000</ele>
                <time>2014-11-01T09:01:52Z</time>
            </trkpt>
            <trkpt lon="100.997541" lat="14.402213">
                <ele>46.760000</ele>
                <time>2014-11-01T09:02:02Z</time>
            </trkpt>
            <trkpt lon="100.997469" lat="14.402326">
                <ele>46.760000</ele>
                <time>2014-11-01T09:02:06Z</time>
            </trkpt>
            <trkpt lon="100.997002" lat="14.402557">
                <ele>47.240000</ele>
                <time>2014-11-01T09:02:22Z</time>
            </trkpt>
            <trkpt lon="100.996966" lat="14.402809">
                <ele>48.200000</ele>
                <time>2014-11-01T09:02:33Z</time>
            </trkpt>
            <trkpt lon="100.996975" lat="14.403266">
                <ele>48.680000</ele>
                <time>2014-11-01T09:02:49Z</time>
            </trkpt>
            <trkpt lon="100.996950" lat="14.403882">
                <ele>48.200000</ele>
                <time>2014-11-01T09:03:08Z</time>
            </trkpt>
            <trkpt lon="100.996786" lat="14.404191">
                <ele>48.200000</ele>
                <time>2014-11-01T09:03:22Z</time>
            </trkpt>
            <trkpt lon="100.996902" lat="14.404380">
                <ele>47.720000</ele>
                <time>2014-11-01T09:03:34Z</time>
            </trkpt>
            <trkpt lon="100.997207" lat="14.404624">
                <ele>47.240000</ele>
                <time>2014-11-01T09:03:49Z</time>
            </trkpt>
            <trkpt lon="100.997296" lat="14.404906">
                <ele>48.680000</ele>
                <time>2014-11-01T09:04:01Z</time>
            </trkpt>
            <trkpt lon="100.997383" lat="14.405347">
                <ele>49.160000</ele>
                <time>2014-11-01T09:04:19Z</time>
            </trkpt>
            <trkpt lon="100.997443" lat="14.405751">
                <ele>50.130000</ele>
                <time>2014-11-01T09:04:35Z</time>
            </trkpt>
            <trkpt lon="100.997511" lat="14.406200">
                <ele>49.650000</ele>
                <time>2014-11-01T09:04:50Z</time>
            </trkpt>
            <trkpt lon="100.997580" lat="14.406738">
                <ele>49.160000</ele>
                <time>2014-11-01T09:05:08Z</time>
            </trkpt>
            <trkpt lon="100.997556" lat="14.406997">
                <ele>48.680000</ele>
                <time>2014-11-01T09:05:21Z</time>
            </trkpt>
            <trkpt lon="100.997599" lat="14.407169">
                <ele>49.650000</ele>
                <time>2014-11-01T09:05:34Z</time>
            </trkpt>
            <trkpt lon="100.997777" lat="14.407393">
                <ele>50.610000</ele>
                <time>2014-11-01T09:05:50Z</time>
            </trkpt>
            <trkpt lon="100.998162" lat="14.407372">
                <ele>51.090000</ele>
                <time>2014-11-01T09:06:06Z</time>
            </trkpt>
            <trkpt lon="100.998605" lat="14.407338">
                <ele>51.570000</ele>
                <time>2014-11-01T09:06:24Z</time>
            </trkpt>
            <trkpt lon="100.999177" lat="14.407256">
                <ele>51.570000</ele>
                <time>2014-11-01T09:06:42Z</time>
            </trkpt>
            <trkpt lon="100.999689" lat="14.407193">
                <ele>51.090000</ele>
                <time>2014-11-01T09:06:55Z</time>
            </trkpt>
            <trkpt lon="101.000429" lat="14.407143">
                <ele>51.090000</ele>
                <time>2014-11-01T09:07:12Z</time>
            </trkpt>
            <trkpt lon="101.000471" lat="14.407148">
                <ele>50.610000</ele>
                <time>2014-11-01T09:07:13Z</time>
            </trkpt>
            <trkpt lon="101.000644" lat="14.407143">
                <ele>50.610000</ele>
                <time>2014-11-01T09:07:17Z</time>
            </trkpt>
            <trkpt lon="101.001359" lat="14.407063">
                <ele>49.650000</ele>
                <time>2014-11-01T09:07:32Z</time>
            </trkpt>
            <trkpt lon="101.001566" lat="14.407037">
                <ele>49.160000</ele>
                <time>2014-11-01T09:07:36Z</time>
            </trkpt>
            <trkpt lon="101.002428" lat="14.406705">
                <ele>48.200000</ele>
                <time>2014-11-01T09:07:53Z</time>
            </trkpt>
            <trkpt lon="101.003119" lat="14.406473">
                <ele>46.760000</ele>
                <time>2014-11-01T09:08:07Z</time>
            </trkpt>
            <trkpt lon="101.003366" lat="14.406540">
                <ele>46.760000</ele>
                <time>2014-11-01T09:08:12Z</time>
            </trkpt>
            <trkpt lon="101.003930" lat="14.406910">
                <ele>46.760000</ele>
                <time>2014-11-01T09:08:28Z</time>
            </trkpt>
            <trkpt lon="101.004371" lat="14.407150">
                <ele>46.760000</ele>
                <time>2014-11-01T09:08:44Z</time>
            </trkpt>
            <trkpt lon="101.004762" lat="14.407349">
                <ele>47.720000</ele>
                <time>2014-11-01T09:09:00Z</time>
            </trkpt>
            <trkpt lon="101.004985" lat="14.407403">
                <ele>49.160000</ele>
                <time>2014-11-01T09:09:13Z</time>
            </trkpt>
            <trkpt lon="101.005256" lat="14.407445">
                <ele>51.090000</ele>
                <time>2014-11-01T09:09:32Z</time>
            </trkpt>
            <trkpt lon="101.005533" lat="14.407470">
                <ele>52.530000</ele>
                <time>2014-11-01T09:09:50Z</time>
            </trkpt>
            <trkpt lon="101.005784" lat="14.407513">
                <ele>53.490000</ele>
                <time>2014-11-01T09:10:09Z</time>
            </trkpt>
            <trkpt lon="101.006071" lat="14.407565">
                <ele>54.930000</ele>
                <time>2014-11-01T09:10:27Z</time>
            </trkpt>
            <trkpt lon="101.006245" lat="14.407780">
                <ele>54.930000</ele>
                <time>2014-11-01T09:10:40Z</time>
            </trkpt>
            <trkpt lon="101.006431" lat="14.408036">
                <ele>55.410000</ele>
                <time>2014-11-01T09:10:56Z</time>
            </trkpt>
            <trkpt lon="101.006626" lat="14.408304">
                <ele>57.340000</ele>
                <time>2014-11-01T09:11:14Z</time>
            </trkpt>
            <trkpt lon="101.006837" lat="14.408591">
                <ele>58.300000</ele>
                <time>2014-11-01T09:11:33Z</time>
            </trkpt>
            <trkpt lon="101.007060" lat="14.408883">
                <ele>59.260000</ele>
                <time>2014-11-01T09:11:53Z</time>
            </trkpt>
            <trkpt lon="101.007254" lat="14.409111">
                <ele>59.260000</ele>
                <time>2014-11-01T09:12:09Z</time>
            </trkpt>
            <trkpt lon="101.007538" lat="14.409503">
                <ele>60.220000</ele>
                <time>2014-11-01T09:12:29Z</time>
            </trkpt>
            <trkpt lon="101.007846" lat="14.409940">
                <ele>61.660000</ele>
                <time>2014-11-01T09:12:52Z</time>
            </trkpt>
            <trkpt lon="101.008053" lat="14.410271">
                <ele>62.620000</ele>
                <time>2014-11-01T09:13:14Z</time>
            </trkpt>
            <trkpt lon="101.008204" lat="14.410547">
                <ele>64.070000</ele>
                <time>2014-11-01T09:13:33Z</time>
            </trkpt>
            <trkpt lon="101.008370" lat="14.410906">
                <ele>65.030000</ele>
                <time>2014-11-01T09:13:54Z</time>
            </trkpt>
            <trkpt lon="101.008512" lat="14.411219">
                <ele>65.510000</ele>
                <time>2014-11-01T09:14:12Z</time>
            </trkpt>
            <trkpt lon="101.008629" lat="14.411473">
                <ele>65.990000</ele>
                <time>2014-11-01T09:14:28Z</time>
            </trkpt>
            <trkpt lon="101.008715" lat="14.411569">
                <ele>66.470000</ele>
                <time>2014-11-01T09:14:35Z</time>
            </trkpt>
            <trkpt lon="101.008812" lat="14.411547">
                <ele>66.470000</ele>
                <time>2014-11-01T09:14:41Z</time>
            </trkpt>
            <trkpt lon="101.009045" lat="14.411327">
                <ele>66.470000</ele>
                <time>2014-11-01T09:14:51Z</time>
            </trkpt>
            <trkpt lon="101.009437" lat="14.411085">
                <ele>64.550000</ele>
                <time>2014-11-01T09:15:02Z</time>
            </trkpt>
            <trkpt lon="101.009496" lat="14.411155">
                <ele>65.510000</ele>
                <time>2014-11-01T09:15:09Z</time>
            </trkpt>
            <trkpt lon="101.009487" lat="14.411248">
                <ele>66.950000</ele>
                <time>2014-11-01T09:15:22Z</time>
            </trkpt>
            <trkpt lon="101.009446" lat="14.411410">
                <ele>69.830000</ele>
                <time>2014-11-01T09:15:41Z</time>
            </trkpt>
            <trkpt lon="101.009414" lat="14.411530">
                <ele>71.270000</ele>
                <time>2014-11-01T09:15:55Z</time>
            </trkpt>
            <trkpt lon="101.009387" lat="14.411634">
                <ele>72.720000</ele>
                <time>2014-11-01T09:16:10Z</time>
            </trkpt>
            <trkpt lon="101.009408" lat="14.411731">
                <ele>74.160000</ele>
                <time>2014-11-01T09:16:25Z</time>
            </trkpt>
            <trkpt lon="101.009441" lat="14.411874">
                <ele>75.120000</ele>
                <time>2014-11-01T09:16:42Z</time>
            </trkpt>
            <trkpt lon="101.009446" lat="14.411945">
                <ele>76.080000</ele>
                <time>2014-11-01T09:16:50Z</time>
            </trkpt>
            <trkpt lon="101.009395" lat="14.412182">
                <ele>77.040000</ele>
                <time>2014-11-01T09:17:07Z</time>
            </trkpt>
            <trkpt lon="101.009343" lat="14.412246">
                <ele>77.520000</ele>
                <time>2014-11-01T09:17:12Z</time>
            </trkpt>
            <trkpt lon="101.009318" lat="14.412272">
                <ele>77.520000</ele>
                <time>2014-11-01T09:17:14Z</time>
            </trkpt>
            <trkpt lon="101.009180" lat="14.412390">
                <ele>78.000000</ele>
                <time>2014-11-01T09:17:23Z</time>
            </trkpt>
            <trkpt lon="101.009115" lat="14.412469">
                <ele>78.000000</ele>
                <time>2014-11-01T09:17:29Z</time>
            </trkpt>
            <trkpt lon="101.009030" lat="14.412521">
                <ele>78.970000</ele>
                <time>2014-11-01T09:17:34Z</time>
            </trkpt>
            <trkpt lon="101.008909" lat="14.412623">
                <ele>78.970000</ele>
                <time>2014-11-01T09:17:43Z</time>
            </trkpt>
            <trkpt lon="101.008652" lat="14.412818">
                <ele>78.970000</ele>
                <time>2014-11-01T09:17:59Z</time>
            </trkpt>
            <trkpt lon="101.008407" lat="14.413120">
                <ele>79.930000</ele>
                <time>2014-11-01T09:18:18Z</time>
            </trkpt>
            <trkpt lon="101.008331" lat="14.413307">
                <ele>80.410000</ele>
                <time>2014-11-01T09:18:28Z</time>
            </trkpt>
            <trkpt lon="101.008214" lat="14.413497">
                <ele>83.770000</ele>
                <time>2014-11-01T09:18:43Z</time>
            </trkpt>
            <trkpt lon="101.008190" lat="14.413640">
                <ele>86.660000</ele>
                <time>2014-11-01T09:18:54Z</time>
            </trkpt>
            <trkpt lon="101.008062" lat="14.413810">
                <ele>88.100000</ele>
                <time>2014-11-01T09:19:11Z</time>
            </trkpt>
            <trkpt lon="101.007996" lat="14.414005">
                <ele>90.020000</ele>
                <time>2014-11-01T09:19:29Z</time>
            </trkpt>
            <trkpt lon="101.007897" lat="14.414167">
                <ele>92.420000</ele>
                <time>2014-11-01T09:19:48Z</time>
            </trkpt>
            <trkpt lon="101.007765" lat="14.414331">
                <ele>93.870000</ele>
                <time>2014-11-01T09:20:04Z</time>
            </trkpt>
            <trkpt lon="101.007655" lat="14.414424">
                <ele>94.830000</ele>
                <time>2014-11-01T09:20:19Z</time>
            </trkpt>
            <trkpt lon="101.007520" lat="14.414495">
                <ele>95.790000</ele>
                <time>2014-11-01T09:20:36Z</time>
            </trkpt>
            <trkpt lon="101.007325" lat="14.414567">
                <ele>97.710000</ele>
                <time>2014-11-01T09:20:55Z</time>
            </trkpt>
            <trkpt lon="101.007243" lat="14.414626">
                <ele>99.630000</ele>
                <time>2014-11-01T09:21:14Z</time>
            </trkpt>
            <trkpt lon="101.007167" lat="14.414671">
                <ele>101.080000</ele>
                <time>2014-11-01T09:21:30Z</time>
            </trkpt>
            <trkpt lon="101.007079" lat="14.414728">
                <ele>102.040000</ele>
                <time>2014-11-01T09:21:46Z</time>
            </trkpt>
            <trkpt lon="101.006999" lat="14.414785">
                <ele>103.480000</ele>
                <time>2014-11-01T09:22:01Z</time>
            </trkpt>
            <trkpt lon="101.006921" lat="14.414830">
                <ele>105.400000</ele>
                <time>2014-11-01T09:22:18Z</time>
            </trkpt>
            <trkpt lon="101.006923" lat="14.414795">
                <ele>105.880000</ele>
                <time>2014-11-01T09:22:40Z</time>
            </trkpt>
            <trkpt lon="101.006876" lat="14.414843">
                <ele>106.360000</ele>
                <time>2014-11-01T09:22:54Z</time>
            </trkpt>
            <trkpt lon="101.006813" lat="14.414894">
                <ele>109.730000</ele>
                <time>2014-11-01T09:23:07Z</time>
            </trkpt>
            <trkpt lon="101.006784" lat="14.414927">
                <ele>110.210000</ele>
                <time>2014-11-01T09:23:24Z</time>
            </trkpt>
            <trkpt lon="101.006725" lat="14.414954">
                <ele>112.610000</ele>
                <time>2014-11-01T09:23:40Z</time>
            </trkpt>
            <trkpt lon="101.006613" lat="14.414988">
                <ele>115.500000</ele>
                <time>2014-11-01T09:23:58Z</time>
            </trkpt>
            <trkpt lon="101.006549" lat="14.415028">
                <ele>116.940000</ele>
                <time>2014-11-01T09:24:12Z</time>
            </trkpt>
            <trkpt lon="101.006334" lat="14.415068">
                <ele>119.340000</ele>
                <time>2014-11-01T09:24:29Z</time>
            </trkpt>
            <trkpt lon="101.006254" lat="14.415115">
                <ele>120.780000</ele>
                <time>2014-11-01T09:24:46Z</time>
            </trkpt>
            <trkpt lon="101.006174" lat="14.415168">
                <ele>122.710000</ele>
                <time>2014-11-01T09:25:03Z</time>
            </trkpt>
            <trkpt lon="101.006152" lat="14.415185">
                <ele>124.150000</ele>
                <time>2014-11-01T09:25:24Z</time>
            </trkpt>
            <trkpt lon="101.006123" lat="14.415250">
                <ele>125.590000</ele>
                <time>2014-11-01T09:25:44Z</time>
            </trkpt>
            <trkpt lon="101.006024" lat="14.415349">
                <ele>127.510000</ele>
                <time>2014-11-01T09:26:04Z</time>
            </trkpt>
            <trkpt lon="101.005968" lat="14.415475">
                <ele>129.920000</ele>
                <time>2014-11-01T09:26:22Z</time>
            </trkpt>
            <trkpt lon="101.005947" lat="14.415510">
                <ele>130.880000</ele>
                <time>2014-11-01T09:26:36Z</time>
            </trkpt>
            <trkpt lon="101.005920" lat="14.415627">
                <ele>132.800000</ele>
                <time>2014-11-01T09:26:53Z</time>
            </trkpt>
            <trkpt lon="101.005937" lat="14.415767">
                <ele>134.240000</ele>
                <time>2014-11-01T09:27:09Z</time>
            </trkpt>
            <trkpt lon="101.006061" lat="14.415837">
                <ele>134.240000</ele>
                <time>2014-11-01T09:27:45Z</time>
            </trkpt>
            <trkpt lon="101.006035" lat="14.415840">
                <ele>134.720000</ele>
                <time>2014-11-01T09:28:28Z</time>
            </trkpt>
            <trkpt lon="101.005988" lat="14.415821">
                <ele>135.680000</ele>
                <time>2014-11-01T09:29:09Z</time>
            </trkpt>
            <trkpt lon="101.006015" lat="14.415832">
                <ele>135.680000</ele>
                <time>2014-11-01T09:29:47Z</time>
            </trkpt>
            <trkpt lon="101.005983" lat="14.415820">
                <ele>135.680000</ele>
                <time>2014-11-01T09:30:18Z</time>
            </trkpt>
            <trkpt lon="101.005983" lat="14.415835">
                <ele>135.680000</ele>
                <time>2014-11-01T09:30:57Z</time>
            </trkpt>
            <trkpt lon="101.006024" lat="14.415809">
                <ele>136.160000</ele>
                <time>2014-11-01T09:31:30Z</time>
            </trkpt>
            <trkpt lon="101.005982" lat="14.415829">
                <ele>136.640000</ele>
                <time>2014-11-01T09:31:46Z</time>
            </trkpt>
            <trkpt lon="101.005957" lat="14.415885">
                <ele>136.640000</ele>
                <time>2014-11-01T09:31:53Z</time>
            </trkpt>
            <trkpt lon="101.006041" lat="14.416138">
                <ele>134.240000</ele>
                <time>2014-11-01T09:32:08Z</time>
            </trkpt>
            <trkpt lon="101.006033" lat="14.416388">
                <ele>131.360000</ele>
                <time>2014-11-01T09:32:15Z</time>
            </trkpt>
            <trkpt lon="101.005975" lat="14.416509">
                <ele>129.920000</ele>
                <time>2014-11-01T09:32:19Z</time>
            </trkpt>
            <trkpt lon="101.005942" lat="14.416699">
                <ele>126.070000</ele>
                <time>2014-11-01T09:32:27Z</time>
            </trkpt>
            <trkpt lon="101.005939" lat="14.416721">
                <ele>125.590000</ele>
                <time>2014-11-01T09:32:28Z</time>
            </trkpt>
            <trkpt lon="101.005941" lat="14.416739">
                <ele>125.110000</ele>
                <time>2014-11-01T09:32:29Z</time>
            </trkpt>
            <trkpt lon="101.005941" lat="14.416759">
                <ele>125.110000</ele>
                <time>2014-11-01T09:32:30Z</time>
            </trkpt>
            <trkpt lon="101.005899" lat="14.416937">
                <ele>121.740000</ele>
                <time>2014-11-01T09:32:36Z</time>
            </trkpt>
            <trkpt lon="101.005904" lat="14.417139">
                <ele>118.860000</ele>
                <time>2014-11-01T09:32:43Z</time>
            </trkpt>
            <trkpt lon="101.005874" lat="14.417254">
                <ele>117.420000</ele>
                <time>2014-11-01T09:32:46Z</time>
            </trkpt>
            <trkpt lon="101.005873" lat="14.417596">
                <ele>114.050000</ele>
                <time>2014-11-01T09:32:56Z</time>
            </trkpt>
            <trkpt lon="101.005940" lat="14.417710">
                <ele>112.610000</ele>
                <time>2014-11-01T09:33:00Z</time>
            </trkpt>
            <trkpt lon="101.006040" lat="14.417967">
                <ele>109.250000</ele>
                <time>2014-11-01T09:33:07Z</time>
            </trkpt>
            <trkpt lon="101.006226" lat="14.418294">
                <ele>106.360000</ele>
                <time>2014-11-01T09:33:16Z</time>
            </trkpt>
            <trkpt lon="101.006422" lat="14.418610">
                <ele>103.000000</ele>
                <time>2014-11-01T09:33:26Z</time>
            </trkpt>
            <trkpt lon="101.006457" lat="14.418684">
                <ele>102.040000</ele>
                <time>2014-11-01T09:33:28Z</time>
            </trkpt>
            <trkpt lon="101.006532" lat="14.418828">
                <ele>101.080000</ele>
                <time>2014-11-01T09:33:32Z</time>
            </trkpt>
            <trkpt lon="101.006697" lat="14.419072">
                <ele>97.710000</ele>
                <time>2014-11-01T09:33:39Z</time>
            </trkpt>
            <trkpt lon="101.006777" lat="14.419201">
                <ele>96.270000</ele>
                <time>2014-11-01T09:33:43Z</time>
            </trkpt>
            <trkpt lon="101.006830" lat="14.419290">
                <ele>94.830000</ele>
                <time>2014-11-01T09:33:46Z</time>
            </trkpt>
            <trkpt lon="101.007122" lat="14.419764">
                <ele>92.900000</ele>
                <time>2014-11-01T09:33:59Z</time>
            </trkpt>
            <trkpt lon="101.007237" lat="14.419880">
                <ele>90.980000</ele>
                <time>2014-11-01T09:34:03Z</time>
            </trkpt>
            <trkpt lon="101.007629" lat="14.420054">
                <ele>88.580000</ele>
                <time>2014-11-01T09:34:14Z</time>
            </trkpt>
            <trkpt lon="101.007947" lat="14.420179">
                <ele>89.540000</ele>
                <time>2014-11-01T09:34:26Z</time>
            </trkpt>
            <trkpt lon="101.008196" lat="14.420380">
                <ele>90.020000</ele>
                <time>2014-11-01T09:34:38Z</time>
            </trkpt>
            <trkpt lon="101.008225" lat="14.420799">
                <ele>88.100000</ele>
                <time>2014-11-01T09:34:49Z</time>
            </trkpt>
            <trkpt lon="101.008185" lat="14.421433">
                <ele>86.180000</ele>
                <time>2014-11-01T09:35:02Z</time>
            </trkpt>
            <trkpt lon="101.008162" lat="14.421743">
                <ele>85.690000</ele>
                <time>2014-11-01T09:35:08Z</time>
            </trkpt>
            <trkpt lon="101.008107" lat="14.422177">
                <ele>84.250000</ele>
                <time>2014-11-01T09:35:16Z</time>
            </trkpt>
            <trkpt lon="101.008099" lat="14.422231">
                <ele>84.250000</ele>
                <time>2014-11-01T09:35:17Z</time>
            </trkpt>
            <trkpt lon="101.008061" lat="14.422404">
                <ele>84.250000</ele>
                <time>2014-11-01T09:35:20Z</time>
            </trkpt>
            <trkpt lon="101.008109" lat="14.422766">
                <ele>82.330000</ele>
                <time>2014-11-01T09:35:27Z</time>
            </trkpt>
            <trkpt lon="101.008126" lat="14.422818">
                <ele>82.330000</ele>
                <time>2014-11-01T09:35:28Z</time>
            </trkpt>
            <trkpt lon="101.008353" lat="14.423473">
                <ele>79.930000</ele>
                <time>2014-11-01T09:35:40Z</time>
            </trkpt>
            <trkpt lon="101.008424" lat="14.423850">
                <ele>79.450000</ele>
                <time>2014-11-01T09:35:49Z</time>
            </trkpt>
            <trkpt lon="101.008459" lat="14.424264">
                <ele>78.480000</ele>
                <time>2014-11-01T09:36:02Z</time>
            </trkpt>
            <trkpt lon="101.008473" lat="14.424640">
                <ele>78.480000</ele>
                <time>2014-11-01T09:36:12Z</time>
            </trkpt>
            <trkpt lon="101.008556" lat="14.425116">
                <ele>78.970000</ele>
                <time>2014-11-01T09:36:27Z</time>
            </trkpt>
            <trkpt lon="101.008465" lat="14.425545">
                <ele>78.480000</ele>
                <time>2014-11-01T09:36:39Z</time>
            </trkpt>
            <trkpt lon="101.008409" lat="14.426016">
                <ele>76.560000</ele>
                <time>2014-11-01T09:36:51Z</time>
            </trkpt>
            <trkpt lon="101.008394" lat="14.426167">
                <ele>76.560000</ele>
                <time>2014-11-01T09:36:54Z</time>
            </trkpt>
            <trkpt lon="101.008253" lat="14.426657">
                <ele>75.600000</ele>
                <time>2014-11-01T09:37:05Z</time>
            </trkpt>
            <trkpt lon="101.008052" lat="14.427078">
                <ele>75.120000</ele>
                <time>2014-11-01T09:37:16Z</time>
            </trkpt>
            <trkpt lon="101.007871" lat="14.427238">
                <ele>74.640000</ele>
                <time>2014-11-01T09:37:26Z</time>
            </trkpt>
            <trkpt lon="101.007824" lat="14.427291">
                <ele>74.640000</ele>
                <time>2014-11-01T09:37:43Z</time>
            </trkpt>
            <trkpt lon="101.007625" lat="14.427516">
                <ele>74.640000</ele>
                <time>2014-11-01T09:37:58Z</time>
            </trkpt>
            <trkpt lon="101.007351" lat="14.427830">
                <ele>74.160000</ele>
                <time>2014-11-01T09:38:11Z</time>
            </trkpt>
            <trkpt lon="101.007019" lat="14.428195">
                <ele>74.640000</ele>
                <time>2014-11-01T09:38:25Z</time>
            </trkpt>
            <trkpt lon="101.006665" lat="14.428555">
                <ele>75.600000</ele>
                <time>2014-11-01T09:38:39Z</time>
            </trkpt>
            <trkpt lon="101.006473" lat="14.428864">
                <ele>77.040000</ele>
                <time>2014-11-01T09:38:56Z</time>
            </trkpt>
            <trkpt lon="101.006351" lat="14.429315">
                <ele>77.520000</ele>
                <time>2014-11-01T09:39:13Z</time>
            </trkpt>
            <trkpt lon="101.006221" lat="14.429810">
                <ele>77.520000</ele>
                <time>2014-11-01T09:39:28Z</time>
            </trkpt>
            <trkpt lon="101.006075" lat="14.430500">
                <ele>75.600000</ele>
                <time>2014-11-01T09:39:43Z</time>
            </trkpt>
            <trkpt lon="101.006041" lat="14.430859">
                <ele>73.200000</ele>
                <time>2014-11-01T09:39:50Z</time>
            </trkpt>
            <trkpt lon="101.006024" lat="14.431000">
                <ele>73.680000</ele>
                <time>2014-11-01T09:39:53Z</time>
            </trkpt>
            <trkpt lon="101.005972" lat="14.431434">
                <ele>72.720000</ele>
                <time>2014-11-01T09:40:06Z</time>
            </trkpt>
            <trkpt lon="101.005962" lat="14.431817">
                <ele>72.240000</ele>
                <time>2014-11-01T09:40:17Z</time>
            </trkpt>
            <trkpt lon="101.005912" lat="14.432272">
                <ele>73.200000</ele>
                <time>2014-11-01T09:40:33Z</time>
            </trkpt>
            <trkpt lon="101.005874" lat="14.432979">
                <ele>72.720000</ele>
                <time>2014-11-01T09:40:51Z</time>
            </trkpt>
            <trkpt lon="101.005856" lat="14.433109">
                <ele>72.720000</ele>
                <time>2014-11-01T09:40:54Z</time>
            </trkpt>
            <trkpt lon="101.005857" lat="14.433151">
                <ele>72.240000</ele>
                <time>2014-11-01T09:40:55Z</time>
            </trkpt>
            <trkpt lon="101.005848" lat="14.433485">
                <ele>71.270000</ele>
                <time>2014-11-01T09:41:06Z</time>
            </trkpt>
            <trkpt lon="101.005862" lat="14.433829">
                <ele>71.760000</ele>
                <time>2014-11-01T09:41:17Z</time>
            </trkpt>
            <trkpt lon="101.005758" lat="14.434509">
                <ele>71.270000</ele>
                <time>2014-11-01T09:41:32Z</time>
            </trkpt>
            <trkpt lon="101.005541" lat="14.435392">
                <ele>70.310000</ele>
                <time>2014-11-01T09:41:50Z</time>
            </trkpt>
            <trkpt lon="101.005219" lat="14.436146">
                <ele>69.830000</ele>
                <time>2014-11-01T09:42:06Z</time>
            </trkpt>
            <trkpt lon="101.004957" lat="14.436719">
                <ele>69.830000</ele>
                <time>2014-11-01T09:42:19Z</time>
            </trkpt>
            <trkpt lon="101.004673" lat="14.437393">
                <ele>69.350000</ele>
                <time>2014-11-01T09:42:35Z</time>
            </trkpt>
            <trkpt lon="101.004489" lat="14.437885">
                <ele>68.390000</ele>
                <time>2014-11-01T09:42:45Z</time>
            </trkpt>
            <trkpt lon="101.004457" lat="14.437929">
                <ele>68.390000</ele>
                <time>2014-11-01T09:42:46Z</time>
            </trkpt>
            <trkpt lon="101.004419" lat="14.437969">
                <ele>67.910000</ele>
                <time>2014-11-01T09:42:47Z</time>
            </trkpt>
            <trkpt lon="101.004375" lat="14.438004">
                <ele>67.430000</ele>
                <time>2014-11-01T09:42:48Z</time>
            </trkpt>
            <trkpt lon="101.004326" lat="14.438036">
                <ele>67.910000</ele>
                <time>2014-11-01T09:42:49Z</time>
            </trkpt>
            <trkpt lon="101.004129" lat="14.438160">
                <ele>67.910000</ele>
                <time>2014-11-01T09:42:53Z</time>
            </trkpt>
            <trkpt lon="101.004088" lat="14.438200">
                <ele>67.430000</ele>
                <time>2014-11-01T09:42:54Z</time>
            </trkpt>
            <trkpt lon="101.004054" lat="14.438246">
                <ele>67.430000</ele>
                <time>2014-11-01T09:42:55Z</time>
            </trkpt>
            <trkpt lon="101.004028" lat="14.438298">
                <ele>67.430000</ele>
                <time>2014-11-01T09:42:56Z</time>
            </trkpt>
            <trkpt lon="101.004006" lat="14.438351">
                <ele>67.430000</ele>
                <time>2014-11-01T09:42:57Z</time>
            </trkpt>
            <trkpt lon="101.003990" lat="14.438404">
                <ele>66.950000</ele>
                <time>2014-11-01T09:42:58Z</time>
            </trkpt>
            <trkpt lon="101.003977" lat="14.438457">
                <ele>66.950000</ele>
                <time>2014-11-01T09:42:59Z</time>
            </trkpt>
            <trkpt lon="101.003969" lat="14.438510">
                <ele>66.950000</ele>
                <time>2014-11-01T09:43:00Z</time>
            </trkpt>
            <trkpt lon="101.003961" lat="14.438562">
                <ele>66.950000</ele>
                <time>2014-11-01T09:43:01Z</time>
            </trkpt>
            <trkpt lon="101.003921" lat="14.438760">
                <ele>66.950000</ele>
                <time>2014-11-01T09:43:05Z</time>
            </trkpt>
            <trkpt lon="101.003903" lat="14.438802">
                <ele>66.950000</ele>
                <time>2014-11-01T09:43:06Z</time>
            </trkpt>
            <trkpt lon="101.003878" lat="14.438837">
                <ele>66.950000</ele>
                <time>2014-11-01T09:43:07Z</time>
            </trkpt>
            <trkpt lon="101.003844" lat="14.438863">
                <ele>67.430000</ele>
                <time>2014-11-01T09:43:08Z</time>
            </trkpt>
            <trkpt lon="101.003802" lat="14.438880">
                <ele>66.950000</ele>
                <time>2014-11-01T09:43:09Z</time>
            </trkpt>
            <trkpt lon="101.003757" lat="14.438887">
                <ele>66.950000</ele>
                <time>2014-11-01T09:43:10Z</time>
            </trkpt>
            <trkpt lon="101.003708" lat="14.438881">
                <ele>66.950000</ele>
                <time>2014-11-01T09:43:11Z</time>
            </trkpt>
            <trkpt lon="101.003662" lat="14.438862">
                <ele>66.470000</ele>
                <time>2014-11-01T09:43:12Z</time>
            </trkpt>
            <trkpt lon="101.003625" lat="14.438833">
                <ele>65.990000</ele>
                <time>2014-11-01T09:43:13Z</time>
            </trkpt>
            <trkpt lon="101.003600" lat="14.438794">
                <ele>66.950000</ele>
                <time>2014-11-01T09:43:14Z</time>
            </trkpt>
            <trkpt lon="101.003582" lat="14.438751">
                <ele>66.950000</ele>
                <time>2014-11-01T09:43:15Z</time>
            </trkpt>
            <trkpt lon="101.003570" lat="14.438705">
                <ele>65.990000</ele>
                <time>2014-11-01T09:43:16Z</time>
            </trkpt>
            <trkpt lon="101.003504" lat="14.438607">
                <ele>66.470000</ele>
                <time>2014-11-01T09:43:19Z</time>
            </trkpt>
            <trkpt lon="101.003463" lat="14.438601">
                <ele>66.470000</ele>
                <time>2014-11-01T09:43:20Z</time>
            </trkpt>
            <trkpt lon="101.003424" lat="14.438609">
                <ele>66.470000</ele>
                <time>2014-11-01T09:43:21Z</time>
            </trkpt>
            <trkpt lon="101.003386" lat="14.438622">
                <ele>66.470000</ele>
                <time>2014-11-01T09:43:22Z</time>
            </trkpt>
            <trkpt lon="101.003349" lat="14.438641">
                <ele>65.990000</ele>
                <time>2014-11-01T09:43:23Z</time>
            </trkpt>
            <trkpt lon="101.003312" lat="14.438662">
                <ele>66.470000</ele>
                <time>2014-11-01T09:43:24Z</time>
            </trkpt>
            <trkpt lon="101.003277" lat="14.438686">
                <ele>66.470000</ele>
                <time>2014-11-01T09:43:25Z</time>
            </trkpt>
            <trkpt lon="101.003243" lat="14.438711">
                <ele>65.990000</ele>
                <time>2014-11-01T09:43:26Z</time>
            </trkpt>
            <trkpt lon="101.003207" lat="14.438733">
                <ele>66.470000</ele>
                <time>2014-11-01T09:43:27Z</time>
            </trkpt>
            <trkpt lon="101.002438" lat="14.439171">
                <ele>66.950000</ele>
                <time>2014-11-01T09:43:46Z</time>
            </trkpt>
            <trkpt lon="101.001835" lat="14.439537">
                <ele>66.470000</ele>
                <time>2014-11-01T09:44:01Z</time>
            </trkpt>
            <trkpt lon="101.001179" lat="14.439938">
                <ele>67.430000</ele>
                <time>2014-11-01T09:44:17Z</time>
            </trkpt>
            <trkpt lon="101.000586" lat="14.440279">
                <ele>66.950000</ele>
                <time>2014-11-01T09:44:33Z</time>
            </trkpt>
            <trkpt lon="100.999950" lat="14.440635">
                <ele>68.390000</ele>
                <time>2014-11-01T09:44:51Z</time>
            </trkpt>
            <trkpt lon="100.999571" lat="14.440855">
                <ele>69.350000</ele>
                <time>2014-11-01T09:45:02Z</time>
            </trkpt>
            <trkpt lon="100.998974" lat="14.441201">
                <ele>68.870000</ele>
                <time>2014-11-01T09:45:20Z</time>
            </trkpt>
            <trkpt lon="100.998541" lat="14.441458">
                <ele>69.350000</ele>
                <time>2014-11-01T09:45:36Z</time>
            </trkpt>
            <trkpt lon="100.998083" lat="14.441729">
                <ele>70.310000</ele>
                <time>2014-11-01T09:45:51Z</time>
            </trkpt>
            <trkpt lon="100.997595" lat="14.441999">
                <ele>70.790000</ele>
                <time>2014-11-01T09:46:08Z</time>
            </trkpt>
            <trkpt lon="100.997207" lat="14.442208">
                <ele>70.790000</ele>
                <time>2014-11-01T09:46:21Z</time>
            </trkpt>
            <trkpt lon="100.996584" lat="14.442547">
                <ele>70.790000</ele>
                <time>2014-11-01T09:46:40Z</time>
            </trkpt>
            <trkpt lon="100.996474" lat="14.442602">
                <ele>70.790000</ele>
                <time>2014-11-01T09:46:43Z</time>
            </trkpt>
            <trkpt lon="100.995844" lat="14.442951">
                <ele>69.350000</ele>
                <time>2014-11-01T09:47:00Z</time>
            </trkpt>
            <trkpt lon="100.995773" lat="14.443001">
                <ele>68.870000</ele>
                <time>2014-11-01T09:47:02Z</time>
            </trkpt>
            <trkpt lon="100.995746" lat="14.443032">
                <ele>69.350000</ele>
                <time>2014-11-01T09:47:03Z</time>
            </trkpt>
            <trkpt lon="100.995730" lat="14.443070">
                <ele>69.350000</ele>
                <time>2014-11-01T09:47:04Z</time>
            </trkpt>
            <trkpt lon="100.995730" lat="14.443111">
                <ele>68.870000</ele>
                <time>2014-11-01T09:47:05Z</time>
            </trkpt>
            <trkpt lon="100.995741" lat="14.443153">
                <ele>68.870000</ele>
                <time>2014-11-01T09:47:06Z</time>
            </trkpt>
            <trkpt lon="100.995758" lat="14.443195">
                <ele>68.870000</ele>
                <time>2014-11-01T09:47:07Z</time>
            </trkpt>
            <trkpt lon="100.995777" lat="14.443236">
                <ele>68.390000</ele>
                <time>2014-11-01T09:47:08Z</time>
            </trkpt>
            <trkpt lon="100.995841" lat="14.443408">
                <ele>68.390000</ele>
                <time>2014-11-01T09:47:12Z</time>
            </trkpt>
            <trkpt lon="100.996101" lat="14.444099">
                <ele>67.910000</ele>
                <time>2014-11-01T09:47:28Z</time>
            </trkpt>
            <trkpt lon="100.996270" lat="14.444560">
                <ele>67.430000</ele>
                <time>2014-11-01T09:47:41Z</time>
            </trkpt>
            <trkpt lon="100.996315" lat="14.444667">
                <ele>67.430000</ele>
                <time>2014-11-01T09:47:45Z</time>
            </trkpt>
            <trkpt lon="100.996328" lat="14.444677">
                <ele>67.430000</ele>
                <time>2014-11-01T09:47:46Z</time>
            </trkpt>
            <trkpt lon="100.996376" lat="14.444714">
                <ele>66.950000</ele>
                <time>2014-11-01T09:47:59Z</time>
            </trkpt>
            <trkpt lon="100.996388" lat="14.444719">
                <ele>67.910000</ele>
                <time>2014-11-01T09:48:18Z</time>
            </trkpt>
            <trkpt lon="100.996376" lat="14.444700">
                <ele>66.950000</ele>
                <time>2014-11-01T09:48:41Z</time>
            </trkpt>
            <trkpt lon="100.996389" lat="14.444718">
                <ele>66.950000</ele>
                <time>2014-11-01T09:48:53Z</time>
            </trkpt>
            <trkpt lon="100.996416" lat="14.444715">
                <ele>66.950000</ele>
                <time>2014-11-01T09:49:06Z</time>
            </trkpt>
            <trkpt lon="100.996421" lat="14.444698">
                <ele>66.950000</ele>
                <time>2014-11-01T09:49:22Z</time>
            </trkpt>
            <trkpt lon="100.996437" lat="14.444700">
                <ele>66.950000</ele>
                <time>2014-11-01T09:49:40Z</time>
            </trkpt>
            <trkpt lon="100.996414" lat="14.444719">
                <ele>65.510000</ele>
                <time>2014-11-01T09:49:52Z</time>
            </trkpt>
            <trkpt lon="100.996421" lat="14.444747">
                <ele>65.990000</ele>
                <time>2014-11-01T09:50:35Z</time>
            </trkpt>
            <trkpt lon="100.996457" lat="14.444742">
                <ele>65.510000</ele>
                <time>2014-11-01T09:51:19Z</time>
            </trkpt>
            <trkpt lon="100.996432" lat="14.444757">
                <ele>65.990000</ele>
                <time>2014-11-01T09:51:59Z</time>
            </trkpt>
            <trkpt lon="100.996443" lat="14.444741">
                <ele>65.510000</ele>
                <time>2014-11-01T09:52:44Z</time>
            </trkpt>
            <trkpt lon="100.996429" lat="14.444807">
                <ele>65.510000</ele>
                <time>2014-11-01T09:53:21Z</time>
            </trkpt>
            <trkpt lon="100.996397" lat="14.444754">
                <ele>65.510000</ele>
                <time>2014-11-01T09:53:43Z</time>
            </trkpt>
            <trkpt lon="100.996393" lat="14.444760">
                <ele>66.470000</ele>
                <time>2014-11-01T09:54:02Z</time>
            </trkpt>
            <trkpt lon="100.996377" lat="14.444764">
                <ele>65.510000</ele>
                <time>2014-11-01T09:54:17Z</time>
            </trkpt>
            <trkpt lon="100.996378" lat="14.444774">
                <ele>66.470000</ele>
                <time>2014-11-01T09:54:37Z</time>
            </trkpt>
            <trkpt lon="100.996375" lat="14.444772">
                <ele>65.990000</ele>
                <time>2014-11-01T09:54:52Z</time>
            </trkpt>
            <trkpt lon="100.996369" lat="14.444767">
                <ele>66.470000</ele>
                <time>2014-11-01T09:55:01Z</time>
            </trkpt>
            <trkpt lon="100.996357" lat="14.444771">
                <ele>65.990000</ele>
                <time>2014-11-01T09:55:02Z</time>
            </trkpt>
            <trkpt lon="100.996345" lat="14.444776">
                <ele>65.990000</ele>
                <time>2014-11-01T09:55:03Z</time>
            </trkpt>
            <trkpt lon="100.996343" lat="14.444786">
                <ele>66.950000</ele>
                <time>2014-11-01T09:55:04Z</time>
            </trkpt>
            <trkpt lon="100.996348" lat="14.444804">
                <ele>66.470000</ele>
                <time>2014-11-01T09:55:05Z</time>
            </trkpt>
            <trkpt lon="100.996357" lat="14.444823">
                <ele>65.990000</ele>
                <time>2014-11-01T09:55:06Z</time>
            </trkpt>
            <trkpt lon="100.996368" lat="14.444842">
                <ele>66.470000</ele>
                <time>2014-11-01T09:55:07Z</time>
            </trkpt>
            <trkpt lon="100.996377" lat="14.444864">
                <ele>66.470000</ele>
                <time>2014-11-01T09:55:08Z</time>
            </trkpt>
            <trkpt lon="100.996381" lat="14.444891">
                <ele>66.470000</ele>
                <time>2014-11-01T09:55:09Z</time>
            </trkpt>
            <trkpt lon="100.996387" lat="14.444919">
                <ele>65.990000</ele>
                <time>2014-11-01T09:55:10Z</time>
            </trkpt>
            <trkpt lon="100.996397" lat="14.444950">
                <ele>65.990000</ele>
                <time>2014-11-01T09:55:11Z</time>
            </trkpt>
            <trkpt lon="100.996564" lat="14.445563">
                <ele>67.430000</ele>
                <time>2014-11-01T09:55:29Z</time>
            </trkpt>
            <trkpt lon="100.996676" lat="14.446128">
                <ele>67.910000</ele>
                <time>2014-11-01T09:55:45Z</time>
            </trkpt>
            <trkpt lon="100.996684" lat="14.446181">
                <ele>67.910000</ele>
                <time>2014-11-01T09:55:46Z</time>
            </trkpt>
            <trkpt lon="100.996688" lat="14.446232">
                <ele>67.910000</ele>
                <time>2014-11-01T09:55:47Z</time>
            </trkpt>
            <trkpt lon="100.996699" lat="14.446285">
                <ele>67.430000</ele>
                <time>2014-11-01T09:55:48Z</time>
            </trkpt>
            <trkpt lon="100.996875" lat="14.447237">
                <ele>65.510000</ele>
                <time>2014-11-01T09:56:04Z</time>
            </trkpt>
            <trkpt lon="100.997009" lat="14.447966">
                <ele>64.550000</ele>
                <time>2014-11-01T09:56:16Z</time>
            </trkpt>
            <trkpt lon="100.997036" lat="14.448131">
                <ele>64.070000</ele>
                <time>2014-11-01T09:56:19Z</time>
            </trkpt>
            <trkpt lon="100.997039" lat="14.448178">
                <ele>64.070000</ele>
                <time>2014-11-01T09:56:20Z</time>
            </trkpt>
            <trkpt lon="100.997032" lat="14.448216">
                <ele>64.070000</ele>
                <time>2014-11-01T09:56:21Z</time>
            </trkpt>
            <trkpt lon="100.997010" lat="14.448243">
                <ele>64.070000</ele>
                <time>2014-11-01T09:56:22Z</time>
            </trkpt>
            <trkpt lon="100.996971" lat="14.448256">
                <ele>64.070000</ele>
                <time>2014-11-01T09:56:23Z</time>
            </trkpt>
            <trkpt lon="100.996931" lat="14.448254">
                <ele>64.070000</ele>
                <time>2014-11-01T09:56:24Z</time>
            </trkpt>
            <trkpt lon="100.996892" lat="14.448244">
                <ele>64.070000</ele>
                <time>2014-11-01T09:56:25Z</time>
            </trkpt>
            <trkpt lon="100.996187" lat="14.448145">
                <ele>64.550000</ele>
                <time>2014-11-01T09:56:40Z</time>
            </trkpt>
            <trkpt lon="100.995322" lat="14.448231">
                <ele>65.030000</ele>
                <time>2014-11-01T09:56:56Z</time>
            </trkpt>
            <trkpt lon="100.994897" lat="14.448362">
                <ele>63.580000</ele>
                <time>2014-11-01T09:57:04Z</time>
            </trkpt>
            <trkpt lon="100.994230" lat="14.448871">
                <ele>63.580000</ele>
                <time>2014-11-01T09:57:19Z</time>
            </trkpt>
            <trkpt lon="100.993809" lat="14.449806">
                <ele>63.580000</ele>
                <time>2014-11-01T09:57:37Z</time>
            </trkpt>
            <trkpt lon="100.993656" lat="14.450256">
                <ele>62.140000</ele>
                <time>2014-11-01T09:57:48Z</time>
            </trkpt>
            <trkpt lon="100.993755" lat="14.450822">
                <ele>60.700000</ele>
                <time>2014-11-01T09:58:03Z</time>
            </trkpt>
            <trkpt lon="100.993805" lat="14.451249">
                <ele>59.740000</ele>
                <time>2014-11-01T09:58:15Z</time>
            </trkpt>
            <trkpt lon="100.993909" lat="14.451810">
                <ele>60.220000</ele>
                <time>2014-11-01T09:58:32Z</time>
            </trkpt>
            <trkpt lon="100.994008" lat="14.452399">
                <ele>59.260000</ele>
                <time>2014-11-01T09:58:47Z</time>
            </trkpt>
            <trkpt lon="100.994072" lat="14.452538">
                <ele>60.220000</ele>
                <time>2014-11-01T09:58:51Z</time>
            </trkpt>
            <trkpt lon="100.994208" lat="14.452922">
                <ele>60.220000</ele>
                <time>2014-11-01T09:59:03Z</time>
            </trkpt>
            <trkpt lon="100.994301" lat="14.453277">
                <ele>61.660000</ele>
                <time>2014-11-01T09:59:17Z</time>
            </trkpt>
            <trkpt lon="100.994441" lat="14.453453">
                <ele>62.140000</ele>
                <time>2014-11-01T09:59:30Z</time>
            </trkpt>
            <trkpt lon="100.994567" lat="14.453548">
                <ele>63.100000</ele>
                <time>2014-11-01T09:59:40Z</time>
            </trkpt>
            <trkpt lon="100.994180" lat="14.453822">
                <ele>64.070000</ele>
                <time>2014-11-01T09:59:57Z</time>
            </trkpt>
            <trkpt lon="100.993498" lat="14.453959">
                <ele>62.140000</ele>
                <time>2014-11-01T10:00:13Z</time>
            </trkpt>
            <trkpt lon="100.992797" lat="14.454107">
                <ele>59.260000</ele>
                <time>2014-11-01T10:00:27Z</time>
            </trkpt>
            <trkpt lon="100.992019" lat="14.454334">
                <ele>59.260000</ele>
                <time>2014-11-01T10:00:43Z</time>
            </trkpt>
            <trkpt lon="100.991671" lat="14.454493">
                <ele>58.300000</ele>
                <time>2014-11-01T10:00:51Z</time>
            </trkpt>
            <trkpt lon="100.991508" lat="14.454660">
                <ele>58.300000</ele>
                <time>2014-11-01T10:00:56Z</time>
            </trkpt>
            <trkpt lon="100.991395" lat="14.454749">
                <ele>58.300000</ele>
                <time>2014-11-01T10:00:59Z</time>
            </trkpt>
            <trkpt lon="100.991117" lat="14.454870">
                <ele>58.300000</ele>
                <time>2014-11-01T10:01:05Z</time>
            </trkpt>
            <trkpt lon="100.991025" lat="14.454893">
                <ele>58.300000</ele>
                <time>2014-11-01T10:01:07Z</time>
            </trkpt>
            <trkpt lon="100.990889" lat="14.454930">
                <ele>58.300000</ele>
                <time>2014-11-01T10:01:10Z</time>
            </trkpt>
            <trkpt lon="100.990442" lat="14.455147">
                <ele>59.260000</ele>
                <time>2014-11-01T10:01:24Z</time>
            </trkpt>
            <trkpt lon="100.989988" lat="14.455249">
                <ele>60.220000</ele>
                <time>2014-11-01T10:01:38Z</time>
            </trkpt>
            <trkpt lon="100.989440" lat="14.455321">
                <ele>59.740000</ele>
                <time>2014-11-01T10:01:50Z</time>
            </trkpt>
            <trkpt lon="100.988914" lat="14.455426">
                <ele>60.700000</ele>
                <time>2014-11-01T10:02:03Z</time>
            </trkpt>
            <trkpt lon="100.988513" lat="14.455499">
                <ele>60.700000</ele>
                <time>2014-11-01T10:02:15Z</time>
            </trkpt>
            <trkpt lon="100.988022" lat="14.455580">
                <ele>61.660000</ele>
                <time>2014-11-01T10:02:31Z</time>
            </trkpt>
            <trkpt lon="100.987456" lat="14.455653">
                <ele>62.620000</ele>
                <time>2014-11-01T10:02:46Z</time>
            </trkpt>
            <trkpt lon="100.986749" lat="14.455788">
                <ele>62.140000</ele>
                <time>2014-11-01T10:03:02Z</time>
            </trkpt>
            <trkpt lon="100.986702" lat="14.455795">
                <ele>62.140000</ele>
                <time>2014-11-01T10:03:03Z</time>
            </trkpt>
            <trkpt lon="100.986032" lat="14.455816">
                <ele>61.660000</ele>
                <time>2014-11-01T10:03:17Z</time>
            </trkpt>
            <trkpt lon="100.985370" lat="14.455946">
                <ele>61.660000</ele>
                <time>2014-11-01T10:03:30Z</time>
            </trkpt>
            <trkpt lon="100.985329" lat="14.455975">
                <ele>61.180000</ele>
                <time>2014-11-01T10:03:31Z</time>
            </trkpt>
            <trkpt lon="100.985290" lat="14.456004">
                <ele>61.660000</ele>
                <time>2014-11-01T10:03:32Z</time>
            </trkpt>
            <trkpt lon="100.985213" lat="14.456071">
                <ele>61.660000</ele>
                <time>2014-11-01T10:03:34Z</time>
            </trkpt>
            <trkpt lon="100.985179" lat="14.456111">
                <ele>62.140000</ele>
                <time>2014-11-01T10:03:35Z</time>
            </trkpt>
            <trkpt lon="100.985148" lat="14.456153">
                <ele>61.660000</ele>
                <time>2014-11-01T10:03:36Z</time>
            </trkpt>
            <trkpt lon="100.984779" lat="14.456755">
                <ele>61.180000</ele>
                <time>2014-11-01T10:03:49Z</time>
            </trkpt>
            <trkpt lon="100.984111" lat="14.457360">
                <ele>60.220000</ele>
                <time>2014-11-01T10:04:04Z</time>
            </trkpt>
            <trkpt lon="100.983939" lat="14.457601">
                <ele>59.740000</ele>
                <time>2014-11-01T10:04:09Z</time>
            </trkpt>
            <trkpt lon="100.983881" lat="14.457768">
                <ele>59.740000</ele>
                <time>2014-11-01T10:04:12Z</time>
            </trkpt>
            <trkpt lon="100.983863" lat="14.457883">
                <ele>60.220000</ele>
                <time>2014-11-01T10:04:14Z</time>
            </trkpt>
            <trkpt lon="100.983848" lat="14.458296">
                <ele>59.260000</ele>
                <time>2014-11-01T10:04:21Z</time>
            </trkpt>
            <trkpt lon="100.983836" lat="14.458356">
                <ele>59.740000</ele>
                <time>2014-11-01T10:04:22Z</time>
            </trkpt>
            <trkpt lon="100.983801" lat="14.458473">
                <ele>59.740000</ele>
                <time>2014-11-01T10:04:24Z</time>
            </trkpt>
            <trkpt lon="100.983762" lat="14.458522">
                <ele>58.780000</ele>
                <time>2014-11-01T10:04:25Z</time>
            </trkpt>
            <trkpt lon="100.983714" lat="14.458565">
                <ele>59.740000</ele>
                <time>2014-11-01T10:04:26Z</time>
            </trkpt>
            <trkpt lon="100.983660" lat="14.458606">
                <ele>59.740000</ele>
                <time>2014-11-01T10:04:27Z</time>
            </trkpt>
            <trkpt lon="100.983606" lat="14.458645">
                <ele>59.260000</ele>
                <time>2014-11-01T10:04:28Z</time>
            </trkpt>
            <trkpt lon="100.983550" lat="14.458677">
                <ele>59.740000</ele>
                <time>2014-11-01T10:04:29Z</time>
            </trkpt>
            <trkpt lon="100.983490" lat="14.458709">
                <ele>59.260000</ele>
                <time>2014-11-01T10:04:30Z</time>
            </trkpt>
            <trkpt lon="100.982827" lat="14.459327">
                <ele>56.370000</ele>
                <time>2014-11-01T10:04:43Z</time>
            </trkpt>
            <trkpt lon="100.982770" lat="14.459382">
                <ele>56.370000</ele>
                <time>2014-11-01T10:04:44Z</time>
            </trkpt>
            <trkpt lon="100.982008" lat="14.460270">
                <ele>53.490000</ele>
                <time>2014-11-01T10:04:58Z</time>
            </trkpt>
            <trkpt lon="100.981634" lat="14.461167">
                <ele>53.010000</ele>
                <time>2014-11-01T10:05:12Z</time>
            </trkpt>
            <trkpt lon="100.981476" lat="14.461370">
                <ele>53.010000</ele>
                <time>2014-11-01T10:05:16Z</time>
            </trkpt>
            <trkpt lon="100.981427" lat="14.461412">
                <ele>53.010000</ele>
                <time>2014-11-01T10:05:17Z</time>
            </trkpt>
            <trkpt lon="100.981376" lat="14.461450">
                <ele>53.010000</ele>
                <time>2014-11-01T10:05:18Z</time>
            </trkpt>
            <trkpt lon="100.980822" lat="14.461807">
                <ele>51.090000</ele>
                <time>2014-11-01T10:05:30Z</time>
            </trkpt>
            <trkpt lon="100.980788" lat="14.462267">
                <ele>52.050000</ele>
                <time>2014-11-01T10:05:42Z</time>
            </trkpt>
            <trkpt lon="100.980884" lat="14.463090">
                <ele>51.570000</ele>
                <time>2014-11-01T10:05:59Z</time>
            </trkpt>
            <trkpt lon="100.980793" lat="14.463861">
                <ele>52.050000</ele>
                <time>2014-11-01T10:06:14Z</time>
            </trkpt>
            <trkpt lon="100.980705" lat="14.464367">
                <ele>52.050000</ele>
                <time>2014-11-01T10:06:24Z</time>
            </trkpt>
            <trkpt lon="100.980705" lat="14.464418">
                <ele>52.050000</ele>
                <time>2014-11-01T10:06:25Z</time>
            </trkpt>
            <trkpt lon="100.980568" lat="14.465273">
                <ele>51.090000</ele>
                <time>2014-11-01T10:06:41Z</time>
            </trkpt>
            <trkpt lon="100.980528" lat="14.465735">
                <ele>50.130000</ele>
                <time>2014-11-01T10:06:49Z</time>
            </trkpt>
            <trkpt lon="100.980535" lat="14.465795">
                <ele>50.130000</ele>
                <time>2014-11-01T10:06:50Z</time>
            </trkpt>
            <trkpt lon="100.980549" lat="14.465854">
                <ele>50.130000</ele>
                <time>2014-11-01T10:06:51Z</time>
            </trkpt>
            <trkpt lon="100.980566" lat="14.465911">
                <ele>49.650000</ele>
                <time>2014-11-01T10:06:52Z</time>
            </trkpt>
            <trkpt lon="100.980589" lat="14.465967">
                <ele>49.650000</ele>
                <time>2014-11-01T10:06:53Z</time>
            </trkpt>
            <trkpt lon="100.980617" lat="14.466021">
                <ele>49.160000</ele>
                <time>2014-11-01T10:06:54Z</time>
            </trkpt>
            <trkpt lon="100.980648" lat="14.466075">
                <ele>49.160000</ele>
                <time>2014-11-01T10:06:55Z</time>
            </trkpt>
            <trkpt lon="100.981274" lat="14.467009">
                <ele>47.720000</ele>
                <time>2014-11-01T10:07:13Z</time>
            </trkpt>
            <trkpt lon="100.981845" lat="14.468221">
                <ele>46.760000</ele>
                <time>2014-11-01T10:07:34Z</time>
            </trkpt>
            <trkpt lon="100.982198" lat="14.469288">
                <ele>46.280000</ele>
                <time>2014-11-01T10:07:53Z</time>
            </trkpt>
            <trkpt lon="100.982568" lat="14.470562">
                <ele>45.800000</ele>
                <time>2014-11-01T10:08:17Z</time>
            </trkpt>
            <trkpt lon="100.982925" lat="14.471732">
                <ele>45.320000</ele>
                <time>2014-11-01T10:08:39Z</time>
            </trkpt>
            <trkpt lon="100.983409" lat="14.472604">
                <ele>44.840000</ele>
                <time>2014-11-01T10:08:59Z</time>
            </trkpt>
            <trkpt lon="100.983877" lat="14.473209">
                <ele>45.800000</ele>
                <time>2014-11-01T10:09:18Z</time>
            </trkpt>
            <trkpt lon="100.984274" lat="14.473841">
                <ele>46.760000</ele>
                <time>2014-11-01T10:09:38Z</time>
            </trkpt>
            <trkpt lon="100.984578" lat="14.474394">
                <ele>47.240000</ele>
                <time>2014-11-01T10:09:53Z</time>
            </trkpt>
            <trkpt lon="100.984610" lat="14.474427">
                <ele>46.760000</ele>
                <time>2014-11-01T10:09:54Z</time>
            </trkpt>
            <trkpt lon="100.984647" lat="14.474456">
                <ele>46.760000</ele>
                <time>2014-11-01T10:09:55Z</time>
            </trkpt>
            <trkpt lon="100.984688" lat="14.474481">
                <ele>46.760000</ele>
                <time>2014-11-01T10:09:56Z</time>
            </trkpt>
            <trkpt lon="100.984732" lat="14.474503">
                <ele>46.760000</ele>
                <time>2014-11-01T10:09:57Z</time>
            </trkpt>
            <trkpt lon="100.984779" lat="14.474519">
                <ele>47.240000</ele>
                <time>2014-11-01T10:09:58Z</time>
            </trkpt>
            <trkpt lon="100.984828" lat="14.474529">
                <ele>46.760000</ele>
                <time>2014-11-01T10:09:59Z</time>
            </trkpt>
            <trkpt lon="100.984878" lat="14.474535">
                <ele>46.760000</ele>
                <time>2014-11-01T10:10:00Z</time>
            </trkpt>
            <trkpt lon="100.984930" lat="14.474537">
                <ele>46.280000</ele>
                <time>2014-11-01T10:10:01Z</time>
            </trkpt>
            <trkpt lon="100.984982" lat="14.474536">
                <ele>47.240000</ele>
                <time>2014-11-01T10:10:02Z</time>
            </trkpt>
            <trkpt lon="100.985035" lat="14.474532">
                <ele>46.760000</ele>
                <time>2014-11-01T10:10:03Z</time>
            </trkpt>
            <trkpt lon="100.985087" lat="14.474525">
                <ele>46.280000</ele>
                <time>2014-11-01T10:10:04Z</time>
            </trkpt>
            <trkpt lon="100.985358" lat="14.474507">
                <ele>45.800000</ele>
                <time>2014-11-01T10:10:09Z</time>
            </trkpt>
            <trkpt lon="100.985408" lat="14.474517">
                <ele>46.760000</ele>
                <time>2014-11-01T10:10:10Z</time>
            </trkpt>
            <trkpt lon="100.985456" lat="14.474542">
                <ele>45.800000</ele>
                <time>2014-11-01T10:10:11Z</time>
            </trkpt>
            <trkpt lon="100.985497" lat="14.474578">
                <ele>45.800000</ele>
                <time>2014-11-01T10:10:12Z</time>
            </trkpt>
            <trkpt lon="100.985531" lat="14.474622">
                <ele>45.800000</ele>
                <time>2014-11-01T10:10:13Z</time>
            </trkpt>
            <trkpt lon="100.985559" lat="14.474670">
                <ele>45.800000</ele>
                <time>2014-11-01T10:10:14Z</time>
            </trkpt>
            <trkpt lon="100.985584" lat="14.474721">
                <ele>45.800000</ele>
                <time>2014-11-01T10:10:15Z</time>
            </trkpt>
            <trkpt lon="100.985843" lat="14.475485">
                <ele>45.320000</ele>
                <time>2014-11-01T10:10:30Z</time>
            </trkpt>
            <trkpt lon="100.986317" lat="14.476619">
                <ele>44.840000</ele>
                <time>2014-11-01T10:10:52Z</time>
            </trkpt>
            <trkpt lon="100.986698" lat="14.477604">
                <ele>44.840000</ele>
                <time>2014-11-01T10:11:13Z</time>
            </trkpt>
            <trkpt lon="100.986895" lat="14.478616">
                <ele>44.840000</ele>
                <time>2014-11-01T10:11:33Z</time>
            </trkpt>
            <trkpt lon="100.986986" lat="14.479291">
                <ele>43.400000</ele>
                <time>2014-11-01T10:11:50Z</time>
            </trkpt>
            <trkpt lon="100.986993" lat="14.479451">
                <ele>42.920000</ele>
                <time>2014-11-01T10:12:00Z</time>
            </trkpt>
            <trkpt lon="100.986891" lat="14.479559">
                <ele>42.920000</ele>
                <time>2014-11-01T10:12:08Z</time>
            </trkpt>
            <trkpt lon="100.986887" lat="14.479628">
                <ele>42.920000</ele>
                <time>2014-11-01T10:12:20Z</time>
            </trkpt>
            <trkpt lon="100.986880" lat="14.479653">
                <ele>42.920000</ele>
                <time>2014-11-01T10:12:35Z</time>
            </trkpt>
            <trkpt lon="100.986731" lat="14.479992">
                <ele>42.440000</ele>
                <time>2014-11-01T10:12:47Z</time>
            </trkpt>
            <trkpt lon="100.986486" lat="14.480553">
                <ele>42.440000</ele>
                <time>2014-11-01T10:13:04Z</time>
            </trkpt>
            <trkpt lon="100.986251" lat="14.481114">
                <ele>42.440000</ele>
                <time>2014-11-01T10:13:19Z</time>
            </trkpt>
            <trkpt lon="100.986224" lat="14.481292">
                <ele>41.470000</ele>
                <time>2014-11-01T10:13:30Z</time>
            </trkpt>
            <trkpt lon="100.986191" lat="14.481368">
                <ele>41.950000</ele>
                <time>2014-11-01T10:13:35Z</time>
            </trkpt>
            <trkpt lon="100.986154" lat="14.481443">
                <ele>41.950000</ele>
                <time>2014-11-01T10:13:39Z</time>
            </trkpt>
            <trkpt lon="100.986043" lat="14.481693">
                <ele>41.950000</ele>
                <time>2014-11-01T10:13:48Z</time>
            </trkpt>
            <trkpt lon="100.985999" lat="14.481878">
                <ele>41.950000</ele>
                <time>2014-11-01T10:13:53Z</time>
            </trkpt>
            <trkpt lon="100.985716" lat="14.482190">
                <ele>41.950000</ele>
                <time>2014-11-01T10:14:05Z</time>
            </trkpt>
            <trkpt lon="100.985117" lat="14.482348">
                <ele>41.470000</ele>
                <time>2014-11-01T10:14:22Z</time>
            </trkpt>
            <trkpt lon="100.984309" lat="14.482575">
                <ele>41.950000</ele>
                <time>2014-11-01T10:14:40Z</time>
            </trkpt>
            <trkpt lon="100.983139" lat="14.482907">
                <ele>41.950000</ele>
                <time>2014-11-01T10:15:03Z</time>
            </trkpt>
            <trkpt lon="100.981974" lat="14.483254">
                <ele>40.990000</ele>
                <time>2014-11-01T10:15:24Z</time>
            </trkpt>
            <trkpt lon="100.981487" lat="14.483403">
                <ele>40.990000</ele>
                <time>2014-11-01T10:15:33Z</time>
            </trkpt>
            <trkpt lon="100.981450" lat="14.483434">
                <ele>40.510000</ele>
                <time>2014-11-01T10:15:34Z</time>
            </trkpt>
            <trkpt lon="100.981424" lat="14.483475">
                <ele>40.990000</ele>
                <time>2014-11-01T10:15:35Z</time>
            </trkpt>
            <trkpt lon="100.981411" lat="14.483523">
                <ele>40.510000</ele>
                <time>2014-11-01T10:15:36Z</time>
            </trkpt>
            <trkpt lon="100.981413" lat="14.483576">
                <ele>40.990000</ele>
                <time>2014-11-01T10:15:37Z</time>
            </trkpt>
            <trkpt lon="100.981425" lat="14.483627">
                <ele>40.990000</ele>
                <time>2014-11-01T10:15:38Z</time>
            </trkpt>
            <trkpt lon="100.981441" lat="14.483678">
                <ele>40.510000</ele>
                <time>2014-11-01T10:15:39Z</time>
            </trkpt>
            <trkpt lon="100.981756" lat="14.484473">
                <ele>40.510000</ele>
                <time>2014-11-01T10:15:57Z</time>
            </trkpt>
            <trkpt lon="100.982170" lat="14.485509">
                <ele>40.030000</ele>
                <time>2014-11-01T10:16:20Z</time>
            </trkpt>
            <trkpt lon="100.982502" lat="14.486351">
                <ele>40.030000</ele>
                <time>2014-11-01T10:16:40Z</time>
            </trkpt>
            <trkpt lon="100.982850" lat="14.487315">
                <ele>40.030000</ele>
                <time>2014-11-01T10:17:02Z</time>
            </trkpt>
            <trkpt lon="100.982984" lat="14.487859">
                <ele>40.030000</ele>
                <time>2014-11-01T10:17:14Z</time>
            </trkpt>
            <trkpt lon="100.982972" lat="14.487901">
                <ele>39.550000</ele>
                <time>2014-11-01T10:17:15Z</time>
            </trkpt>
            <trkpt lon="100.982947" lat="14.487938">
                <ele>40.030000</ele>
                <time>2014-11-01T10:17:16Z</time>
            </trkpt>
            <trkpt lon="100.982912" lat="14.487968">
                <ele>40.030000</ele>
                <time>2014-11-01T10:17:17Z</time>
            </trkpt>
            <trkpt lon="100.982873" lat="14.487994">
                <ele>39.550000</ele>
                <time>2014-11-01T10:17:18Z</time>
            </trkpt>
            <trkpt lon="100.982834" lat="14.488019">
                <ele>40.030000</ele>
                <time>2014-11-01T10:17:19Z</time>
            </trkpt>
            <trkpt lon="100.982008" lat="14.488450">
                <ele>39.550000</ele>
                <time>2014-11-01T10:17:38Z</time>
            </trkpt>
            <trkpt lon="100.981164" lat="14.488907">
                <ele>39.550000</ele>
                <time>2014-11-01T10:17:57Z</time>
            </trkpt>
            <trkpt lon="100.980447" lat="14.489288">
                <ele>39.550000</ele>
                <time>2014-11-01T10:18:13Z</time>
            </trkpt>
            <trkpt lon="100.979596" lat="14.489694">
                <ele>39.070000</ele>
                <time>2014-11-01T10:18:32Z</time>
            </trkpt>
            <trkpt lon="100.979286" lat="14.489858">
                <ele>39.070000</ele>
                <time>2014-11-01T10:18:41Z</time>
            </trkpt>
            <trkpt lon="100.978465" lat="14.490272">
                <ele>38.590000</ele>
                <time>2014-11-01T10:19:00Z</time>
            </trkpt>
            <trkpt lon="100.977403" lat="14.490766">
                <ele>38.590000</ele>
                <time>2014-11-01T10:19:23Z</time>
            </trkpt>
            <trkpt lon="100.976551" lat="14.491117">
                <ele>38.110000</ele>
                <time>2014-11-01T10:19:41Z</time>
            </trkpt>
            <trkpt lon="100.975851" lat="14.491382">
                <ele>38.110000</ele>
                <time>2014-11-01T10:19:55Z</time>
            </trkpt>
            <trkpt lon="100.974680" lat="14.491835">
                <ele>37.150000</ele>
                <time>2014-11-01T10:20:19Z</time>
            </trkpt>
            <trkpt lon="100.973812" lat="14.492305">
                <ele>36.670000</ele>
                <time>2014-11-01T10:20:38Z</time>
            </trkpt>
            <trkpt lon="100.972831" lat="14.492893">
                <ele>36.670000</ele>
                <time>2014-11-01T10:21:00Z</time>
            </trkpt>
            <trkpt lon="100.972147" lat="14.493301">
                <ele>37.150000</ele>
                <time>2014-11-01T10:21:15Z</time>
            </trkpt>
            <trkpt lon="100.971932" lat="14.493417">
                <ele>36.670000</ele>
                <time>2014-11-01T10:21:20Z</time>
            </trkpt>
            <trkpt lon="100.971886" lat="14.493433">
                <ele>36.670000</ele>
                <time>2014-11-01T10:21:21Z</time>
            </trkpt>
            <trkpt lon="100.971838" lat="14.493443">
                <ele>36.670000</ele>
                <time>2014-11-01T10:21:22Z</time>
            </trkpt>
            <trkpt lon="100.971582" lat="14.493484">
                <ele>36.670000</ele>
                <time>2014-11-01T10:21:27Z</time>
            </trkpt>
            <trkpt lon="100.971532" lat="14.493500">
                <ele>36.670000</ele>
                <time>2014-11-01T10:21:28Z</time>
            </trkpt>
            <trkpt lon="100.971140" lat="14.493700">
                <ele>36.670000</ele>
                <time>2014-11-01T10:21:37Z</time>
            </trkpt>
            <trkpt lon="100.971102" lat="14.493734">
                <ele>36.670000</ele>
                <time>2014-11-01T10:21:38Z</time>
            </trkpt>
            <trkpt lon="100.971076" lat="14.493771">
                <ele>37.150000</ele>
                <time>2014-11-01T10:21:39Z</time>
            </trkpt>
            <trkpt lon="100.971057" lat="14.493816">
                <ele>36.670000</ele>
                <time>2014-11-01T10:21:40Z</time>
            </trkpt>
            <trkpt lon="100.971046" lat="14.493864">
                <ele>36.670000</ele>
                <time>2014-11-01T10:21:41Z</time>
            </trkpt>
            <trkpt lon="100.971039" lat="14.493911">
                <ele>36.190000</ele>
                <time>2014-11-01T10:21:42Z</time>
            </trkpt>
            <trkpt lon="100.971025" lat="14.494006">
                <ele>36.670000</ele>
                <time>2014-11-01T10:21:44Z</time>
            </trkpt>
            <trkpt lon="100.970977" lat="14.494694">
                <ele>36.670000</ele>
                <time>2014-11-01T10:22:01Z</time>
            </trkpt>
            <trkpt lon="100.970932" lat="14.494957">
                <ele>37.630000</ele>
                <time>2014-11-01T10:22:08Z</time>
            </trkpt>
            <trkpt lon="100.970899" lat="14.494975">
                <ele>36.670000</ele>
                <time>2014-11-01T10:22:09Z</time>
            </trkpt>
            <trkpt lon="100.970861" lat="14.494985">
                <ele>36.670000</ele>
                <time>2014-11-01T10:22:10Z</time>
            </trkpt>
            <trkpt lon="100.970817" lat="14.494989">
                <ele>37.150000</ele>
                <time>2014-11-01T10:22:11Z</time>
            </trkpt>
            <trkpt lon="100.970770" lat="14.494991">
                <ele>37.150000</ele>
                <time>2014-11-01T10:22:12Z</time>
            </trkpt>
            <trkpt lon="100.970486" lat="14.495018">
                <ele>37.150000</ele>
                <time>2014-11-01T10:22:18Z</time>
            </trkpt>
            <trkpt lon="100.970438" lat="14.495012">
                <ele>37.150000</ele>
                <time>2014-11-01T10:22:19Z</time>
            </trkpt>
            <trkpt lon="100.970232" lat="14.494970">
                <ele>37.150000</ele>
                <time>2014-11-01T10:22:24Z</time>
            </trkpt>
            <trkpt lon="100.969962" lat="14.494970">
                <ele>37.150000</ele>
                <time>2014-11-01T10:22:30Z</time>
            </trkpt>
            <trkpt lon="100.969118" lat="14.495004">
                <ele>36.670000</ele>
                <time>2014-11-01T10:22:49Z</time>
            </trkpt>
            <trkpt lon="100.968875" lat="14.495045">
                <ele>36.670000</ele>
                <time>2014-11-01T10:23:01Z</time>
            </trkpt>
            <trkpt lon="100.968886" lat="14.495033">
                <ele>36.670000</ele>
                <time>2014-11-01T10:23:05Z</time>
            </trkpt>
            <trkpt lon="100.968896" lat="14.495030">
                <ele>36.670000</ele>
                <time>2014-11-01T10:23:06Z</time>
            </trkpt>
            <trkpt lon="100.968908" lat="14.495036">
                <ele>36.670000</ele>
                <time>2014-11-01T10:23:07Z</time>
            </trkpt>
            <trkpt lon="100.968916" lat="14.495045">
                <ele>36.190000</ele>
                <time>2014-11-01T10:23:08Z</time>
            </trkpt>
            <trkpt lon="100.969073" lat="14.495364">
                <ele>37.150000</ele>
                <time>2014-11-01T10:23:24Z</time>
            </trkpt>
            <trkpt lon="100.969126" lat="14.495508">
                <ele>37.150000</ele>
                <time>2014-11-01T10:23:31Z</time>
            </trkpt>
            <trkpt lon="100.969061" lat="14.495599">
                <ele>37.150000</ele>
                <time>2014-11-01T10:23:35Z</time>
            </trkpt>
            <trkpt lon="100.968886" lat="14.495704">
                <ele>37.150000</ele>
                <time>2014-11-01T10:23:44Z</time>
            </trkpt>
            <trkpt lon="100.969014" lat="14.496150">
                <ele>37.150000</ele>
                <time>2014-11-01T10:23:59Z</time>
            </trkpt>
            <trkpt lon="100.969070" lat="14.496256">
                <ele>37.630000</ele>
                <time>2014-11-01T10:24:02Z</time>
            </trkpt>
            <trkpt lon="100.969186" lat="14.496738">
                <ele>35.710000</ele>
                <time>2014-11-01T10:24:15Z</time>
            </trkpt>
            <trkpt lon="100.968880" lat="14.496769">
                <ele>35.710000</ele>
                <time>2014-11-01T10:24:25Z</time>
            </trkpt>
            <trkpt lon="100.968812" lat="14.496769">
                <ele>34.740000</ele>
                <time>2014-11-01T10:24:27Z</time>
            </trkpt>
            <trkpt lon="100.968652" lat="14.496411">
                <ele>37.150000</ele>
                <time>2014-11-01T10:24:38Z</time>
            </trkpt>
            <trkpt lon="100.968534" lat="14.495726">
                <ele>38.590000</ele>
                <time>2014-11-01T10:24:57Z</time>
            </trkpt>
            <trkpt lon="100.968351" lat="14.495122">
                <ele>38.110000</ele>
                <time>2014-11-01T10:25:12Z</time>
            </trkpt>
            <trkpt lon="100.968311" lat="14.495113">
                <ele>38.110000</ele>
                <time>2014-11-01T10:25:13Z</time>
            </trkpt>
            <trkpt lon="100.968269" lat="14.495116">
                <ele>37.630000</ele>
                <time>2014-11-01T10:25:14Z</time>
            </trkpt>
            <trkpt lon="100.968223" lat="14.495127">
                <ele>37.630000</ele>
                <time>2014-11-01T10:25:15Z</time>
            </trkpt>
            <trkpt lon="100.968173" lat="14.495141">
                <ele>36.670000</ele>
                <time>2014-11-01T10:25:16Z</time>
            </trkpt>
            <trkpt lon="100.968077" lat="14.495172">
                <ele>37.150000</ele>
                <time>2014-11-01T10:25:18Z</time>
            </trkpt>
            <trkpt lon="100.968036" lat="14.495196">
                <ele>36.670000</ele>
                <time>2014-11-01T10:25:19Z</time>
            </trkpt>
            <trkpt lon="100.967917" lat="14.495276">
                <ele>37.150000</ele>
                <time>2014-11-01T10:25:22Z</time>
            </trkpt>
            <trkpt lon="100.967793" lat="14.495353">
                <ele>36.190000</ele>
                <time>2014-11-01T10:25:25Z</time>
            </trkpt>
            <trkpt lon="100.967748" lat="14.495374">
                <ele>36.670000</ele>
                <time>2014-11-01T10:25:26Z</time>
            </trkpt>
            <trkpt lon="100.967217" lat="14.495622">
                <ele>37.630000</ele>
                <time>2014-11-01T10:25:38Z</time>
            </trkpt>
            <trkpt lon="100.966939" lat="14.495765">
                <ele>37.150000</ele>
                <time>2014-11-01T10:25:44Z</time>
            </trkpt>
            <trkpt lon="100.965988" lat="14.496212">
                <ele>36.670000</ele>
                <time>2014-11-01T10:26:04Z</time>
            </trkpt>
            <trkpt lon="100.965038" lat="14.496585">
                <ele>37.150000</ele>
                <time>2014-11-01T10:26:23Z</time>
            </trkpt>
            <trkpt lon="100.964176" lat="14.496839">
                <ele>36.670000</ele>
                <time>2014-11-01T10:26:38Z</time>
            </trkpt>
            <trkpt lon="100.963442" lat="14.496865">
                <ele>36.190000</ele>
                <time>2014-11-01T10:26:52Z</time>
            </trkpt>
            <trkpt lon="100.962531" lat="14.496839">
                <ele>36.190000</ele>
                <time>2014-11-01T10:27:08Z</time>
            </trkpt>
            <trkpt lon="100.961769" lat="14.496840">
                <ele>35.710000</ele>
                <time>2014-11-01T10:27:22Z</time>
            </trkpt>
            <trkpt lon="100.961054" lat="14.496835">
                <ele>36.190000</ele>
                <time>2014-11-01T10:27:35Z</time>
            </trkpt>
            <trkpt lon="100.961007" lat="14.496853">
                <ele>35.710000</ele>
                <time>2014-11-01T10:27:36Z</time>
            </trkpt>
            <trkpt lon="100.960972" lat="14.496881">
                <ele>35.710000</ele>
                <time>2014-11-01T10:27:37Z</time>
            </trkpt>
            <trkpt lon="100.960946" lat="14.496922">
                <ele>36.190000</ele>
                <time>2014-11-01T10:27:38Z</time>
            </trkpt>
            <trkpt lon="100.960931" lat="14.496969">
                <ele>36.190000</ele>
                <time>2014-11-01T10:27:39Z</time>
            </trkpt>
            <trkpt lon="100.960920" lat="14.497020">
                <ele>36.190000</ele>
                <time>2014-11-01T10:27:40Z</time>
            </trkpt>
            <trkpt lon="100.960914" lat="14.497067">
                <ele>36.190000</ele>
                <time>2014-11-01T10:27:41Z</time>
            </trkpt>
            <trkpt lon="100.960913" lat="14.497119">
                <ele>35.710000</ele>
                <time>2014-11-01T10:27:42Z</time>
            </trkpt>
            <trkpt lon="100.960918" lat="14.497172">
                <ele>36.190000</ele>
                <time>2014-11-01T10:27:43Z</time>
            </trkpt>
            <trkpt lon="100.960939" lat="14.498122">
                <ele>36.670000</ele>
                <time>2014-11-01T10:28:01Z</time>
            </trkpt>
            <trkpt lon="100.960921" lat="14.498856">
                <ele>35.710000</ele>
                <time>2014-11-01T10:28:16Z</time>
            </trkpt>
            <trkpt lon="100.960912" lat="14.498900">
                <ele>35.230000</ele>
                <time>2014-11-01T10:28:17Z</time>
            </trkpt>
            <trkpt lon="100.960898" lat="14.498947">
                <ele>35.710000</ele>
                <time>2014-11-01T10:28:18Z</time>
            </trkpt>
            <trkpt lon="100.960883" lat="14.498990">
                <ele>35.230000</ele>
                <time>2014-11-01T10:28:19Z</time>
            </trkpt>
            <trkpt lon="100.960865" lat="14.499035">
                <ele>35.230000</ele>
                <time>2014-11-01T10:28:20Z</time>
            </trkpt>
            <trkpt lon="100.960843" lat="14.499078">
                <ele>35.710000</ele>
                <time>2014-11-01T10:28:21Z</time>
            </trkpt>
            <trkpt lon="100.960816" lat="14.499122">
                <ele>35.710000</ele>
                <time>2014-11-01T10:28:22Z</time>
            </trkpt>
            <trkpt lon="100.960786" lat="14.499163">
                <ele>35.710000</ele>
                <time>2014-11-01T10:28:23Z</time>
            </trkpt>
            <trkpt lon="100.960753" lat="14.499201">
                <ele>35.710000</ele>
                <time>2014-11-01T10:28:24Z</time>
            </trkpt>
            <trkpt lon="100.960719" lat="14.499236">
                <ele>35.710000</ele>
                <time>2014-11-01T10:28:25Z</time>
            </trkpt>
            <trkpt lon="100.960315" lat="14.499573">
                <ele>35.710000</ele>
                <time>2014-11-01T10:28:38Z</time>
            </trkpt>
            <trkpt lon="100.959579" lat="14.500178">
                <ele>35.710000</ele>
                <time>2014-11-01T10:28:56Z</time>
            </trkpt>
            <trkpt lon="100.959545" lat="14.500224">
                <ele>35.710000</ele>
                <time>2014-11-01T10:28:57Z</time>
            </trkpt>
            <trkpt lon="100.959127" lat="14.500832">
                <ele>35.710000</ele>
                <time>2014-11-01T10:29:10Z</time>
            </trkpt>
            <trkpt lon="100.959090" lat="14.500870">
                <ele>35.230000</ele>
                <time>2014-11-01T10:29:11Z</time>
            </trkpt>
            <trkpt lon="100.959048" lat="14.500903">
                <ele>35.710000</ele>
                <time>2014-11-01T10:29:12Z</time>
            </trkpt>
            <trkpt lon="100.959002" lat="14.500929">
                <ele>35.710000</ele>
                <time>2014-11-01T10:29:13Z</time>
            </trkpt>
            <trkpt lon="100.958952" lat="14.500945">
                <ele>35.710000</ele>
                <time>2014-11-01T10:29:14Z</time>
            </trkpt>
            <trkpt lon="100.958903" lat="14.500957">
                <ele>35.710000</ele>
                <time>2014-11-01T10:29:15Z</time>
            </trkpt>
            <trkpt lon="100.958802" lat="14.500991">
                <ele>35.230000</ele>
                <time>2014-11-01T10:29:17Z</time>
            </trkpt>
            <trkpt lon="100.958756" lat="14.501015">
                <ele>35.230000</ele>
                <time>2014-11-01T10:29:18Z</time>
            </trkpt>
            <trkpt lon="100.958489" lat="14.501118">
                <ele>34.740000</ele>
                <time>2014-11-01T10:29:27Z</time>
            </trkpt>
            <trkpt lon="100.958369" lat="14.501134">
                <ele>34.740000</ele>
                <time>2014-11-01T10:29:30Z</time>
            </trkpt>
            <trkpt lon="100.958327" lat="14.501148">
                <ele>34.740000</ele>
                <time>2014-11-01T10:29:31Z</time>
            </trkpt>
            <trkpt lon="100.957809" lat="14.501380">
                <ele>34.260000</ele>
                <time>2014-11-01T10:29:45Z</time>
            </trkpt>
            <trkpt lon="100.957381" lat="14.501339">
                <ele>34.740000</ele>
                <time>2014-11-01T10:30:00Z</time>
            </trkpt>
            <trkpt lon="100.957296" lat="14.501298">
                <ele>34.740000</ele>
                <time>2014-11-01T10:30:06Z</time>
            </trkpt>
            <trkpt lon="100.957261" lat="14.501184">
                <ele>34.740000</ele>
                <time>2014-11-01T10:30:11Z</time>
            </trkpt>
            <trkpt lon="100.957256" lat="14.501156">
                <ele>35.230000</ele>
                <time>2014-11-01T10:30:12Z</time>
            </trkpt>
            <trkpt lon="100.957252" lat="14.501129">
                <ele>35.230000</ele>
                <time>2014-11-01T10:30:13Z</time>
            </trkpt>
            <trkpt lon="100.957250" lat="14.501100">
                <ele>35.230000</ele>
                <time>2014-11-01T10:30:14Z</time>
            </trkpt>
            <trkpt lon="100.957160" lat="14.500773">
                <ele>35.230000</ele>
                <time>2014-11-01T10:30:29Z</time>
            </trkpt>
            <trkpt lon="100.957040" lat="14.500536">
                <ele>35.230000</ele>
                <time>2014-11-01T10:30:46Z</time>
            </trkpt>
            <trkpt lon="100.956982" lat="14.500225">
                <ele>35.710000</ele>
                <time>2014-11-01T10:31:04Z</time>
            </trkpt>
            <trkpt lon="100.956935" lat="14.499958">
                <ele>35.230000</ele>
                <time>2014-11-01T10:31:20Z</time>
            </trkpt>
            <trkpt lon="100.956817" lat="14.499685">
                <ele>36.190000</ele>
                <time>2014-11-01T10:31:36Z</time>
            </trkpt>
            <trkpt lon="100.956780" lat="14.499632">
                <ele>36.670000</ele>
                <time>2014-11-01T10:31:49Z</time>
            </trkpt>
            <trkpt lon="100.956612" lat="14.499378">
                <ele>37.150000</ele>
                <time>2014-11-01T10:32:04Z</time>
            </trkpt>
            <trkpt lon="100.956263" lat="14.499049">
                <ele>37.150000</ele>
                <time>2014-11-01T10:32:21Z</time>
            </trkpt>
            <trkpt lon="100.956149" lat="14.498984">
                <ele>36.670000</ele>
                <time>2014-11-01T10:32:27Z</time>
            </trkpt>
            <trkpt lon="100.956123" lat="14.498982">
                <ele>36.670000</ele>
                <time>2014-11-01T10:32:29Z</time>
            </trkpt>
            <trkpt lon="100.956016" lat="14.499105">
                <ele>37.150000</ele>
                <time>2014-11-01T10:32:41Z</time>
            </trkpt>
            <trkpt lon="100.955942" lat="14.499140">
                <ele>37.150000</ele>
                <time>2014-11-01T10:32:45Z</time>
            </trkpt>
            <trkpt lon="100.955634" lat="14.499273">
                <ele>37.150000</ele>
                <time>2014-11-01T10:33:00Z</time>
            </trkpt>
            <trkpt lon="100.955259" lat="14.499198">
                <ele>37.630000</ele>
                <time>2014-11-01T10:33:14Z</time>
            </trkpt>
            <trkpt lon="100.954752" lat="14.499054">
                <ele>39.070000</ele>
                <time>2014-11-01T10:33:31Z</time>
            </trkpt>
            <trkpt lon="100.954405" lat="14.498933">
                <ele>39.550000</ele>
                <time>2014-11-01T10:33:44Z</time>
            </trkpt>
            <trkpt lon="100.954133" lat="14.498922">
                <ele>39.070000</ele>
                <time>2014-11-01T10:33:58Z</time>
            </trkpt>
            <trkpt lon="100.953939" lat="14.498758">
                <ele>40.030000</ele>
                <time>2014-11-01T10:34:11Z</time>
            </trkpt>
            <trkpt lon="100.953725" lat="14.498665">
                <ele>40.510000</ele>
                <time>2014-11-01T10:34:22Z</time>
            </trkpt>
            <trkpt lon="100.953444" lat="14.498779">
                <ele>40.510000</ele>
                <time>2014-11-01T10:34:38Z</time>
            </trkpt>
            <trkpt lon="100.953215" lat="14.498801">
                <ele>40.990000</ele>
                <time>2014-11-01T10:34:49Z</time>
            </trkpt>
            <trkpt lon="100.953070" lat="14.498939">
                <ele>41.470000</ele>
                <time>2014-11-01T10:35:04Z</time>
            </trkpt>
            <trkpt lon="100.952979" lat="14.499129">
                <ele>41.950000</ele>
                <time>2014-11-01T10:35:13Z</time>
            </trkpt>
            <trkpt lon="100.952864" lat="14.499097">
                <ele>42.440000</ele>
                <time>2014-11-01T10:35:23Z</time>
            </trkpt>
            <trkpt lon="100.952666" lat="14.499287">
                <ele>43.400000</ele>
                <time>2014-11-01T10:35:39Z</time>
            </trkpt>
            <trkpt lon="100.952468" lat="14.499435">
                <ele>43.880000</ele>
                <time>2014-11-01T10:35:53Z</time>
            </trkpt>
            <trkpt lon="100.952229" lat="14.499554">
                <ele>44.360000</ele>
                <time>2014-11-01T10:36:10Z</time>
            </trkpt>
            <trkpt lon="100.952218" lat="14.499565">
                <ele>44.360000</ele>
                <time>2014-11-01T10:36:24Z</time>
            </trkpt>
            <trkpt lon="100.952291" lat="14.499756">
                <ele>45.320000</ele>
                <time>2014-11-01T10:36:39Z</time>
            </trkpt>
            <trkpt lon="100.952157" lat="14.499960">
                <ele>45.320000</ele>
                <time>2014-11-01T10:36:54Z</time>
            </trkpt>
            <trkpt lon="100.952196" lat="14.500189">
                <ele>44.840000</ele>
                <time>2014-11-01T10:37:07Z</time>
            </trkpt>
            <trkpt lon="100.952302" lat="14.500288">
                <ele>44.360000</ele>
                <time>2014-11-01T10:37:19Z</time>
            </trkpt>
            <trkpt lon="100.952521" lat="14.500499">
                <ele>42.920000</ele>
                <time>2014-11-01T10:37:30Z</time>
            </trkpt>
            <trkpt lon="100.952727" lat="14.500866">
                <ele>41.950000</ele>
                <time>2014-11-01T10:37:43Z</time>
            </trkpt>
            <trkpt lon="100.952999" lat="14.501171">
                <ele>41.470000</ele>
                <time>2014-11-01T10:37:54Z</time>
            </trkpt>
            <trkpt lon="100.953219" lat="14.501433">
                <ele>40.510000</ele>
                <time>2014-11-01T10:38:03Z</time>
            </trkpt>
            <trkpt lon="100.953239" lat="14.501617">
                <ele>39.550000</ele>
                <time>2014-11-01T10:38:09Z</time>
            </trkpt>
            <trkpt lon="100.953249" lat="14.501731">
                <ele>39.550000</ele>
                <time>2014-11-01T10:38:14Z</time>
            </trkpt>
            <trkpt lon="100.953175" lat="14.501960">
                <ele>38.590000</ele>
                <time>2014-11-01T10:38:25Z</time>
            </trkpt>
            <trkpt lon="100.953168" lat="14.502134">
                <ele>38.110000</ele>
                <time>2014-11-01T10:38:36Z</time>
            </trkpt>
            <trkpt lon="100.953176" lat="14.502298">
                <ele>37.630000</ele>
                <time>2014-11-01T10:38:43Z</time>
            </trkpt>
            <trkpt lon="100.953141" lat="14.502395">
                <ele>37.150000</ele>
                <time>2014-11-01T10:38:48Z</time>
            </trkpt>
            <trkpt lon="100.953122" lat="14.502551">
                <ele>37.150000</ele>
                <time>2014-11-01T10:38:59Z</time>
            </trkpt>
            <trkpt lon="100.953064" lat="14.502629">
                <ele>37.630000</ele>
                <time>2014-11-01T10:39:05Z</time>
            </trkpt>
            <trkpt lon="100.952847" lat="14.502877">
                <ele>38.590000</ele>
                <time>2014-11-01T10:39:22Z</time>
            </trkpt>
            <trkpt lon="100.952610" lat="14.503154">
                <ele>40.030000</ele>
                <time>2014-11-01T10:39:40Z</time>
            </trkpt>
            <trkpt lon="100.952354" lat="14.503420">
                <ele>40.510000</ele>
                <time>2014-11-01T10:39:57Z</time>
            </trkpt>
            <trkpt lon="100.952138" lat="14.503804">
                <ele>40.990000</ele>
                <time>2014-11-01T10:40:14Z</time>
            </trkpt>
            <trkpt lon="100.952125" lat="14.503904">
                <ele>40.510000</ele>
                <time>2014-11-01T10:40:18Z</time>
            </trkpt>
            <trkpt lon="100.952022" lat="14.504494">
                <ele>40.030000</ele>
                <time>2014-11-01T10:40:37Z</time>
            </trkpt>
            <trkpt lon="100.952022" lat="14.504961">
                <ele>39.070000</ele>
                <time>2014-11-01T10:40:51Z</time>
            </trkpt>
            <trkpt lon="100.951891" lat="14.505360">
                <ele>39.070000</ele>
                <time>2014-11-01T10:41:05Z</time>
            </trkpt>
            <trkpt lon="100.951815" lat="14.505693">
                <ele>38.590000</ele>
                <time>2014-11-01T10:41:16Z</time>
            </trkpt>
            <trkpt lon="100.951751" lat="14.506019">
                <ele>37.150000</ele>
                <time>2014-11-01T10:41:27Z</time>
            </trkpt>
            <trkpt lon="100.951552" lat="14.506332">
                <ele>36.670000</ele>
                <time>2014-11-01T10:41:40Z</time>
            </trkpt>
            <trkpt lon="100.951539" lat="14.506353">
                <ele>36.670000</ele>
                <time>2014-11-01T10:41:41Z</time>
            </trkpt>
            <trkpt lon="100.951497" lat="14.506463">
                <ele>36.190000</ele>
                <time>2014-11-01T10:41:46Z</time>
            </trkpt>
            <trkpt lon="100.951385" lat="14.506772">
                <ele>37.150000</ele>
                <time>2014-11-01T10:42:00Z</time>
            </trkpt>
            <trkpt lon="100.951186" lat="14.506922">
                <ele>37.150000</ele>
                <time>2014-11-01T10:42:14Z</time>
            </trkpt>
            <trkpt lon="100.950952" lat="14.507040">
                <ele>38.110000</ele>
                <time>2014-11-01T10:42:27Z</time>
            </trkpt>
            <trkpt lon="100.950713" lat="14.507104">
                <ele>39.070000</ele>
                <time>2014-11-01T10:42:40Z</time>
            </trkpt>
            <trkpt lon="100.950453" lat="14.507249">
                <ele>39.550000</ele>
                <time>2014-11-01T10:42:53Z</time>
            </trkpt>
            <trkpt lon="100.950117" lat="14.507338">
                <ele>38.590000</ele>
                <time>2014-11-01T10:43:06Z</time>
            </trkpt>
            <trkpt lon="100.949806" lat="14.507319">
                <ele>39.550000</ele>
                <time>2014-11-01T10:43:19Z</time>
            </trkpt>
            <trkpt lon="100.949791" lat="14.507310">
                <ele>40.030000</ele>
                <time>2014-11-01T10:43:20Z</time>
            </trkpt>
            <trkpt lon="100.949706" lat="14.507309">
                <ele>40.030000</ele>
                <time>2014-11-01T10:43:25Z</time>
            </trkpt>
            <trkpt lon="100.949421" lat="14.507358">
                <ele>40.990000</ele>
                <time>2014-11-01T10:43:39Z</time>
            </trkpt>
            <trkpt lon="100.949057" lat="14.507431">
                <ele>40.030000</ele>
                <time>2014-11-01T10:43:54Z</time>
            </trkpt>
            <trkpt lon="100.948852" lat="14.507640">
                <ele>39.550000</ele>
                <time>2014-11-01T10:44:05Z</time>
            </trkpt>
            <trkpt lon="100.948608" lat="14.507934">
                <ele>39.550000</ele>
                <time>2014-11-01T10:44:18Z</time>
            </trkpt>
            <trkpt lon="100.948403" lat="14.508117">
                <ele>40.030000</ele>
                <time>2014-11-01T10:44:30Z</time>
            </trkpt>
            <trkpt lon="100.948142" lat="14.508334">
                <ele>40.990000</ele>
                <time>2014-11-01T10:44:45Z</time>
            </trkpt>
            <trkpt lon="100.947944" lat="14.508515">
                <ele>41.950000</ele>
                <time>2014-11-01T10:44:59Z</time>
            </trkpt>
            <trkpt lon="100.947761" lat="14.508741">
                <ele>42.440000</ele>
                <time>2014-11-01T10:45:13Z</time>
            </trkpt>
            <trkpt lon="100.947641" lat="14.509020">
                <ele>42.920000</ele>
                <time>2014-11-01T10:45:30Z</time>
            </trkpt>
            <trkpt lon="100.947580" lat="14.509468">
                <ele>41.950000</ele>
                <time>2014-11-01T10:45:45Z</time>
            </trkpt>
            <trkpt lon="100.947419" lat="14.509836">
                <ele>40.510000</ele>
                <time>2014-11-01T10:45:58Z</time>
            </trkpt>
            <trkpt lon="100.947176" lat="14.510032">
                <ele>39.550000</ele>
                <time>2014-11-01T10:46:09Z</time>
            </trkpt>
            <trkpt lon="100.947122" lat="14.510079">
                <ele>39.550000</ele>
                <time>2014-11-01T10:46:12Z</time>
            </trkpt>
            <trkpt lon="100.946978" lat="14.510369">
                <ele>38.110000</ele>
                <time>2014-11-01T10:46:24Z</time>
            </trkpt>
            <trkpt lon="100.946656" lat="14.510772">
                <ele>36.670000</ele>
                <time>2014-11-01T10:46:38Z</time>
            </trkpt>
            <trkpt lon="100.946324" lat="14.511108">
                <ele>36.670000</ele>
                <time>2014-11-01T10:46:53Z</time>
            </trkpt>
            <trkpt lon="100.946170" lat="14.511388">
                <ele>35.710000</ele>
                <time>2014-11-01T10:47:05Z</time>
            </trkpt>
            <trkpt lon="100.946082" lat="14.511696">
                <ele>34.740000</ele>
                <time>2014-11-01T10:47:17Z</time>
            </trkpt>
            <trkpt lon="100.946027" lat="14.511989">
                <ele>33.780000</ele>
                <time>2014-11-01T10:47:32Z</time>
            </trkpt>
            <trkpt lon="100.946064" lat="14.512247">
                <ele>33.300000</ele>
                <time>2014-11-01T10:47:45Z</time>
            </trkpt>
            <trkpt lon="100.946038" lat="14.512596">
                <ele>32.820000</ele>
                <time>2014-11-01T10:47:58Z</time>
            </trkpt>
            <trkpt lon="100.945966" lat="14.512937">
                <ele>31.860000</ele>
                <time>2014-11-01T10:48:12Z</time>
            </trkpt>
            <trkpt lon="100.945783" lat="14.513208">
                <ele>32.340000</ele>
                <time>2014-11-01T10:48:27Z</time>
            </trkpt>
            <trkpt lon="100.945717" lat="14.513484">
                <ele>31.860000</ele>
                <time>2014-11-01T10:48:39Z</time>
            </trkpt>
            <trkpt lon="100.945598" lat="14.514012">
                <ele>30.900000</ele>
                <time>2014-11-01T10:48:58Z</time>
            </trkpt>
            <trkpt lon="100.945588" lat="14.514321">
                <ele>29.460000</ele>
                <time>2014-11-01T10:49:10Z</time>
            </trkpt>
            <trkpt lon="100.945625" lat="14.514503">
                <ele>29.940000</ele>
                <time>2014-11-01T10:49:24Z</time>
            </trkpt>
            <trkpt lon="100.945596" lat="14.514526">
                <ele>29.460000</ele>
                <time>2014-11-01T10:49:37Z</time>
            </trkpt>
            <trkpt lon="100.945596" lat="14.514528">
                <ele>29.460000</ele>
                <time>2014-11-01T10:49:41Z</time>
            </trkpt>
            <trkpt lon="100.945575" lat="14.514546">
                <ele>29.460000</ele>
                <time>2014-11-01T10:49:44Z</time>
            </trkpt>
            <trkpt lon="100.945547" lat="14.514607">
                <ele>29.940000</ele>
                <time>2014-11-01T10:49:48Z</time>
            </trkpt>
            <trkpt lon="100.945472" lat="14.514881">
                <ele>30.420000</ele>
                <time>2014-11-01T10:50:04Z</time>
            </trkpt>
            <trkpt lon="100.945365" lat="14.515137">
                <ele>29.940000</ele>
                <time>2014-11-01T10:50:17Z</time>
            </trkpt>
            <trkpt lon="100.945324" lat="14.515166">
                <ele>29.940000</ele>
                <time>2014-11-01T10:50:20Z</time>
            </trkpt>
            <trkpt lon="100.945134" lat="14.515168">
                <ele>29.940000</ele>
                <time>2014-11-01T10:50:32Z</time>
            </trkpt>
            <trkpt lon="100.945008" lat="14.515113">
                <ele>30.420000</ele>
                <time>2014-11-01T10:50:40Z</time>
            </trkpt>
            <trkpt lon="100.944710" lat="14.515044">
                <ele>31.380000</ele>
                <time>2014-11-01T10:50:56Z</time>
            </trkpt>
            <trkpt lon="100.944478" lat="14.515237">
                <ele>31.380000</ele>
                <time>2014-11-01T10:51:09Z</time>
            </trkpt>
            <trkpt lon="100.944128" lat="14.515262">
                <ele>32.340000</ele>
                <time>2014-11-01T10:51:25Z</time>
            </trkpt>
            <trkpt lon="100.943857" lat="14.515345">
                <ele>32.820000</ele>
                <time>2014-11-01T10:51:40Z</time>
            </trkpt>
            <trkpt lon="100.943724" lat="14.515635">
                <ele>34.260000</ele>
                <time>2014-11-01T10:51:55Z</time>
            </trkpt>
            <trkpt lon="100.943461" lat="14.515704">
                <ele>35.710000</ele>
                <time>2014-11-01T10:52:10Z</time>
            </trkpt>
            <trkpt lon="100.943193" lat="14.515761">
                <ele>37.150000</ele>
                <time>2014-11-01T10:52:26Z</time>
            </trkpt>
            <trkpt lon="100.943176" lat="14.515803">
                <ele>37.630000</ele>
                <time>2014-11-01T10:52:29Z</time>
            </trkpt>
            <trkpt lon="100.943179" lat="14.515823">
                <ele>37.630000</ele>
                <time>2014-11-01T10:52:30Z</time>
            </trkpt>
            <trkpt lon="100.943184" lat="14.515844">
                <ele>37.630000</ele>
                <time>2014-11-01T10:52:31Z</time>
            </trkpt>
            <trkpt lon="100.943187" lat="14.515869">
                <ele>37.630000</ele>
                <time>2014-11-01T10:52:32Z</time>
            </trkpt>
            <trkpt lon="100.943188" lat="14.515895">
                <ele>37.630000</ele>
                <time>2014-11-01T10:52:33Z</time>
            </trkpt>
            <trkpt lon="100.943189" lat="14.516404">
                <ele>37.150000</ele>
                <time>2014-11-01T10:52:51Z</time>
            </trkpt>
            <trkpt lon="100.943200" lat="14.516744">
                <ele>37.150000</ele>
                <time>2014-11-01T10:53:06Z</time>
            </trkpt>
            <trkpt lon="100.943106" lat="14.517297">
                <ele>37.630000</ele>
                <time>2014-11-01T10:53:23Z</time>
            </trkpt>
            <trkpt lon="100.942932" lat="14.518023">
                <ele>37.150000</ele>
                <time>2014-11-01T10:53:43Z</time>
            </trkpt>
            <trkpt lon="100.942906" lat="14.518188">
                <ele>37.150000</ele>
                <time>2014-11-01T10:53:50Z</time>
            </trkpt>
            <trkpt lon="100.942911" lat="14.518181">
                <ele>36.670000</ele>
                <time>2014-11-01T10:54:01Z</time>
            </trkpt>
            <trkpt lon="100.942909" lat="14.518158">
                <ele>36.190000</ele>
                <time>2014-11-01T10:54:06Z</time>
            </trkpt>
            <trkpt lon="100.942908" lat="14.518143">
                <ele>36.670000</ele>
                <time>2014-11-01T10:54:07Z</time>
            </trkpt>
            <trkpt lon="100.942909" lat="14.518125">
                <ele>37.150000</ele>
                <time>2014-11-01T10:54:08Z</time>
            </trkpt>
            <trkpt lon="100.942910" lat="14.518102">
                <ele>37.150000</ele>
                <time>2014-11-01T10:54:09Z</time>
            </trkpt>
            <trkpt lon="100.942914" lat="14.518077">
                <ele>36.670000</ele>
                <time>2014-11-01T10:54:10Z</time>
            </trkpt>
            <trkpt lon="100.942920" lat="14.518051">
                <ele>37.150000</ele>
                <time>2014-11-01T10:54:11Z</time>
            </trkpt>
            <trkpt lon="100.942970" lat="14.517961">
                <ele>36.670000</ele>
                <time>2014-11-01T10:54:16Z</time>
            </trkpt>
            <trkpt lon="100.942991" lat="14.517957">
                <ele>36.670000</ele>
                <time>2014-11-01T10:54:17Z</time>
            </trkpt>
            <trkpt lon="100.943058" lat="14.517956">
                <ele>36.670000</ele>
                <time>2014-11-01T10:54:20Z</time>
            </trkpt>
        </trkseg>
    </trk>
</gpx>